<?xml version="1.0" encoding="UTF-8" standalone="no" ?>
<gpx xmlns="http://www.topografix.com/GPX/1/1" xmlns:xsi="http://www.w3.org/2001/XMLSchema-instance" xsi:schemaLocation="http://www.topografix.com/GPX/1/1 http://www.topografix.com/GPX/1/1/gpx.xsd" version="1.1" creator="VisuGPX - https://www.visugpx.com">
  <metadata>
    <name>Trotting à la Ducambanderie</name>
    <desc><![CDATA[Une Ténébra en forme ! sur le retour je la laisse gérer les allures (enfin je la retiens quand même un peu !)
malgré encore de nombreux endroits assez gadoueux, nous parvenons à faire de longs trots !]]></desc>
  </metadata>
  <trk>
    <name><![CDATA[Trotting sur la Ducambanderie (27.08.2014)]]></name>
    <desc><![CDATA[Aujourd'hui, on ne traîne pas ! beaucoup de trot (aussi par sa seule volonté)]]></desc>
    <trkseg>
      <trkpt lat="48.70702" lon="1.75475">
        <ele>172.39999389648</ele>
        <time>2014-08-27T09:10:26.000Z</time>
      </trkpt>
      <trkpt lat="48.70702" lon="1.75476">
        <ele>172.39999389648</ele>
        <time>2014-08-27T09:10:27.000Z</time>
      </trkpt>
      <trkpt lat="48.70707" lon="1.7548">
        <ele>172.39999389648</ele>
        <time>2014-08-27T09:10:32.000Z</time>
      </trkpt>
      <trkpt lat="48.7071" lon="1.75483">
        <ele>172.39999389648</ele>
        <time>2014-08-27T09:10:36.000Z</time>
      </trkpt>
      <trkpt lat="48.70714" lon="1.75467">
        <ele>171.80000305176</ele>
        <time>2014-08-27T09:11:07.000Z</time>
      </trkpt>
      <trkpt lat="48.70718" lon="1.75455">
        <ele>171.39999389648</ele>
        <time>2014-08-27T09:11:12.000Z</time>
      </trkpt>
      <trkpt lat="48.70722" lon="1.75443">
        <ele>171</ele>
        <time>2014-08-27T09:11:19.000Z</time>
      </trkpt>
      <trkpt lat="48.70725" lon="1.75432">
        <ele>171.19999694824</ele>
        <time>2014-08-27T09:11:25.000Z</time>
      </trkpt>
      <trkpt lat="48.7073" lon="1.75424">
        <ele>171.19999694824</ele>
        <time>2014-08-27T09:11:30.000Z</time>
      </trkpt>
      <trkpt lat="48.70732" lon="1.75418">
        <ele>171.39999389648</ele>
        <time>2014-08-27T09:11:34.000Z</time>
      </trkpt>
      <trkpt lat="48.70739" lon="1.75402">
        <ele>171.60000610352</ele>
        <time>2014-08-27T09:11:43.000Z</time>
      </trkpt>
      <trkpt lat="48.70744" lon="1.75389">
        <ele>171.60000610352</ele>
        <time>2014-08-27T09:11:51.000Z</time>
      </trkpt>
      <trkpt lat="48.70747" lon="1.75379">
        <ele>171.80000305176</ele>
        <time>2014-08-27T09:11:57.000Z</time>
      </trkpt>
      <trkpt lat="48.70751" lon="1.75368">
        <ele>171.80000305176</ele>
        <time>2014-08-27T09:12:03.000Z</time>
      </trkpt>
      <trkpt lat="48.70755" lon="1.75355">
        <ele>171.80000305176</ele>
        <time>2014-08-27T09:12:10.000Z</time>
      </trkpt>
      <trkpt lat="48.70762" lon="1.7534">
        <ele>172</ele>
        <time>2014-08-27T09:12:19.000Z</time>
      </trkpt>
      <trkpt lat="48.70769" lon="1.75323">
        <ele>172</ele>
        <time>2014-08-27T09:12:28.000Z</time>
      </trkpt>
      <trkpt lat="48.70774" lon="1.75308">
        <ele>172.19999694824</ele>
        <time>2014-08-27T09:12:36.000Z</time>
      </trkpt>
      <trkpt lat="48.70781" lon="1.75292">
        <ele>172.60000610352</ele>
        <time>2014-08-27T09:12:45.000Z</time>
      </trkpt>
      <trkpt lat="48.70786" lon="1.75277">
        <ele>173</ele>
        <time>2014-08-27T09:12:54.000Z</time>
      </trkpt>
      <trkpt lat="48.70786" lon="1.75277">
        <ele>173</ele>
        <time>2014-08-27T09:12:56.000Z</time>
      </trkpt>
      <trkpt lat="48.70792" lon="1.7527">
        <ele>173.19999694824</ele>
        <time>2014-08-27T09:13:03.000Z</time>
      </trkpt>
      <trkpt lat="48.70794" lon="1.75261">
        <ele>173.19999694824</ele>
        <time>2014-08-27T09:13:08.000Z</time>
      </trkpt>
      <trkpt lat="48.70795" lon="1.75258">
        <ele>173.19999694824</ele>
        <time>2014-08-27T09:13:09.000Z</time>
      </trkpt>
      <trkpt lat="48.70796" lon="1.75256">
        <ele>173.39999389648</ele>
        <time>2014-08-27T09:13:11.000Z</time>
      </trkpt>
      <trkpt lat="48.70797" lon="1.75251">
        <ele>173.39999389648</ele>
        <time>2014-08-27T09:13:16.000Z</time>
      </trkpt>
      <trkpt lat="48.70797" lon="1.75251">
        <ele>173.39999389648</ele>
        <time>2014-08-27T09:13:17.000Z</time>
      </trkpt>
      <trkpt lat="48.708" lon="1.75244">
        <ele>173.39999389648</ele>
        <time>2014-08-27T09:13:34.000Z</time>
      </trkpt>
      <trkpt lat="48.70805" lon="1.75233">
        <ele>173.39999389648</ele>
        <time>2014-08-27T09:13:39.000Z</time>
      </trkpt>
      <trkpt lat="48.70811" lon="1.7522">
        <ele>173.39999389648</ele>
        <time>2014-08-27T09:13:47.000Z</time>
      </trkpt>
      <trkpt lat="48.70818" lon="1.75206">
        <ele>173.60000610352</ele>
        <time>2014-08-27T09:13:55.000Z</time>
      </trkpt>
      <trkpt lat="48.70823" lon="1.75193">
        <ele>173.39999389648</ele>
        <time>2014-08-27T09:14:02.000Z</time>
      </trkpt>
      <trkpt lat="48.70829" lon="1.75178">
        <ele>173.19999694824</ele>
        <time>2014-08-27T09:14:10.000Z</time>
      </trkpt>
      <trkpt lat="48.70833" lon="1.75167">
        <ele>173.19999694824</ele>
        <time>2014-08-27T09:14:16.000Z</time>
      </trkpt>
      <trkpt lat="48.70837" lon="1.75159">
        <ele>173</ele>
        <time>2014-08-27T09:14:21.000Z</time>
      </trkpt>
      <trkpt lat="48.70842" lon="1.75146">
        <ele>173.19999694824</ele>
        <time>2014-08-27T09:14:28.000Z</time>
      </trkpt>
      <trkpt lat="48.70844" lon="1.75142">
        <ele>173.19999694824</ele>
        <time>2014-08-27T09:14:30.000Z</time>
      </trkpt>
      <trkpt lat="48.7085" lon="1.75129">
        <ele>173.39999389648</ele>
        <time>2014-08-27T09:14:38.000Z</time>
      </trkpt>
      <trkpt lat="48.70853" lon="1.75123">
        <ele>173.39999389648</ele>
        <time>2014-08-27T09:14:42.000Z</time>
      </trkpt>
      <trkpt lat="48.70856" lon="1.75116">
        <ele>173.60000610352</ele>
        <time>2014-08-27T09:14:46.000Z</time>
      </trkpt>
      <trkpt lat="48.70862" lon="1.75104">
        <ele>173.80000305176</ele>
        <time>2014-08-27T09:14:55.000Z</time>
      </trkpt>
      <trkpt lat="48.70862" lon="1.75104">
        <ele>173.80000305176</ele>
        <time>2014-08-27T09:14:57.000Z</time>
      </trkpt>
      <trkpt lat="48.70866" lon="1.75095">
        <ele>174</ele>
        <time>2014-08-27T09:15:21.000Z</time>
      </trkpt>
      <trkpt lat="48.70871" lon="1.75085">
        <ele>174.19999694824</ele>
        <time>2014-08-27T09:15:26.000Z</time>
      </trkpt>
      <trkpt lat="48.70877" lon="1.75071">
        <ele>174</ele>
        <time>2014-08-27T09:15:34.000Z</time>
      </trkpt>
      <trkpt lat="48.70882" lon="1.75061">
        <ele>174.19999694824</ele>
        <time>2014-08-27T09:15:40.000Z</time>
      </trkpt>
      <trkpt lat="48.70886" lon="1.75052">
        <ele>174.19999694824</ele>
        <time>2014-08-27T09:15:46.000Z</time>
      </trkpt>
      <trkpt lat="48.70891" lon="1.75041">
        <ele>174.39999389648</ele>
        <time>2014-08-27T09:15:53.000Z</time>
      </trkpt>
      <trkpt lat="48.70895" lon="1.75032">
        <ele>174.39999389648</ele>
        <time>2014-08-27T09:15:59.000Z</time>
      </trkpt>
      <trkpt lat="48.70898" lon="1.75026">
        <ele>174.60000610352</ele>
        <time>2014-08-27T09:16:03.000Z</time>
      </trkpt>
      <trkpt lat="48.70902" lon="1.75017">
        <ele>174.60000610352</ele>
        <time>2014-08-27T09:16:09.000Z</time>
      </trkpt>
      <trkpt lat="48.70904" lon="1.75014">
        <ele>174.60000610352</ele>
        <time>2014-08-27T09:16:11.000Z</time>
      </trkpt>
      <trkpt lat="48.70906" lon="1.75009">
        <ele>174.80000305176</ele>
        <time>2014-08-27T09:16:14.000Z</time>
      </trkpt>
      <trkpt lat="48.7091" lon="1.74999">
        <ele>174.80000305176</ele>
        <time>2014-08-27T09:16:20.000Z</time>
      </trkpt>
      <trkpt lat="48.70915" lon="1.74986">
        <ele>175</ele>
        <time>2014-08-27T09:16:27.000Z</time>
      </trkpt>
      <trkpt lat="48.70921" lon="1.74974">
        <ele>174.80000305176</ele>
        <time>2014-08-27T09:16:34.000Z</time>
      </trkpt>
      <trkpt lat="48.70924" lon="1.74969">
        <ele>174.80000305176</ele>
        <time>2014-08-27T09:16:38.000Z</time>
      </trkpt>
      <trkpt lat="48.70927" lon="1.74964">
        <ele>174.80000305176</ele>
        <time>2014-08-27T09:16:42.000Z</time>
      </trkpt>
      <trkpt lat="48.70932" lon="1.74957">
        <ele>175</ele>
        <time>2014-08-27T09:16:47.000Z</time>
      </trkpt>
      <trkpt lat="48.7094" lon="1.7494">
        <ele>175.19999694824</ele>
        <time>2014-08-27T09:16:57.000Z</time>
      </trkpt>
      <trkpt lat="48.70945" lon="1.74933">
        <ele>175.19999694824</ele>
        <time>2014-08-27T09:17:03.000Z</time>
      </trkpt>
      <trkpt lat="48.70952" lon="1.74925">
        <ele>175.60000610352</ele>
        <time>2014-08-27T09:17:09.000Z</time>
      </trkpt>
      <trkpt lat="48.7096" lon="1.74915">
        <ele>176</ele>
        <time>2014-08-27T09:17:16.000Z</time>
      </trkpt>
      <trkpt lat="48.70967" lon="1.74905">
        <ele>176.39999389648</ele>
        <time>2014-08-27T09:17:23.000Z</time>
      </trkpt>
      <trkpt lat="48.70974" lon="1.74894">
        <ele>177.19999694824</ele>
        <time>2014-08-27T09:17:29.000Z</time>
      </trkpt>
      <trkpt lat="48.70977" lon="1.7489">
        <ele>177.39999389648</ele>
        <time>2014-08-27T09:17:32.000Z</time>
      </trkpt>
      <trkpt lat="48.70986" lon="1.74879">
        <ele>178.19999694824</ele>
        <time>2014-08-27T09:17:40.000Z</time>
      </trkpt>
      <trkpt lat="48.70993" lon="1.7487">
        <ele>178.60000610352</ele>
        <time>2014-08-27T09:17:47.000Z</time>
      </trkpt>
      <trkpt lat="48.71" lon="1.74859">
        <ele>178.80000305176</ele>
        <time>2014-08-27T09:17:55.000Z</time>
      </trkpt>
      <trkpt lat="48.71006" lon="1.7485">
        <ele>178.80000305176</ele>
        <time>2014-08-27T09:18:01.000Z</time>
      </trkpt>
      <trkpt lat="48.71009" lon="1.7484">
        <ele>178.80000305176</ele>
        <time>2014-08-27T09:18:07.000Z</time>
      </trkpt>
      <trkpt lat="48.71009" lon="1.74835">
        <ele>178.80000305176</ele>
        <time>2014-08-27T09:18:10.000Z</time>
      </trkpt>
      <trkpt lat="48.71009" lon="1.7483">
        <ele>178.80000305176</ele>
        <time>2014-08-27T09:18:14.000Z</time>
      </trkpt>
      <trkpt lat="48.71" lon="1.74819">
        <ele>178.80000305176</ele>
        <time>2014-08-27T09:18:23.000Z</time>
      </trkpt>
      <trkpt lat="48.70994" lon="1.74813">
        <ele>178.60000610352</ele>
        <time>2014-08-27T09:18:30.000Z</time>
      </trkpt>
      <trkpt lat="48.70994" lon="1.74813">
        <ele>178.60000610352</ele>
        <time>2014-08-27T09:18:31.000Z</time>
      </trkpt>
      <trkpt lat="48.70993" lon="1.74797">
        <ele>178.60000610352</ele>
        <time>2014-08-27T09:19:06.000Z</time>
      </trkpt>
      <trkpt lat="48.70987" lon="1.74794">
        <ele>178.60000610352</ele>
        <time>2014-08-27T09:19:09.000Z</time>
      </trkpt>
      <trkpt lat="48.70977" lon="1.74779">
        <ele>178.39999389648</ele>
        <time>2014-08-27T09:19:17.000Z</time>
      </trkpt>
      <trkpt lat="48.70966" lon="1.7477">
        <ele>178.39999389648</ele>
        <time>2014-08-27T09:19:25.000Z</time>
      </trkpt>
      <trkpt lat="48.70958" lon="1.74757">
        <ele>178.19999694824</ele>
        <time>2014-08-27T09:19:33.000Z</time>
      </trkpt>
      <trkpt lat="48.70955" lon="1.74751">
        <ele>178.19999694824</ele>
        <time>2014-08-27T09:19:36.000Z</time>
      </trkpt>
      <trkpt lat="48.70947" lon="1.74748">
        <ele>178.19999694824</ele>
        <time>2014-08-27T09:19:43.000Z</time>
      </trkpt>
      <trkpt lat="48.70946" lon="1.74747">
        <ele>178.19999694824</ele>
        <time>2014-08-27T09:19:44.000Z</time>
      </trkpt>
      <trkpt lat="48.70938" lon="1.74738">
        <ele>178</ele>
        <time>2014-08-27T09:19:52.000Z</time>
      </trkpt>
      <trkpt lat="48.70929" lon="1.74728">
        <ele>177.80000305176</ele>
        <time>2014-08-27T09:20:01.000Z</time>
      </trkpt>
      <trkpt lat="48.70919" lon="1.74713">
        <ele>177.39999389648</ele>
        <time>2014-08-27T09:20:11.000Z</time>
      </trkpt>
      <trkpt lat="48.70909" lon="1.74701">
        <ele>177.19999694824</ele>
        <time>2014-08-27T09:20:20.000Z</time>
      </trkpt>
      <trkpt lat="48.70901" lon="1.7469">
        <ele>176.80000305176</ele>
        <time>2014-08-27T09:20:28.000Z</time>
      </trkpt>
      <trkpt lat="48.70892" lon="1.74678">
        <ele>176.60000610352</ele>
        <time>2014-08-27T09:20:37.000Z</time>
      </trkpt>
      <trkpt lat="48.70882" lon="1.74665">
        <ele>176.19999694824</ele>
        <time>2014-08-27T09:20:46.000Z</time>
      </trkpt>
      <trkpt lat="48.70876" lon="1.74654">
        <ele>176</ele>
        <time>2014-08-27T09:20:53.000Z</time>
      </trkpt>
      <trkpt lat="48.70866" lon="1.74642">
        <ele>176</ele>
        <time>2014-08-27T09:21:02.000Z</time>
      </trkpt>
      <trkpt lat="48.70859" lon="1.74631">
        <ele>176</ele>
        <time>2014-08-27T09:21:09.000Z</time>
      </trkpt>
      <trkpt lat="48.70848" lon="1.74619">
        <ele>176</ele>
        <time>2014-08-27T09:21:19.000Z</time>
      </trkpt>
      <trkpt lat="48.70837" lon="1.74605">
        <ele>176.19999694824</ele>
        <time>2014-08-27T09:21:30.000Z</time>
      </trkpt>
      <trkpt lat="48.7083" lon="1.74598">
        <ele>176.19999694824</ele>
        <time>2014-08-27T09:21:35.000Z</time>
      </trkpt>
      <trkpt lat="48.70824" lon="1.74587">
        <ele>176.39999389648</ele>
        <time>2014-08-27T09:21:42.000Z</time>
      </trkpt>
      <trkpt lat="48.70817" lon="1.74577">
        <ele>176.39999389648</ele>
        <time>2014-08-27T09:21:49.000Z</time>
      </trkpt>
      <trkpt lat="48.70807" lon="1.74567">
        <ele>176.60000610352</ele>
        <time>2014-08-27T09:21:58.000Z</time>
      </trkpt>
      <trkpt lat="48.708" lon="1.74557">
        <ele>176.60000610352</ele>
        <time>2014-08-27T09:22:05.000Z</time>
      </trkpt>
      <trkpt lat="48.70793" lon="1.74549">
        <ele>176.80000305176</ele>
        <time>2014-08-27T09:22:12.000Z</time>
      </trkpt>
      <trkpt lat="48.70786" lon="1.74541">
        <ele>176.80000305176</ele>
        <time>2014-08-27T09:22:18.000Z</time>
      </trkpt>
      <trkpt lat="48.70775" lon="1.74528">
        <ele>177</ele>
        <time>2014-08-27T09:22:28.000Z</time>
      </trkpt>
      <trkpt lat="48.70764" lon="1.74515">
        <ele>177.19999694824</ele>
        <time>2014-08-27T09:22:38.000Z</time>
      </trkpt>
      <trkpt lat="48.70759" lon="1.74507">
        <ele>177.39999389648</ele>
        <time>2014-08-27T09:22:44.000Z</time>
      </trkpt>
      <trkpt lat="48.70749" lon="1.74496">
        <ele>177.80000305176</ele>
        <time>2014-08-27T09:22:53.000Z</time>
      </trkpt>
      <trkpt lat="48.70738" lon="1.74482">
        <ele>178.19999694824</ele>
        <time>2014-08-27T09:23:03.000Z</time>
      </trkpt>
      <trkpt lat="48.70729" lon="1.7447">
        <ele>178.60000610352</ele>
        <time>2014-08-27T09:23:12.000Z</time>
      </trkpt>
      <trkpt lat="48.7073" lon="1.7446">
        <ele>178.80000305176</ele>
        <time>2014-08-27T09:23:17.000Z</time>
      </trkpt>
      <trkpt lat="48.7073" lon="1.74459">
        <ele>178.80000305176</ele>
        <time>2014-08-27T09:23:19.000Z</time>
      </trkpt>
      <trkpt lat="48.70733" lon="1.74454">
        <ele>178.80000305176</ele>
        <time>2014-08-27T09:23:48.000Z</time>
      </trkpt>
      <trkpt lat="48.70736" lon="1.7445">
        <ele>178.60000610352</ele>
        <time>2014-08-27T09:23:51.000Z</time>
      </trkpt>
      <trkpt lat="48.70742" lon="1.74446">
        <ele>178.60000610352</ele>
        <time>2014-08-27T09:23:55.000Z</time>
      </trkpt>
      <trkpt lat="48.70747" lon="1.7444">
        <ele>178.39999389648</ele>
        <time>2014-08-27T09:24:00.000Z</time>
      </trkpt>
      <trkpt lat="48.70756" lon="1.74434">
        <ele>178.19999694824</ele>
        <time>2014-08-27T09:24:07.000Z</time>
      </trkpt>
      <trkpt lat="48.70763" lon="1.74427">
        <ele>178</ele>
        <time>2014-08-27T09:24:14.000Z</time>
      </trkpt>
      <trkpt lat="48.70765" lon="1.74425">
        <ele>178</ele>
        <time>2014-08-27T09:24:16.000Z</time>
      </trkpt>
      <trkpt lat="48.70775" lon="1.74419">
        <ele>177.80000305176</ele>
        <time>2014-08-27T09:24:24.000Z</time>
      </trkpt>
      <trkpt lat="48.70784" lon="1.74413">
        <ele>177.60000610352</ele>
        <time>2014-08-27T09:24:31.000Z</time>
      </trkpt>
      <trkpt lat="48.70793" lon="1.74408">
        <ele>177.39999389648</ele>
        <time>2014-08-27T09:24:38.000Z</time>
      </trkpt>
      <trkpt lat="48.708" lon="1.74404">
        <ele>177.19999694824</ele>
        <time>2014-08-27T09:24:44.000Z</time>
      </trkpt>
      <trkpt lat="48.70806" lon="1.744">
        <ele>177.19999694824</ele>
        <time>2014-08-27T09:24:50.000Z</time>
      </trkpt>
      <trkpt lat="48.70817" lon="1.74395">
        <ele>177</ele>
        <time>2014-08-27T09:24:57.000Z</time>
      </trkpt>
      <trkpt lat="48.70823" lon="1.74388">
        <ele>177</ele>
        <time>2014-08-27T09:25:03.000Z</time>
      </trkpt>
      <trkpt lat="48.70827" lon="1.74385">
        <ele>176.80000305176</ele>
        <time>2014-08-27T09:25:06.000Z</time>
      </trkpt>
      <trkpt lat="48.7083" lon="1.7438">
        <ele>176.80000305176</ele>
        <time>2014-08-27T09:25:10.000Z</time>
      </trkpt>
      <trkpt lat="48.70831" lon="1.74379">
        <ele>176.80000305176</ele>
        <time>2014-08-27T09:25:13.000Z</time>
      </trkpt>
      <trkpt lat="48.70832" lon="1.74378">
        <ele>176.80000305176</ele>
        <time>2014-08-27T09:25:16.000Z</time>
      </trkpt>
      <trkpt lat="48.70835" lon="1.74375">
        <ele>176.80000305176</ele>
        <time>2014-08-27T09:25:17.000Z</time>
      </trkpt>
      <trkpt lat="48.70842" lon="1.74366">
        <ele>176.80000305176</ele>
        <time>2014-08-27T09:25:24.000Z</time>
      </trkpt>
      <trkpt lat="48.70848" lon="1.74355">
        <ele>176.80000305176</ele>
        <time>2014-08-27T09:25:31.000Z</time>
      </trkpt>
      <trkpt lat="48.70849" lon="1.74354">
        <ele>176.80000305176</ele>
        <time>2014-08-27T09:25:32.000Z</time>
      </trkpt>
      <trkpt lat="48.70853" lon="1.74349">
        <ele>176.60000610352</ele>
        <time>2014-08-27T09:25:39.000Z</time>
      </trkpt>
      <trkpt lat="48.70853" lon="1.74349">
        <ele>176.60000610352</ele>
        <time>2014-08-27T09:25:40.000Z</time>
      </trkpt>
      <trkpt lat="48.70859" lon="1.74338">
        <ele>176.80000305176</ele>
        <time>2014-08-27T09:26:11.000Z</time>
      </trkpt>
      <trkpt lat="48.70863" lon="1.7433">
        <ele>176.80000305176</ele>
        <time>2014-08-27T09:26:16.000Z</time>
      </trkpt>
      <trkpt lat="48.70869" lon="1.74321">
        <ele>176.80000305176</ele>
        <time>2014-08-27T09:26:22.000Z</time>
      </trkpt>
      <trkpt lat="48.70873" lon="1.74309">
        <ele>177.19999694824</ele>
        <time>2014-08-27T09:26:30.000Z</time>
      </trkpt>
      <trkpt lat="48.70877" lon="1.74302">
        <ele>177.39999389648</ele>
        <time>2014-08-27T09:26:35.000Z</time>
      </trkpt>
      <trkpt lat="48.70879" lon="1.74297">
        <ele>177.60000610352</ele>
        <time>2014-08-27T09:26:38.000Z</time>
      </trkpt>
      <trkpt lat="48.70882" lon="1.7429">
        <ele>177.80000305176</ele>
        <time>2014-08-27T09:26:42.000Z</time>
      </trkpt>
      <trkpt lat="48.70888" lon="1.74282">
        <ele>178</ele>
        <time>2014-08-27T09:26:48.000Z</time>
      </trkpt>
      <trkpt lat="48.70893" lon="1.74273">
        <ele>178.39999389648</ele>
        <time>2014-08-27T09:26:54.000Z</time>
      </trkpt>
      <trkpt lat="48.70896" lon="1.74268">
        <ele>178.60000610352</ele>
        <time>2014-08-27T09:26:59.000Z</time>
      </trkpt>
      <trkpt lat="48.70897" lon="1.74266">
        <ele>178.80000305176</ele>
        <time>2014-08-27T09:27:00.000Z</time>
      </trkpt>
      <trkpt lat="48.709" lon="1.74263">
        <ele>179</ele>
        <time>2014-08-27T09:27:03.000Z</time>
      </trkpt>
      <trkpt lat="48.70908" lon="1.74253">
        <ele>179.60000610352</ele>
        <time>2014-08-27T09:27:10.000Z</time>
      </trkpt>
      <trkpt lat="48.70908" lon="1.74245">
        <ele>180.19999694824</ele>
        <time>2014-08-27T09:27:15.000Z</time>
      </trkpt>
      <trkpt lat="48.70904" lon="1.74239">
        <ele>180.39999389648</ele>
        <time>2014-08-27T09:27:21.000Z</time>
      </trkpt>
      <trkpt lat="48.70904" lon="1.74238">
        <ele>180.60000610352</ele>
        <time>2014-08-27T09:27:24.000Z</time>
      </trkpt>
      <trkpt lat="48.70901" lon="1.74234">
        <ele>180.60000610352</ele>
        <time>2014-08-27T09:27:35.000Z</time>
      </trkpt>
      <trkpt lat="48.70904" lon="1.74231">
        <ele>180.80000305176</ele>
        <time>2014-08-27T09:27:39.000Z</time>
      </trkpt>
      <trkpt lat="48.70904" lon="1.74228">
        <ele>181</ele>
        <time>2014-08-27T09:27:48.000Z</time>
      </trkpt>
      <trkpt lat="48.70909" lon="1.7423">
        <ele>181</ele>
        <time>2014-08-27T09:28:12.000Z</time>
      </trkpt>
      <trkpt lat="48.70908" lon="1.74233">
        <ele>180.80000305176</ele>
        <time>2014-08-27T09:28:14.000Z</time>
      </trkpt>
      <trkpt lat="48.7091" lon="1.74238">
        <ele>180.60000610352</ele>
        <time>2014-08-27T09:28:21.000Z</time>
      </trkpt>
      <trkpt lat="48.70909" lon="1.74236">
        <ele>180.80000305176</ele>
        <time>2014-08-27T09:28:30.000Z</time>
      </trkpt>
      <trkpt lat="48.70912" lon="1.74235">
        <ele>180.80000305176</ele>
        <time>2014-08-27T09:28:35.000Z</time>
      </trkpt>
      <trkpt lat="48.70911" lon="1.74235">
        <ele>180.80000305176</ele>
        <time>2014-08-27T09:28:41.000Z</time>
      </trkpt>
      <trkpt lat="48.70911" lon="1.74235">
        <ele>180.80000305176</ele>
        <time>2014-08-27T09:28:43.000Z</time>
      </trkpt>
      <trkpt lat="48.70908" lon="1.74235">
        <ele>180.80000305176</ele>
        <time>2014-08-27T09:29:02.000Z</time>
      </trkpt>
      <trkpt lat="48.70906" lon="1.74233">
        <ele>180.80000305176</ele>
        <time>2014-08-27T09:29:09.000Z</time>
      </trkpt>
      <trkpt lat="48.70912" lon="1.74229">
        <ele>181</ele>
        <time>2014-08-27T09:29:37.000Z</time>
      </trkpt>
      <trkpt lat="48.70913" lon="1.74212">
        <ele>181.60000610352</ele>
        <time>2014-08-27T09:29:44.000Z</time>
      </trkpt>
      <trkpt lat="48.70915" lon="1.74201">
        <ele>182</ele>
        <time>2014-08-27T09:29:50.000Z</time>
      </trkpt>
      <trkpt lat="48.70917" lon="1.74188">
        <ele>182.60000610352</ele>
        <time>2014-08-27T09:29:58.000Z</time>
      </trkpt>
      <trkpt lat="48.70919" lon="1.74179">
        <ele>182.80000305176</ele>
        <time>2014-08-27T09:30:04.000Z</time>
      </trkpt>
      <trkpt lat="48.70921" lon="1.74171">
        <ele>183.19999694824</ele>
        <time>2014-08-27T09:30:09.000Z</time>
      </trkpt>
      <trkpt lat="48.70924" lon="1.74159">
        <ele>183.60000610352</ele>
        <time>2014-08-27T09:30:15.000Z</time>
      </trkpt>
      <trkpt lat="48.70926" lon="1.74148">
        <ele>184</ele>
        <time>2014-08-27T09:30:21.000Z</time>
      </trkpt>
      <trkpt lat="48.70928" lon="1.74137">
        <ele>183.80000305176</ele>
        <time>2014-08-27T09:30:28.000Z</time>
      </trkpt>
      <trkpt lat="48.70931" lon="1.74129">
        <ele>183.80000305176</ele>
        <time>2014-08-27T09:30:34.000Z</time>
      </trkpt>
      <trkpt lat="48.70932" lon="1.74122">
        <ele>183.60000610352</ele>
        <time>2014-08-27T09:30:38.000Z</time>
      </trkpt>
      <trkpt lat="48.70933" lon="1.74118">
        <ele>183.60000610352</ele>
        <time>2014-08-27T09:30:41.000Z</time>
      </trkpt>
      <trkpt lat="48.70934" lon="1.74117">
        <ele>183.60000610352</ele>
        <time>2014-08-27T09:30:45.000Z</time>
      </trkpt>
      <trkpt lat="48.70939" lon="1.74108">
        <ele>183.39999389648</ele>
        <time>2014-08-27T09:30:55.000Z</time>
      </trkpt>
      <trkpt lat="48.70939" lon="1.74095">
        <ele>183.19999694824</ele>
        <time>2014-08-27T09:30:59.000Z</time>
      </trkpt>
      <trkpt lat="48.70943" lon="1.74081">
        <ele>182.80000305176</ele>
        <time>2014-08-27T09:31:07.000Z</time>
      </trkpt>
      <trkpt lat="48.70942" lon="1.74079">
        <ele>182.80000305176</ele>
        <time>2014-08-27T09:31:12.000Z</time>
      </trkpt>
      <trkpt lat="48.7095" lon="1.74053">
        <ele>183</ele>
        <time>2014-08-27T09:31:48.000Z</time>
      </trkpt>
      <trkpt lat="48.7095" lon="1.74046">
        <ele>183</ele>
        <time>2014-08-27T09:31:52.000Z</time>
      </trkpt>
      <trkpt lat="48.7095" lon="1.74042">
        <ele>183</ele>
        <time>2014-08-27T09:31:54.000Z</time>
      </trkpt>
      <trkpt lat="48.70954" lon="1.74026">
        <ele>183.19999694824</ele>
        <time>2014-08-27T09:32:01.000Z</time>
      </trkpt>
      <trkpt lat="48.70958" lon="1.74011">
        <ele>183.19999694824</ele>
        <time>2014-08-27T09:32:07.000Z</time>
      </trkpt>
      <trkpt lat="48.70962" lon="1.73999">
        <ele>183.19999694824</ele>
        <time>2014-08-27T09:32:13.000Z</time>
      </trkpt>
      <trkpt lat="48.70965" lon="1.73992">
        <ele>183.19999694824</ele>
        <time>2014-08-27T09:32:17.000Z</time>
      </trkpt>
      <trkpt lat="48.70966" lon="1.73983">
        <ele>183.19999694824</ele>
        <time>2014-08-27T09:32:24.000Z</time>
      </trkpt>
      <trkpt lat="48.70966" lon="1.73979">
        <ele>183.19999694824</ele>
        <time>2014-08-27T09:32:26.000Z</time>
      </trkpt>
      <trkpt lat="48.70967" lon="1.73971">
        <ele>183</ele>
        <time>2014-08-27T09:32:30.000Z</time>
      </trkpt>
      <trkpt lat="48.70969" lon="1.73963">
        <ele>183</ele>
        <time>2014-08-27T09:32:34.000Z</time>
      </trkpt>
      <trkpt lat="48.70972" lon="1.73945">
        <ele>182.60000610352</ele>
        <time>2014-08-27T09:32:43.000Z</time>
      </trkpt>
      <trkpt lat="48.70973" lon="1.73938">
        <ele>182.60000610352</ele>
        <time>2014-08-27T09:32:47.000Z</time>
      </trkpt>
      <trkpt lat="48.70977" lon="1.73923">
        <ele>183.19999694824</ele>
        <time>2014-08-27T09:32:55.000Z</time>
      </trkpt>
      <trkpt lat="48.7098" lon="1.7391">
        <ele>183.80000305176</ele>
        <time>2014-08-27T09:33:02.000Z</time>
      </trkpt>
      <trkpt lat="48.70985" lon="1.73901">
        <ele>184</ele>
        <time>2014-08-27T09:33:06.000Z</time>
      </trkpt>
      <trkpt lat="48.70986" lon="1.73898">
        <ele>184</ele>
        <time>2014-08-27T09:33:09.000Z</time>
      </trkpt>
      <trkpt lat="48.70988" lon="1.73887">
        <ele>183.60000610352</ele>
        <time>2014-08-27T09:33:15.000Z</time>
      </trkpt>
      <trkpt lat="48.70989" lon="1.73883">
        <ele>183.60000610352</ele>
        <time>2014-08-27T09:33:18.000Z</time>
      </trkpt>
      <trkpt lat="48.70992" lon="1.73879">
        <ele>183.39999389648</ele>
        <time>2014-08-27T09:33:23.000Z</time>
      </trkpt>
      <trkpt lat="48.70994" lon="1.73869">
        <ele>183.19999694824</ele>
        <time>2014-08-27T09:33:29.000Z</time>
      </trkpt>
      <trkpt lat="48.70995" lon="1.73863">
        <ele>183</ele>
        <time>2014-08-27T09:33:32.000Z</time>
      </trkpt>
      <trkpt lat="48.70996" lon="1.73848">
        <ele>182.80000305176</ele>
        <time>2014-08-27T09:33:38.000Z</time>
      </trkpt>
      <trkpt lat="48.70999" lon="1.73832">
        <ele>182.60000610352</ele>
        <time>2014-08-27T09:33:46.000Z</time>
      </trkpt>
      <trkpt lat="48.71001" lon="1.7382">
        <ele>182.39999389648</ele>
        <time>2014-08-27T09:33:53.000Z</time>
      </trkpt>
      <trkpt lat="48.71002" lon="1.7381">
        <ele>182</ele>
        <time>2014-08-27T09:33:58.000Z</time>
      </trkpt>
      <trkpt lat="48.71006" lon="1.738">
        <ele>181.80000305176</ele>
        <time>2014-08-27T09:34:05.000Z</time>
      </trkpt>
      <trkpt lat="48.71015" lon="1.73791">
        <ele>182</ele>
        <time>2014-08-27T09:34:13.000Z</time>
      </trkpt>
      <trkpt lat="48.71018" lon="1.73789">
        <ele>182.19999694824</ele>
        <time>2014-08-27T09:34:16.000Z</time>
      </trkpt>
      <trkpt lat="48.71026" lon="1.73784">
        <ele>182</ele>
        <time>2014-08-27T09:34:23.000Z</time>
      </trkpt>
      <trkpt lat="48.7103" lon="1.73781">
        <ele>182</ele>
        <time>2014-08-27T09:34:27.000Z</time>
      </trkpt>
      <trkpt lat="48.71034" lon="1.73778">
        <ele>181.80000305176</ele>
        <time>2014-08-27T09:34:30.000Z</time>
      </trkpt>
      <trkpt lat="48.71039" lon="1.73767">
        <ele>181.39999389648</ele>
        <time>2014-08-27T09:34:38.000Z</time>
      </trkpt>
      <trkpt lat="48.71043" lon="1.7376">
        <ele>181.19999694824</ele>
        <time>2014-08-27T09:34:44.000Z</time>
      </trkpt>
      <trkpt lat="48.71045" lon="1.73756">
        <ele>181.39999389648</ele>
        <time>2014-08-27T09:34:47.000Z</time>
      </trkpt>
      <trkpt lat="48.71053" lon="1.73752">
        <ele>181.60000610352</ele>
        <time>2014-08-27T09:34:53.000Z</time>
      </trkpt>
      <trkpt lat="48.71056" lon="1.73752">
        <ele>181.60000610352</ele>
        <time>2014-08-27T09:34:55.000Z</time>
      </trkpt>
      <trkpt lat="48.71058" lon="1.73751">
        <ele>181.80000305176</ele>
        <time>2014-08-27T09:34:57.000Z</time>
      </trkpt>
      <trkpt lat="48.71063" lon="1.73744">
        <ele>182</ele>
        <time>2014-08-27T09:35:03.000Z</time>
      </trkpt>
      <trkpt lat="48.71068" lon="1.73739">
        <ele>182.19999694824</ele>
        <time>2014-08-27T09:35:07.000Z</time>
      </trkpt>
      <trkpt lat="48.7107" lon="1.73738">
        <ele>182.19999694824</ele>
        <time>2014-08-27T09:35:09.000Z</time>
      </trkpt>
      <trkpt lat="48.71076" lon="1.73732">
        <ele>182.19999694824</ele>
        <time>2014-08-27T09:35:14.000Z</time>
      </trkpt>
      <trkpt lat="48.7108" lon="1.73726">
        <ele>182</ele>
        <time>2014-08-27T09:35:18.000Z</time>
      </trkpt>
      <trkpt lat="48.71082" lon="1.73723">
        <ele>182</ele>
        <time>2014-08-27T09:35:20.000Z</time>
      </trkpt>
      <trkpt lat="48.71086" lon="1.73716">
        <ele>181.80000305176</ele>
        <time>2014-08-27T09:35:26.000Z</time>
      </trkpt>
      <trkpt lat="48.71087" lon="1.73714">
        <ele>181.60000610352</ele>
        <time>2014-08-27T09:35:27.000Z</time>
      </trkpt>
      <trkpt lat="48.71093" lon="1.73709">
        <ele>181.60000610352</ele>
        <time>2014-08-27T09:35:34.000Z</time>
      </trkpt>
      <trkpt lat="48.711" lon="1.73702">
        <ele>181.19999694824</ele>
        <time>2014-08-27T09:35:41.000Z</time>
      </trkpt>
      <trkpt lat="48.71107" lon="1.73693">
        <ele>181</ele>
        <time>2014-08-27T09:35:49.000Z</time>
      </trkpt>
      <trkpt lat="48.71115" lon="1.73688">
        <ele>180.80000305176</ele>
        <time>2014-08-27T09:35:55.000Z</time>
      </trkpt>
      <trkpt lat="48.71122" lon="1.73683">
        <ele>180.60000610352</ele>
        <time>2014-08-27T09:36:00.000Z</time>
      </trkpt>
      <trkpt lat="48.71122" lon="1.73683">
        <ele>180.60000610352</ele>
        <time>2014-08-27T09:36:01.000Z</time>
      </trkpt>
      <trkpt lat="48.71128" lon="1.73679">
        <ele>180.39999389648</ele>
        <time>2014-08-27T09:36:06.000Z</time>
      </trkpt>
      <trkpt lat="48.71136" lon="1.73672">
        <ele>180.80000305176</ele>
        <time>2014-08-27T09:36:13.000Z</time>
      </trkpt>
      <trkpt lat="48.71143" lon="1.73664">
        <ele>181</ele>
        <time>2014-08-27T09:36:20.000Z</time>
      </trkpt>
      <trkpt lat="48.71149" lon="1.73657">
        <ele>181.19999694824</ele>
        <time>2014-08-27T09:36:26.000Z</time>
      </trkpt>
      <trkpt lat="48.7115" lon="1.73656">
        <ele>181.19999694824</ele>
        <time>2014-08-27T09:36:27.000Z</time>
      </trkpt>
      <trkpt lat="48.71154" lon="1.73651">
        <ele>181.39999389648</ele>
        <time>2014-08-27T09:36:31.000Z</time>
      </trkpt>
      <trkpt lat="48.71163" lon="1.73641">
        <ele>181.60000610352</ele>
        <time>2014-08-27T09:36:40.000Z</time>
      </trkpt>
      <trkpt lat="48.71165" lon="1.73639">
        <ele>181.80000305176</ele>
        <time>2014-08-27T09:36:42.000Z</time>
      </trkpt>
      <trkpt lat="48.71171" lon="1.73634">
        <ele>182</ele>
        <time>2014-08-27T09:36:47.000Z</time>
      </trkpt>
      <trkpt lat="48.71177" lon="1.73626">
        <ele>181.80000305176</ele>
        <time>2014-08-27T09:36:53.000Z</time>
      </trkpt>
      <trkpt lat="48.71185" lon="1.7362">
        <ele>181.80000305176</ele>
        <time>2014-08-27T09:37:00.000Z</time>
      </trkpt>
      <trkpt lat="48.71193" lon="1.73611">
        <ele>181.39999389648</ele>
        <time>2014-08-27T09:37:08.000Z</time>
      </trkpt>
      <trkpt lat="48.71193" lon="1.7361">
        <ele>181.39999389648</ele>
        <time>2014-08-27T09:37:10.000Z</time>
      </trkpt>
      <trkpt lat="48.71198" lon="1.73598">
        <ele>181</ele>
        <time>2014-08-27T09:37:30.000Z</time>
      </trkpt>
      <trkpt lat="48.71202" lon="1.73599">
        <ele>181</ele>
        <time>2014-08-27T09:37:32.000Z</time>
      </trkpt>
      <trkpt lat="48.71213" lon="1.73607">
        <ele>181.39999389648</ele>
        <time>2014-08-27T09:37:40.000Z</time>
      </trkpt>
      <trkpt lat="48.71215" lon="1.73608">
        <ele>181.39999389648</ele>
        <time>2014-08-27T09:37:41.000Z</time>
      </trkpt>
      <trkpt lat="48.7122" lon="1.73608">
        <ele>181.39999389648</ele>
        <time>2014-08-27T09:37:44.000Z</time>
      </trkpt>
      <trkpt lat="48.71235" lon="1.73614">
        <ele>181.80000305176</ele>
        <time>2014-08-27T09:37:50.000Z</time>
      </trkpt>
      <trkpt lat="48.71255" lon="1.73619">
        <ele>183</ele>
        <time>2014-08-27T09:37:56.000Z</time>
      </trkpt>
      <trkpt lat="48.71266" lon="1.73615">
        <ele>183.60000610352</ele>
        <time>2014-08-27T09:38:00.000Z</time>
      </trkpt>
      <trkpt lat="48.71276" lon="1.73608">
        <ele>183</ele>
        <time>2014-08-27T09:38:04.000Z</time>
      </trkpt>
      <trkpt lat="48.71289" lon="1.73593">
        <ele>181.19999694824</ele>
        <time>2014-08-27T09:38:09.000Z</time>
      </trkpt>
      <trkpt lat="48.71299" lon="1.73576">
        <ele>180.19999694824</ele>
        <time>2014-08-27T09:38:14.000Z</time>
      </trkpt>
      <trkpt lat="48.71302" lon="1.73564">
        <ele>179.80000305176</ele>
        <time>2014-08-27T09:38:18.000Z</time>
      </trkpt>
      <trkpt lat="48.71302" lon="1.73562">
        <ele>179.80000305176</ele>
        <time>2014-08-27T09:38:21.000Z</time>
      </trkpt>
      <trkpt lat="48.71304" lon="1.73558">
        <ele>179.39999389648</ele>
        <time>2014-08-27T09:38:24.000Z</time>
      </trkpt>
      <trkpt lat="48.71305" lon="1.7355">
        <ele>178.80000305176</ele>
        <time>2014-08-27T09:38:27.000Z</time>
      </trkpt>
      <trkpt lat="48.71307" lon="1.73547">
        <ele>178.39999389648</ele>
        <time>2014-08-27T09:38:29.000Z</time>
      </trkpt>
      <trkpt lat="48.7131" lon="1.73541">
        <ele>177.60000610352</ele>
        <time>2014-08-27T09:38:33.000Z</time>
      </trkpt>
      <trkpt lat="48.71316" lon="1.73534">
        <ele>176.60000610352</ele>
        <time>2014-08-27T09:38:38.000Z</time>
      </trkpt>
      <trkpt lat="48.71321" lon="1.73525">
        <ele>176.80000305176</ele>
        <time>2014-08-27T09:38:44.000Z</time>
      </trkpt>
      <trkpt lat="48.71332" lon="1.73516">
        <ele>176.60000610352</ele>
        <time>2014-08-27T09:38:51.000Z</time>
      </trkpt>
      <trkpt lat="48.71345" lon="1.73519">
        <ele>175.60000610352</ele>
        <time>2014-08-27T09:38:57.000Z</time>
      </trkpt>
      <trkpt lat="48.71351" lon="1.73528">
        <ele>174.80000305176</ele>
        <time>2014-08-27T09:39:01.000Z</time>
      </trkpt>
      <trkpt lat="48.71363" lon="1.73537">
        <ele>173</ele>
        <time>2014-08-27T09:39:08.000Z</time>
      </trkpt>
      <trkpt lat="48.71366" lon="1.73544">
        <ele>172.19999694824</ele>
        <time>2014-08-27T09:39:11.000Z</time>
      </trkpt>
      <trkpt lat="48.71372" lon="1.73549">
        <ele>171.19999694824</ele>
        <time>2014-08-27T09:39:15.000Z</time>
      </trkpt>
      <trkpt lat="48.71378" lon="1.73556">
        <ele>170</ele>
        <time>2014-08-27T09:39:22.000Z</time>
      </trkpt>
      <trkpt lat="48.71379" lon="1.73557">
        <ele>169.60000610352</ele>
        <time>2014-08-27T09:39:23.000Z</time>
      </trkpt>
      <trkpt lat="48.71384" lon="1.73562">
        <ele>168.80000305176</ele>
        <time>2014-08-27T09:39:27.000Z</time>
      </trkpt>
      <trkpt lat="48.71385" lon="1.73564">
        <ele>168.60000610352</ele>
        <time>2014-08-27T09:39:29.000Z</time>
      </trkpt>
      <trkpt lat="48.71391" lon="1.73573">
        <ele>167.39999389648</ele>
        <time>2014-08-27T09:39:34.000Z</time>
      </trkpt>
      <trkpt lat="48.71396" lon="1.73578">
        <ele>166.60000610352</ele>
        <time>2014-08-27T09:39:39.000Z</time>
      </trkpt>
      <trkpt lat="48.71403" lon="1.73579">
        <ele>165.60000610352</ele>
        <time>2014-08-27T09:39:45.000Z</time>
      </trkpt>
      <trkpt lat="48.71409" lon="1.73576">
        <ele>165.19999694824</ele>
        <time>2014-08-27T09:39:50.000Z</time>
      </trkpt>
      <trkpt lat="48.71409" lon="1.73574">
        <ele>165.19999694824</ele>
        <time>2014-08-27T09:39:51.000Z</time>
      </trkpt>
      <trkpt lat="48.71412" lon="1.73571">
        <ele>165</ele>
        <time>2014-08-27T09:39:54.000Z</time>
      </trkpt>
      <trkpt lat="48.71419" lon="1.73567">
        <ele>164.39999389648</ele>
        <time>2014-08-27T09:40:00.000Z</time>
      </trkpt>
      <trkpt lat="48.71422" lon="1.73566">
        <ele>164</ele>
        <time>2014-08-27T09:40:03.000Z</time>
      </trkpt>
      <trkpt lat="48.71428" lon="1.73561">
        <ele>163.60000610352</ele>
        <time>2014-08-27T09:40:09.000Z</time>
      </trkpt>
      <trkpt lat="48.71435" lon="1.73557">
        <ele>163</ele>
        <time>2014-08-27T09:40:15.000Z</time>
      </trkpt>
      <trkpt lat="48.71441" lon="1.73555">
        <ele>162.39999389648</ele>
        <time>2014-08-27T09:40:20.000Z</time>
      </trkpt>
      <trkpt lat="48.71444" lon="1.73552">
        <ele>162.19999694824</ele>
        <time>2014-08-27T09:40:24.000Z</time>
      </trkpt>
      <trkpt lat="48.71449" lon="1.73549">
        <ele>162</ele>
        <time>2014-08-27T09:40:28.000Z</time>
      </trkpt>
      <trkpt lat="48.71458" lon="1.73548">
        <ele>161.39999389648</ele>
        <time>2014-08-27T09:40:35.000Z</time>
      </trkpt>
      <trkpt lat="48.7146" lon="1.73549">
        <ele>161.19999694824</ele>
        <time>2014-08-27T09:40:37.000Z</time>
      </trkpt>
      <trkpt lat="48.71468" lon="1.73555">
        <ele>160</ele>
        <time>2014-08-27T09:40:44.000Z</time>
      </trkpt>
      <trkpt lat="48.71477" lon="1.73553">
        <ele>159.39999389648</ele>
        <time>2014-08-27T09:40:49.000Z</time>
      </trkpt>
      <trkpt lat="48.71478" lon="1.73553">
        <ele>159.39999389648</ele>
        <time>2014-08-27T09:40:50.000Z</time>
      </trkpt>
      <trkpt lat="48.71485" lon="1.73549">
        <ele>159</ele>
        <time>2014-08-27T09:40:56.000Z</time>
      </trkpt>
      <trkpt lat="48.71494" lon="1.73547">
        <ele>158.39999389648</ele>
        <time>2014-08-27T09:41:03.000Z</time>
      </trkpt>
      <trkpt lat="48.71496" lon="1.73546">
        <ele>158.19999694824</ele>
        <time>2014-08-27T09:41:04.000Z</time>
      </trkpt>
      <trkpt lat="48.71504" lon="1.73542">
        <ele>156.80000305176</ele>
        <time>2014-08-27T09:41:10.000Z</time>
      </trkpt>
      <trkpt lat="48.71507" lon="1.73542">
        <ele>156.19999694824</ele>
        <time>2014-08-27T09:41:12.000Z</time>
      </trkpt>
      <trkpt lat="48.71514" lon="1.73542">
        <ele>155</ele>
        <time>2014-08-27T09:41:17.000Z</time>
      </trkpt>
      <trkpt lat="48.71524" lon="1.7354">
        <ele>153.39999389648</ele>
        <time>2014-08-27T09:41:24.000Z</time>
      </trkpt>
      <trkpt lat="48.71531" lon="1.73538">
        <ele>152.60000610352</ele>
        <time>2014-08-27T09:41:29.000Z</time>
      </trkpt>
      <trkpt lat="48.71539" lon="1.73536">
        <ele>151.60000610352</ele>
        <time>2014-08-27T09:41:36.000Z</time>
      </trkpt>
      <trkpt lat="48.71548" lon="1.73535">
        <ele>150.39999389648</ele>
        <time>2014-08-27T09:41:43.000Z</time>
      </trkpt>
      <trkpt lat="48.71553" lon="1.73535">
        <ele>149.80000305176</ele>
        <time>2014-08-27T09:41:47.000Z</time>
      </trkpt>
      <trkpt lat="48.7156" lon="1.73535">
        <ele>149</ele>
        <time>2014-08-27T09:41:53.000Z</time>
      </trkpt>
      <trkpt lat="48.71563" lon="1.73534">
        <ele>148.60000610352</ele>
        <time>2014-08-27T09:41:56.000Z</time>
      </trkpt>
      <trkpt lat="48.71571" lon="1.73533">
        <ele>147.60000610352</ele>
        <time>2014-08-27T09:42:03.000Z</time>
      </trkpt>
      <trkpt lat="48.71577" lon="1.73531">
        <ele>147</ele>
        <time>2014-08-27T09:42:07.000Z</time>
      </trkpt>
      <trkpt lat="48.71588" lon="1.73529">
        <ele>146</ele>
        <time>2014-08-27T09:42:13.000Z</time>
      </trkpt>
      <trkpt lat="48.71597" lon="1.7353">
        <ele>145</ele>
        <time>2014-08-27T09:42:18.000Z</time>
      </trkpt>
      <trkpt lat="48.71607" lon="1.73528">
        <ele>144.39999389648</ele>
        <time>2014-08-27T09:42:25.000Z</time>
      </trkpt>
      <trkpt lat="48.71613" lon="1.73526">
        <ele>144</ele>
        <time>2014-08-27T09:42:31.000Z</time>
      </trkpt>
      <trkpt lat="48.71619" lon="1.73522">
        <ele>143.39999389648</ele>
        <time>2014-08-27T09:42:37.000Z</time>
      </trkpt>
      <trkpt lat="48.71628" lon="1.73518">
        <ele>142.80000305176</ele>
        <time>2014-08-27T09:42:43.000Z</time>
      </trkpt>
      <trkpt lat="48.71636" lon="1.73515">
        <ele>142.39999389648</ele>
        <time>2014-08-27T09:42:49.000Z</time>
      </trkpt>
      <trkpt lat="48.71644" lon="1.73514">
        <ele>142</ele>
        <time>2014-08-27T09:42:54.000Z</time>
      </trkpt>
      <trkpt lat="48.71654" lon="1.73513">
        <ele>141.60000610352</ele>
        <time>2014-08-27T09:42:59.000Z</time>
      </trkpt>
      <trkpt lat="48.71655" lon="1.73511">
        <ele>141.60000610352</ele>
        <time>2014-08-27T09:43:00.000Z</time>
      </trkpt>
      <trkpt lat="48.71665" lon="1.7351">
        <ele>141</ele>
        <time>2014-08-27T09:43:08.000Z</time>
      </trkpt>
      <trkpt lat="48.71669" lon="1.73509">
        <ele>140.80000305176</ele>
        <time>2014-08-27T09:43:11.000Z</time>
      </trkpt>
      <trkpt lat="48.71678" lon="1.73507">
        <ele>140.39999389648</ele>
        <time>2014-08-27T09:43:18.000Z</time>
      </trkpt>
      <trkpt lat="48.71684" lon="1.73506">
        <ele>140.19999694824</ele>
        <time>2014-08-27T09:43:22.000Z</time>
      </trkpt>
      <trkpt lat="48.71691" lon="1.73504">
        <ele>140</ele>
        <time>2014-08-27T09:43:26.000Z</time>
      </trkpt>
      <trkpt lat="48.717" lon="1.73502">
        <ele>140</ele>
        <time>2014-08-27T09:43:32.000Z</time>
      </trkpt>
      <trkpt lat="48.7171" lon="1.73501">
        <ele>139.60000610352</ele>
        <time>2014-08-27T09:43:38.000Z</time>
      </trkpt>
      <trkpt lat="48.71718" lon="1.735">
        <ele>139.39999389648</ele>
        <time>2014-08-27T09:43:44.000Z</time>
      </trkpt>
      <trkpt lat="48.71725" lon="1.735">
        <ele>139</ele>
        <time>2014-08-27T09:43:49.000Z</time>
      </trkpt>
      <trkpt lat="48.71733" lon="1.73499">
        <ele>138.80000305176</ele>
        <time>2014-08-27T09:43:55.000Z</time>
      </trkpt>
      <trkpt lat="48.7174" lon="1.73496">
        <ele>138.39999389648</ele>
        <time>2014-08-27T09:44:00.000Z</time>
      </trkpt>
      <trkpt lat="48.71753" lon="1.7349">
        <ele>137.80000305176</ele>
        <time>2014-08-27T09:44:07.000Z</time>
      </trkpt>
      <trkpt lat="48.71757" lon="1.73483">
        <ele>137.39999389648</ele>
        <time>2014-08-27T09:44:12.000Z</time>
      </trkpt>
      <trkpt lat="48.71756" lon="1.73468">
        <ele>137.60000610352</ele>
        <time>2014-08-27T09:44:17.000Z</time>
      </trkpt>
      <trkpt lat="48.71752" lon="1.73453">
        <ele>137.60000610352</ele>
        <time>2014-08-27T09:44:21.000Z</time>
      </trkpt>
      <trkpt lat="48.7174" lon="1.73424">
        <ele>138</ele>
        <time>2014-08-27T09:44:28.000Z</time>
      </trkpt>
      <trkpt lat="48.71734" lon="1.73405">
        <ele>138.39999389648</ele>
        <time>2014-08-27T09:44:33.000Z</time>
      </trkpt>
      <trkpt lat="48.71725" lon="1.7338">
        <ele>138</ele>
        <time>2014-08-27T09:44:39.000Z</time>
      </trkpt>
      <trkpt lat="48.71724" lon="1.73377">
        <ele>138</ele>
        <time>2014-08-27T09:44:40.000Z</time>
      </trkpt>
      <trkpt lat="48.71723" lon="1.73359">
        <ele>137.60000610352</ele>
        <time>2014-08-27T09:44:45.000Z</time>
      </trkpt>
      <trkpt lat="48.71713" lon="1.73325">
        <ele>137.19999694824</ele>
        <time>2014-08-27T09:44:52.000Z</time>
      </trkpt>
      <trkpt lat="48.71708" lon="1.73299">
        <ele>137.19999694824</ele>
        <time>2014-08-27T09:44:58.000Z</time>
      </trkpt>
      <trkpt lat="48.71706" lon="1.73277">
        <ele>137.39999389648</ele>
        <time>2014-08-27T09:45:03.000Z</time>
      </trkpt>
      <trkpt lat="48.71701" lon="1.73246">
        <ele>137.39999389648</ele>
        <time>2014-08-27T09:45:10.000Z</time>
      </trkpt>
      <trkpt lat="48.71697" lon="1.73218">
        <ele>137.19999694824</ele>
        <time>2014-08-27T09:45:16.000Z</time>
      </trkpt>
      <trkpt lat="48.71694" lon="1.73196">
        <ele>137.19999694824</ele>
        <time>2014-08-27T09:45:21.000Z</time>
      </trkpt>
      <trkpt lat="48.7169" lon="1.73174">
        <ele>137.19999694824</ele>
        <time>2014-08-27T09:45:26.000Z</time>
      </trkpt>
      <trkpt lat="48.7169" lon="1.73159">
        <ele>137</ele>
        <time>2014-08-27T09:45:30.000Z</time>
      </trkpt>
      <trkpt lat="48.71684" lon="1.73132">
        <ele>137.60000610352</ele>
        <time>2014-08-27T09:45:36.000Z</time>
      </trkpt>
      <trkpt lat="48.71678" lon="1.73103">
        <ele>138.39999389648</ele>
        <time>2014-08-27T09:45:42.000Z</time>
      </trkpt>
      <trkpt lat="48.71675" lon="1.73082">
        <ele>139</ele>
        <time>2014-08-27T09:45:47.000Z</time>
      </trkpt>
      <trkpt lat="48.71672" lon="1.7306">
        <ele>139.39999389648</ele>
        <time>2014-08-27T09:45:52.000Z</time>
      </trkpt>
      <trkpt lat="48.71669" lon="1.73027">
        <ele>139.39999389648</ele>
        <time>2014-08-27T09:45:59.000Z</time>
      </trkpt>
      <trkpt lat="48.71672" lon="1.73007">
        <ele>139</ele>
        <time>2014-08-27T09:46:03.000Z</time>
      </trkpt>
      <trkpt lat="48.71667" lon="1.72991">
        <ele>139</ele>
        <time>2014-08-27T09:46:07.000Z</time>
      </trkpt>
      <trkpt lat="48.71655" lon="1.72973">
        <ele>139.39999389648</ele>
        <time>2014-08-27T09:46:12.000Z</time>
      </trkpt>
      <trkpt lat="48.71648" lon="1.72954">
        <ele>139.39999389648</ele>
        <time>2014-08-27T09:46:17.000Z</time>
      </trkpt>
      <trkpt lat="48.71643" lon="1.72942">
        <ele>139.60000610352</ele>
        <time>2014-08-27T09:46:21.000Z</time>
      </trkpt>
      <trkpt lat="48.71636" lon="1.72928">
        <ele>139.80000305176</ele>
        <time>2014-08-27T09:46:25.000Z</time>
      </trkpt>
      <trkpt lat="48.71631" lon="1.72922">
        <ele>139.80000305176</ele>
        <time>2014-08-27T09:46:27.000Z</time>
      </trkpt>
      <trkpt lat="48.71623" lon="1.72901">
        <ele>140</ele>
        <time>2014-08-27T09:46:32.000Z</time>
      </trkpt>
      <trkpt lat="48.71616" lon="1.72891">
        <ele>140.19999694824</ele>
        <time>2014-08-27T09:46:35.000Z</time>
      </trkpt>
      <trkpt lat="48.71607" lon="1.72869">
        <ele>140.39999389648</ele>
        <time>2014-08-27T09:46:41.000Z</time>
      </trkpt>
      <trkpt lat="48.71605" lon="1.72864">
        <ele>140.39999389648</ele>
        <time>2014-08-27T09:46:42.000Z</time>
      </trkpt>
      <trkpt lat="48.71594" lon="1.72838">
        <ele>140.80000305176</ele>
        <time>2014-08-27T09:46:48.000Z</time>
      </trkpt>
      <trkpt lat="48.71586" lon="1.72822">
        <ele>141</ele>
        <time>2014-08-27T09:46:52.000Z</time>
      </trkpt>
      <trkpt lat="48.71581" lon="1.72806">
        <ele>141.60000610352</ele>
        <time>2014-08-27T09:46:56.000Z</time>
      </trkpt>
      <trkpt lat="48.71578" lon="1.72801">
        <ele>141.80000305176</ele>
        <time>2014-08-27T09:46:58.000Z</time>
      </trkpt>
      <trkpt lat="48.7157" lon="1.72777">
        <ele>142.60000610352</ele>
        <time>2014-08-27T09:47:04.000Z</time>
      </trkpt>
      <trkpt lat="48.71563" lon="1.72755">
        <ele>143.19999694824</ele>
        <time>2014-08-27T09:47:09.000Z</time>
      </trkpt>
      <trkpt lat="48.71557" lon="1.72738">
        <ele>143.80000305176</ele>
        <time>2014-08-27T09:47:13.000Z</time>
      </trkpt>
      <trkpt lat="48.71544" lon="1.72717">
        <ele>144</ele>
        <time>2014-08-27T09:47:19.000Z</time>
      </trkpt>
      <trkpt lat="48.71535" lon="1.727">
        <ele>144.19999694824</ele>
        <time>2014-08-27T09:47:24.000Z</time>
      </trkpt>
      <trkpt lat="48.71527" lon="1.72678">
        <ele>144.19999694824</ele>
        <time>2014-08-27T09:47:29.000Z</time>
      </trkpt>
      <trkpt lat="48.71519" lon="1.72653">
        <ele>144</ele>
        <time>2014-08-27T09:47:34.000Z</time>
      </trkpt>
      <trkpt lat="48.71507" lon="1.72629">
        <ele>144.19999694824</ele>
        <time>2014-08-27T09:47:39.000Z</time>
      </trkpt>
      <trkpt lat="48.71498" lon="1.72604">
        <ele>144.19999694824</ele>
        <time>2014-08-27T09:47:44.000Z</time>
      </trkpt>
      <trkpt lat="48.71494" lon="1.72575">
        <ele>143.60000610352</ele>
        <time>2014-08-27T09:47:50.000Z</time>
      </trkpt>
      <trkpt lat="48.71495" lon="1.72564">
        <ele>143.39999389648</ele>
        <time>2014-08-27T09:47:52.000Z</time>
      </trkpt>
      <trkpt lat="48.71486" lon="1.72521">
        <ele>143.39999389648</ele>
        <time>2014-08-27T09:48:00.000Z</time>
      </trkpt>
      <trkpt lat="48.71483" lon="1.72491">
        <ele>143.19999694824</ele>
        <time>2014-08-27T09:48:06.000Z</time>
      </trkpt>
      <trkpt lat="48.71482" lon="1.72469">
        <ele>142.80000305176</ele>
        <time>2014-08-27T09:48:11.000Z</time>
      </trkpt>
      <trkpt lat="48.71483" lon="1.72453">
        <ele>142.39999389648</ele>
        <time>2014-08-27T09:48:15.000Z</time>
      </trkpt>
      <trkpt lat="48.71482" lon="1.7244">
        <ele>142.19999694824</ele>
        <time>2014-08-27T09:48:18.000Z</time>
      </trkpt>
      <trkpt lat="48.71479" lon="1.72413">
        <ele>141.60000610352</ele>
        <time>2014-08-27T09:48:24.000Z</time>
      </trkpt>
      <trkpt lat="48.71477" lon="1.72387">
        <ele>141.19999694824</ele>
        <time>2014-08-27T09:48:29.000Z</time>
      </trkpt>
      <trkpt lat="48.71477" lon="1.72362">
        <ele>140.60000610352</ele>
        <time>2014-08-27T09:48:34.000Z</time>
      </trkpt>
      <trkpt lat="48.7148" lon="1.72339">
        <ele>140.19999694824</ele>
        <time>2014-08-27T09:48:39.000Z</time>
      </trkpt>
      <trkpt lat="48.71483" lon="1.72313">
        <ele>139.80000305176</ele>
        <time>2014-08-27T09:48:44.000Z</time>
      </trkpt>
      <trkpt lat="48.71482" lon="1.72287">
        <ele>140.19999694824</ele>
        <time>2014-08-27T09:48:49.000Z</time>
      </trkpt>
      <trkpt lat="48.71481" lon="1.7226">
        <ele>140</ele>
        <time>2014-08-27T09:48:54.000Z</time>
      </trkpt>
      <trkpt lat="48.71482" lon="1.72248">
        <ele>139.80000305176</ele>
        <time>2014-08-27T09:48:58.000Z</time>
      </trkpt>
      <trkpt lat="48.71482" lon="1.72245">
        <ele>139.80000305176</ele>
        <time>2014-08-27T09:48:59.000Z</time>
      </trkpt>
      <trkpt lat="48.71474" lon="1.72228">
        <ele>140.80000305176</ele>
        <time>2014-08-27T09:49:03.000Z</time>
      </trkpt>
      <trkpt lat="48.71466" lon="1.72208">
        <ele>142.39999389648</ele>
        <time>2014-08-27T09:49:07.000Z</time>
      </trkpt>
      <trkpt lat="48.71453" lon="1.72192">
        <ele>144</ele>
        <time>2014-08-27T09:49:12.000Z</time>
      </trkpt>
      <trkpt lat="48.7144" lon="1.72174">
        <ele>145.80000305176</ele>
        <time>2014-08-27T09:49:17.000Z</time>
      </trkpt>
      <trkpt lat="48.71431" lon="1.72152">
        <ele>148</ele>
        <time>2014-08-27T09:49:23.000Z</time>
      </trkpt>
      <trkpt lat="48.71428" lon="1.72142">
        <ele>147.80000305176</ele>
        <time>2014-08-27T09:49:25.000Z</time>
      </trkpt>
      <trkpt lat="48.71431" lon="1.72121">
        <ele>146.39999389648</ele>
        <time>2014-08-27T09:49:31.000Z</time>
      </trkpt>
      <trkpt lat="48.71429" lon="1.72114">
        <ele>146.19999694824</ele>
        <time>2014-08-27T09:49:33.000Z</time>
      </trkpt>
      <trkpt lat="48.7142" lon="1.721">
        <ele>146.80000305176</ele>
        <time>2014-08-27T09:49:38.000Z</time>
      </trkpt>
      <trkpt lat="48.71416" lon="1.72089">
        <ele>147</ele>
        <time>2014-08-27T09:49:45.000Z</time>
      </trkpt>
      <trkpt lat="48.71409" lon="1.72072">
        <ele>147.19999694824</ele>
        <time>2014-08-27T09:49:51.000Z</time>
      </trkpt>
      <trkpt lat="48.714" lon="1.72053">
        <ele>146.80000305176</ele>
        <time>2014-08-27T09:49:56.000Z</time>
      </trkpt>
      <trkpt lat="48.71398" lon="1.7205">
        <ele>146.80000305176</ele>
        <time>2014-08-27T09:49:57.000Z</time>
      </trkpt>
      <trkpt lat="48.71383" lon="1.72029">
        <ele>147.19999694824</ele>
        <time>2014-08-27T09:50:03.000Z</time>
      </trkpt>
      <trkpt lat="48.71371" lon="1.72012">
        <ele>147.60000610352</ele>
        <time>2014-08-27T09:50:08.000Z</time>
      </trkpt>
      <trkpt lat="48.71356" lon="1.72004">
        <ele>149</ele>
        <time>2014-08-27T09:50:12.000Z</time>
      </trkpt>
      <trkpt lat="48.7134" lon="1.71991">
        <ele>149.60000610352</ele>
        <time>2014-08-27T09:50:17.000Z</time>
      </trkpt>
      <trkpt lat="48.71328" lon="1.71972">
        <ele>150.80000305176</ele>
        <time>2014-08-27T09:50:23.000Z</time>
      </trkpt>
      <trkpt lat="48.71319" lon="1.71966">
        <ele>151.80000305176</ele>
        <time>2014-08-27T09:50:27.000Z</time>
      </trkpt>
      <trkpt lat="48.71315" lon="1.71961">
        <ele>152.39999389648</ele>
        <time>2014-08-27T09:50:29.000Z</time>
      </trkpt>
      <trkpt lat="48.71315" lon="1.71937">
        <ele>152.60000610352</ele>
        <time>2014-08-27T09:50:34.000Z</time>
      </trkpt>
      <trkpt lat="48.71318" lon="1.71911">
        <ele>152.19999694824</ele>
        <time>2014-08-27T09:50:40.000Z</time>
      </trkpt>
      <trkpt lat="48.7132" lon="1.71893">
        <ele>152.39999389648</ele>
        <time>2014-08-27T09:50:44.000Z</time>
      </trkpt>
      <trkpt lat="48.71325" lon="1.7187">
        <ele>152.60000610352</ele>
        <time>2014-08-27T09:50:50.000Z</time>
      </trkpt>
      <trkpt lat="48.71323" lon="1.71854">
        <ele>153.19999694824</ele>
        <time>2014-08-27T09:50:54.000Z</time>
      </trkpt>
      <trkpt lat="48.71325" lon="1.71843">
        <ele>153.19999694824</ele>
        <time>2014-08-27T09:50:57.000Z</time>
      </trkpt>
      <trkpt lat="48.71322" lon="1.71817">
        <ele>154</ele>
        <time>2014-08-27T09:51:02.000Z</time>
      </trkpt>
      <trkpt lat="48.71322" lon="1.71812">
        <ele>153.60000610352</ele>
        <time>2014-08-27T09:51:03.000Z</time>
      </trkpt>
      <trkpt lat="48.71318" lon="1.71784">
        <ele>151.80000305176</ele>
        <time>2014-08-27T09:51:09.000Z</time>
      </trkpt>
      <trkpt lat="48.71312" lon="1.71741">
        <ele>150.60000610352</ele>
        <time>2014-08-27T09:51:18.000Z</time>
      </trkpt>
      <trkpt lat="48.7131" lon="1.71712">
        <ele>149.39999389648</ele>
        <time>2014-08-27T09:51:24.000Z</time>
      </trkpt>
      <trkpt lat="48.7131" lon="1.71689">
        <ele>148.60000610352</ele>
        <time>2014-08-27T09:51:29.000Z</time>
      </trkpt>
      <trkpt lat="48.71312" lon="1.71663">
        <ele>148</ele>
        <time>2014-08-27T09:51:35.000Z</time>
      </trkpt>
      <trkpt lat="48.71315" lon="1.71641">
        <ele>147.60000610352</ele>
        <time>2014-08-27T09:51:40.000Z</time>
      </trkpt>
      <trkpt lat="48.71312" lon="1.71619">
        <ele>147.19999694824</ele>
        <time>2014-08-27T09:51:45.000Z</time>
      </trkpt>
      <trkpt lat="48.71311" lon="1.71598">
        <ele>146.60000610352</ele>
        <time>2014-08-27T09:51:49.000Z</time>
      </trkpt>
      <trkpt lat="48.71309" lon="1.71561">
        <ele>145.39999389648</ele>
        <time>2014-08-27T09:51:56.000Z</time>
      </trkpt>
      <trkpt lat="48.71305" lon="1.71528">
        <ele>144.80000305176</ele>
        <time>2014-08-27T09:52:02.000Z</time>
      </trkpt>
      <trkpt lat="48.71306" lon="1.71494">
        <ele>144.39999389648</ele>
        <time>2014-08-27T09:52:09.000Z</time>
      </trkpt>
      <trkpt lat="48.71303" lon="1.71471">
        <ele>144.39999389648</ele>
        <time>2014-08-27T09:52:14.000Z</time>
      </trkpt>
      <trkpt lat="48.71299" lon="1.71447">
        <ele>144.60000610352</ele>
        <time>2014-08-27T09:52:19.000Z</time>
      </trkpt>
      <trkpt lat="48.71293" lon="1.71421">
        <ele>144.80000305176</ele>
        <time>2014-08-27T09:52:24.000Z</time>
      </trkpt>
      <trkpt lat="48.71288" lon="1.71387">
        <ele>144.60000610352</ele>
        <time>2014-08-27T09:52:30.000Z</time>
      </trkpt>
      <trkpt lat="48.71286" lon="1.71363">
        <ele>144</ele>
        <time>2014-08-27T09:52:35.000Z</time>
      </trkpt>
      <trkpt lat="48.71283" lon="1.71335">
        <ele>143.60000610352</ele>
        <time>2014-08-27T09:52:41.000Z</time>
      </trkpt>
      <trkpt lat="48.71281" lon="1.71308">
        <ele>143.19999694824</ele>
        <time>2014-08-27T09:52:46.000Z</time>
      </trkpt>
      <trkpt lat="48.71277" lon="1.7129">
        <ele>143</ele>
        <time>2014-08-27T09:52:50.000Z</time>
      </trkpt>
      <trkpt lat="48.71272" lon="1.71265">
        <ele>142.60000610352</ele>
        <time>2014-08-27T09:52:55.000Z</time>
      </trkpt>
      <trkpt lat="48.7127" lon="1.71239">
        <ele>142</ele>
        <time>2014-08-27T09:53:00.000Z</time>
      </trkpt>
      <trkpt lat="48.71269" lon="1.71208">
        <ele>142</ele>
        <time>2014-08-27T09:53:06.000Z</time>
      </trkpt>
      <trkpt lat="48.71269" lon="1.7118">
        <ele>142.19999694824</ele>
        <time>2014-08-27T09:53:12.000Z</time>
      </trkpt>
      <trkpt lat="48.71266" lon="1.71146">
        <ele>142.39999389648</ele>
        <time>2014-08-27T09:53:19.000Z</time>
      </trkpt>
      <trkpt lat="48.71261" lon="1.71123">
        <ele>142.60000610352</ele>
        <time>2014-08-27T09:53:24.000Z</time>
      </trkpt>
      <trkpt lat="48.71252" lon="1.71099">
        <ele>143.19999694824</ele>
        <time>2014-08-27T09:53:30.000Z</time>
      </trkpt>
      <trkpt lat="48.71245" lon="1.71077">
        <ele>143.80000305176</ele>
        <time>2014-08-27T09:53:35.000Z</time>
      </trkpt>
      <trkpt lat="48.71242" lon="1.7106">
        <ele>144</ele>
        <time>2014-08-27T09:53:40.000Z</time>
      </trkpt>
      <trkpt lat="48.71235" lon="1.71047">
        <ele>144.60000610352</ele>
        <time>2014-08-27T09:53:44.000Z</time>
      </trkpt>
      <trkpt lat="48.71227" lon="1.7103">
        <ele>145.19999694824</ele>
        <time>2014-08-27T09:53:48.000Z</time>
      </trkpt>
      <trkpt lat="48.71218" lon="1.71004">
        <ele>146.39999389648</ele>
        <time>2014-08-27T09:53:53.000Z</time>
      </trkpt>
      <trkpt lat="48.71215" lon="1.70983">
        <ele>147</ele>
        <time>2014-08-27T09:53:57.000Z</time>
      </trkpt>
      <trkpt lat="48.71214" lon="1.70962">
        <ele>147.60000610352</ele>
        <time>2014-08-27T09:54:01.000Z</time>
      </trkpt>
      <trkpt lat="48.71213" lon="1.70945">
        <ele>148.19999694824</ele>
        <time>2014-08-27T09:54:04.000Z</time>
      </trkpt>
      <trkpt lat="48.71215" lon="1.70925">
        <ele>148.39999389648</ele>
        <time>2014-08-27T09:54:09.000Z</time>
      </trkpt>
      <trkpt lat="48.71209" lon="1.70898">
        <ele>149.19999694824</ele>
        <time>2014-08-27T09:54:15.000Z</time>
      </trkpt>
      <trkpt lat="48.71207" lon="1.70893">
        <ele>149.60000610352</ele>
        <time>2014-08-27T09:54:16.000Z</time>
      </trkpt>
      <trkpt lat="48.71201" lon="1.70872">
        <ele>151.19999694824</ele>
        <time>2014-08-27T09:54:21.000Z</time>
      </trkpt>
      <trkpt lat="48.71212" lon="1.70842">
        <ele>151.60000610352</ele>
        <time>2014-08-27T09:54:27.000Z</time>
      </trkpt>
      <trkpt lat="48.7122" lon="1.7082">
        <ele>151.80000305176</ele>
        <time>2014-08-27T09:54:32.000Z</time>
      </trkpt>
      <trkpt lat="48.71217" lon="1.70799">
        <ele>151.60000610352</ele>
        <time>2014-08-27T09:54:37.000Z</time>
      </trkpt>
      <trkpt lat="48.71214" lon="1.70773">
        <ele>151.19999694824</ele>
        <time>2014-08-27T09:54:43.000Z</time>
      </trkpt>
      <trkpt lat="48.71213" lon="1.70752">
        <ele>151.19999694824</ele>
        <time>2014-08-27T09:54:48.000Z</time>
      </trkpt>
      <trkpt lat="48.7122" lon="1.70729">
        <ele>150.60000610352</ele>
        <time>2014-08-27T09:54:53.000Z</time>
      </trkpt>
      <trkpt lat="48.71226" lon="1.70717">
        <ele>150.19999694824</ele>
        <time>2014-08-27T09:54:56.000Z</time>
      </trkpt>
      <trkpt lat="48.71223" lon="1.7071">
        <ele>150.39999389648</ele>
        <time>2014-08-27T09:55:00.000Z</time>
      </trkpt>
      <trkpt lat="48.71221" lon="1.70689">
        <ele>150.60000610352</ele>
        <time>2014-08-27T09:55:05.000Z</time>
      </trkpt>
      <trkpt lat="48.71217" lon="1.70649">
        <ele>150.80000305176</ele>
        <time>2014-08-27T09:55:13.000Z</time>
      </trkpt>
      <trkpt lat="48.71213" lon="1.70624">
        <ele>151.19999694824</ele>
        <time>2014-08-27T09:55:18.000Z</time>
      </trkpt>
      <trkpt lat="48.7121" lon="1.70596">
        <ele>151.39999389648</ele>
        <time>2014-08-27T09:55:24.000Z</time>
      </trkpt>
      <trkpt lat="48.71205" lon="1.70574">
        <ele>151.60000610352</ele>
        <time>2014-08-27T09:55:29.000Z</time>
      </trkpt>
      <trkpt lat="48.71193" lon="1.70543">
        <ele>151.60000610352</ele>
        <time>2014-08-27T09:55:36.000Z</time>
      </trkpt>
      <trkpt lat="48.71183" lon="1.70509">
        <ele>150.80000305176</ele>
        <time>2014-08-27T09:55:43.000Z</time>
      </trkpt>
      <trkpt lat="48.71181" lon="1.70485">
        <ele>150</ele>
        <time>2014-08-27T09:55:49.000Z</time>
      </trkpt>
      <trkpt lat="48.71178" lon="1.70473">
        <ele>149</ele>
        <time>2014-08-27T09:55:53.000Z</time>
      </trkpt>
      <trkpt lat="48.71173" lon="1.70459">
        <ele>148.19999694824</ele>
        <time>2014-08-27T09:55:57.000Z</time>
      </trkpt>
      <trkpt lat="48.71171" lon="1.70452">
        <ele>147.80000305176</ele>
        <time>2014-08-27T09:55:59.000Z</time>
      </trkpt>
      <trkpt lat="48.71168" lon="1.70427">
        <ele>146.19999694824</ele>
        <time>2014-08-27T09:56:05.000Z</time>
      </trkpt>
      <trkpt lat="48.71151" lon="1.70396">
        <ele>145</ele>
        <time>2014-08-27T09:56:11.000Z</time>
      </trkpt>
      <trkpt lat="48.71149" lon="1.70376">
        <ele>146.19999694824</ele>
        <time>2014-08-27T09:56:15.000Z</time>
      </trkpt>
      <trkpt lat="48.71149" lon="1.70358">
        <ele>146.80000305176</ele>
        <time>2014-08-27T09:56:19.000Z</time>
      </trkpt>
      <trkpt lat="48.71152" lon="1.70335">
        <ele>146.60000610352</ele>
        <time>2014-08-27T09:56:24.000Z</time>
      </trkpt>
      <trkpt lat="48.71156" lon="1.70317">
        <ele>146.60000610352</ele>
        <time>2014-08-27T09:56:29.000Z</time>
      </trkpt>
      <trkpt lat="48.71164" lon="1.70295">
        <ele>147</ele>
        <time>2014-08-27T09:56:34.000Z</time>
      </trkpt>
      <trkpt lat="48.71167" lon="1.70274">
        <ele>147.19999694824</ele>
        <time>2014-08-27T09:56:39.000Z</time>
      </trkpt>
      <trkpt lat="48.71171" lon="1.70254">
        <ele>147.60000610352</ele>
        <time>2014-08-27T09:56:44.000Z</time>
      </trkpt>
      <trkpt lat="48.7118" lon="1.70222">
        <ele>147.60000610352</ele>
        <time>2014-08-27T09:56:50.000Z</time>
      </trkpt>
      <trkpt lat="48.71189" lon="1.70199">
        <ele>147.19999694824</ele>
        <time>2014-08-27T09:56:55.000Z</time>
      </trkpt>
      <trkpt lat="48.71195" lon="1.70166">
        <ele>147</ele>
        <time>2014-08-27T09:57:02.000Z</time>
      </trkpt>
      <trkpt lat="48.71203" lon="1.70137">
        <ele>146.39999389648</ele>
        <time>2014-08-27T09:57:08.000Z</time>
      </trkpt>
      <trkpt lat="48.71208" lon="1.70118">
        <ele>146.19999694824</ele>
        <time>2014-08-27T09:57:12.000Z</time>
      </trkpt>
      <trkpt lat="48.71214" lon="1.70099">
        <ele>145.80000305176</ele>
        <time>2014-08-27T09:57:16.000Z</time>
      </trkpt>
      <trkpt lat="48.7122" lon="1.70075">
        <ele>146</ele>
        <time>2014-08-27T09:57:21.000Z</time>
      </trkpt>
      <trkpt lat="48.71224" lon="1.70053">
        <ele>146</ele>
        <time>2014-08-27T09:57:26.000Z</time>
      </trkpt>
      <trkpt lat="48.71226" lon="1.70033">
        <ele>146.19999694824</ele>
        <time>2014-08-27T09:57:31.000Z</time>
      </trkpt>
      <trkpt lat="48.71228" lon="1.70013">
        <ele>146.60000610352</ele>
        <time>2014-08-27T09:57:35.000Z</time>
      </trkpt>
      <trkpt lat="48.71233" lon="1.69992">
        <ele>147</ele>
        <time>2014-08-27T09:57:39.000Z</time>
      </trkpt>
      <trkpt lat="48.71227" lon="1.69955">
        <ele>147.60000610352</ele>
        <time>2014-08-27T09:57:46.000Z</time>
      </trkpt>
      <trkpt lat="48.7122" lon="1.69925">
        <ele>148.19999694824</ele>
        <time>2014-08-27T09:57:51.000Z</time>
      </trkpt>
      <trkpt lat="48.71218" lon="1.69903">
        <ele>148.60000610352</ele>
        <time>2014-08-27T09:57:55.000Z</time>
      </trkpt>
      <trkpt lat="48.71218" lon="1.69882">
        <ele>148.39999389648</ele>
        <time>2014-08-27T09:57:59.000Z</time>
      </trkpt>
      <trkpt lat="48.71217" lon="1.69857">
        <ele>148.60000610352</ele>
        <time>2014-08-27T09:58:04.000Z</time>
      </trkpt>
      <trkpt lat="48.71216" lon="1.69852">
        <ele>148.60000610352</ele>
        <time>2014-08-27T09:58:05.000Z</time>
      </trkpt>
      <trkpt lat="48.71221" lon="1.69822">
        <ele>148.80000305176</ele>
        <time>2014-08-27T09:58:11.000Z</time>
      </trkpt>
      <trkpt lat="48.71228" lon="1.69797">
        <ele>148.19999694824</ele>
        <time>2014-08-27T09:58:16.000Z</time>
      </trkpt>
      <trkpt lat="48.71234" lon="1.69774">
        <ele>148</ele>
        <time>2014-08-27T09:58:21.000Z</time>
      </trkpt>
      <trkpt lat="48.71238" lon="1.69744">
        <ele>148.39999389648</ele>
        <time>2014-08-27T09:58:27.000Z</time>
      </trkpt>
      <trkpt lat="48.71242" lon="1.69719">
        <ele>149.80000305176</ele>
        <time>2014-08-27T09:58:32.000Z</time>
      </trkpt>
      <trkpt lat="48.71244" lon="1.69689">
        <ele>151.39999389648</ele>
        <time>2014-08-27T09:58:38.000Z</time>
      </trkpt>
      <trkpt lat="48.71247" lon="1.69678">
        <ele>151.60000610352</ele>
        <time>2014-08-27T09:58:43.000Z</time>
      </trkpt>
      <trkpt lat="48.71252" lon="1.69668">
        <ele>151.60000610352</ele>
        <time>2014-08-27T09:58:50.000Z</time>
      </trkpt>
      <trkpt lat="48.71253" lon="1.69651">
        <ele>152.19999694824</ele>
        <time>2014-08-27T09:58:58.000Z</time>
      </trkpt>
      <trkpt lat="48.71255" lon="1.6964">
        <ele>152.60000610352</ele>
        <time>2014-08-27T09:59:03.000Z</time>
      </trkpt>
      <trkpt lat="48.71257" lon="1.69635">
        <ele>152.80000305176</ele>
        <time>2014-08-27T09:59:05.000Z</time>
      </trkpt>
      <trkpt lat="48.71265" lon="1.69625">
        <ele>152.39999389648</ele>
        <time>2014-08-27T09:59:11.000Z</time>
      </trkpt>
      <trkpt lat="48.71268" lon="1.69622">
        <ele>152.39999389648</ele>
        <time>2014-08-27T09:59:13.000Z</time>
      </trkpt>
      <trkpt lat="48.71277" lon="1.69607">
        <ele>152.39999389648</ele>
        <time>2014-08-27T09:59:21.000Z</time>
      </trkpt>
      <trkpt lat="48.7128" lon="1.69601">
        <ele>152.60000610352</ele>
        <time>2014-08-27T09:59:24.000Z</time>
      </trkpt>
      <trkpt lat="48.7128" lon="1.69588">
        <ele>153</ele>
        <time>2014-08-27T09:59:30.000Z</time>
      </trkpt>
      <trkpt lat="48.71281" lon="1.69579">
        <ele>153.19999694824</ele>
        <time>2014-08-27T09:59:34.000Z</time>
      </trkpt>
      <trkpt lat="48.71281" lon="1.69568">
        <ele>153.19999694824</ele>
        <time>2014-08-27T09:59:39.000Z</time>
      </trkpt>
      <trkpt lat="48.71281" lon="1.69552">
        <ele>153</ele>
        <time>2014-08-27T09:59:46.000Z</time>
      </trkpt>
      <trkpt lat="48.71284" lon="1.69534">
        <ele>152.19999694824</ele>
        <time>2014-08-27T09:59:54.000Z</time>
      </trkpt>
      <trkpt lat="48.71285" lon="1.6952">
        <ele>152</ele>
        <time>2014-08-27T10:00:00.000Z</time>
      </trkpt>
      <trkpt lat="48.71285" lon="1.69517">
        <ele>151.80000305176</ele>
        <time>2014-08-27T10:00:01.000Z</time>
      </trkpt>
      <trkpt lat="48.71282" lon="1.69503">
        <ele>151.80000305176</ele>
        <time>2014-08-27T10:00:08.000Z</time>
      </trkpt>
      <trkpt lat="48.71281" lon="1.69496">
        <ele>151.39999389648</ele>
        <time>2014-08-27T10:00:11.000Z</time>
      </trkpt>
      <trkpt lat="48.71286" lon="1.69482">
        <ele>150.19999694824</ele>
        <time>2014-08-27T10:00:17.000Z</time>
      </trkpt>
      <trkpt lat="48.71288" lon="1.69467">
        <ele>148.80000305176</ele>
        <time>2014-08-27T10:00:23.000Z</time>
      </trkpt>
      <trkpt lat="48.71286" lon="1.69453">
        <ele>147.80000305176</ele>
        <time>2014-08-27T10:00:29.000Z</time>
      </trkpt>
      <trkpt lat="48.71288" lon="1.69439">
        <ele>146.60000610352</ele>
        <time>2014-08-27T10:00:36.000Z</time>
      </trkpt>
      <trkpt lat="48.71291" lon="1.69424">
        <ele>145</ele>
        <time>2014-08-27T10:00:44.000Z</time>
      </trkpt>
      <trkpt lat="48.71293" lon="1.69412">
        <ele>144.39999389648</ele>
        <time>2014-08-27T10:00:49.000Z</time>
      </trkpt>
      <trkpt lat="48.71294" lon="1.694">
        <ele>143.80000305176</ele>
        <time>2014-08-27T10:00:54.000Z</time>
      </trkpt>
      <trkpt lat="48.71297" lon="1.69386">
        <ele>143.60000610352</ele>
        <time>2014-08-27T10:01:00.000Z</time>
      </trkpt>
      <trkpt lat="48.71299" lon="1.69382">
        <ele>143.39999389648</ele>
        <time>2014-08-27T10:01:02.000Z</time>
      </trkpt>
      <trkpt lat="48.71307" lon="1.69367">
        <ele>142.80000305176</ele>
        <time>2014-08-27T10:01:09.000Z</time>
      </trkpt>
      <trkpt lat="48.71308" lon="1.69365">
        <ele>142.80000305176</ele>
        <time>2014-08-27T10:01:10.000Z</time>
      </trkpt>
      <trkpt lat="48.71313" lon="1.69351">
        <ele>142</ele>
        <time>2014-08-27T10:01:17.000Z</time>
      </trkpt>
      <trkpt lat="48.71316" lon="1.6934">
        <ele>141.19999694824</ele>
        <time>2014-08-27T10:01:21.000Z</time>
      </trkpt>
      <trkpt lat="48.7132" lon="1.6933">
        <ele>140.39999389648</ele>
        <time>2014-08-27T10:01:25.000Z</time>
      </trkpt>
      <trkpt lat="48.71323" lon="1.69316">
        <ele>139.60000610352</ele>
        <time>2014-08-27T10:01:31.000Z</time>
      </trkpt>
      <trkpt lat="48.71327" lon="1.69312">
        <ele>139.19999694824</ele>
        <time>2014-08-27T10:01:36.000Z</time>
      </trkpt>
      <trkpt lat="48.71329" lon="1.69303">
        <ele>138.80000305176</ele>
        <time>2014-08-27T10:01:42.000Z</time>
      </trkpt>
      <trkpt lat="48.71329" lon="1.69291">
        <ele>138.80000305176</ele>
        <time>2014-08-27T10:01:48.000Z</time>
      </trkpt>
      <trkpt lat="48.7133" lon="1.69285">
        <ele>139</ele>
        <time>2014-08-27T10:01:51.000Z</time>
      </trkpt>
      <trkpt lat="48.7133" lon="1.69272">
        <ele>139.39999389648</ele>
        <time>2014-08-27T10:01:57.000Z</time>
      </trkpt>
      <trkpt lat="48.71329" lon="1.69268">
        <ele>139.39999389648</ele>
        <time>2014-08-27T10:01:59.000Z</time>
      </trkpt>
      <trkpt lat="48.71334" lon="1.6925">
        <ele>139.60000610352</ele>
        <time>2014-08-27T10:02:09.000Z</time>
      </trkpt>
      <trkpt lat="48.71335" lon="1.69238">
        <ele>139.80000305176</ele>
        <time>2014-08-27T10:02:15.000Z</time>
      </trkpt>
      <trkpt lat="48.71335" lon="1.69236">
        <ele>140</ele>
        <time>2014-08-27T10:02:16.000Z</time>
      </trkpt>
      <trkpt lat="48.71335" lon="1.69225">
        <ele>140</ele>
        <time>2014-08-27T10:02:20.000Z</time>
      </trkpt>
      <trkpt lat="48.71333" lon="1.69206">
        <ele>139.80000305176</ele>
        <time>2014-08-27T10:02:28.000Z</time>
      </trkpt>
      <trkpt lat="48.71334" lon="1.69195">
        <ele>139.39999389648</ele>
        <time>2014-08-27T10:02:34.000Z</time>
      </trkpt>
      <trkpt lat="48.71334" lon="1.69193">
        <ele>139.39999389648</ele>
        <time>2014-08-27T10:02:35.000Z</time>
      </trkpt>
      <trkpt lat="48.71334" lon="1.69181">
        <ele>139</ele>
        <time>2014-08-27T10:02:42.000Z</time>
      </trkpt>
      <trkpt lat="48.71332" lon="1.69181">
        <ele>139.19999694824</ele>
        <time>2014-08-27T10:02:50.000Z</time>
      </trkpt>
      <trkpt lat="48.71329" lon="1.69179">
        <ele>139.39999389648</ele>
        <time>2014-08-27T10:02:59.000Z</time>
      </trkpt>
      <trkpt lat="48.71321" lon="1.69178">
        <ele>140</ele>
        <time>2014-08-27T10:03:07.000Z</time>
      </trkpt>
      <trkpt lat="48.71317" lon="1.69179">
        <ele>140.19999694824</ele>
        <time>2014-08-27T10:03:15.000Z</time>
      </trkpt>
      <trkpt lat="48.71318" lon="1.69178">
        <ele>140.19999694824</ele>
        <time>2014-08-27T10:03:21.000Z</time>
      </trkpt>
      <trkpt lat="48.71324" lon="1.6918">
        <ele>139.80000305176</ele>
        <time>2014-08-27T10:03:23.000Z</time>
      </trkpt>
      <trkpt lat="48.71327" lon="1.69178">
        <ele>139.60000610352</ele>
        <time>2014-08-27T10:03:27.000Z</time>
      </trkpt>
      <trkpt lat="48.71348" lon="1.69129">
        <ele>139</ele>
        <time>2014-08-27T10:05:05.000Z</time>
      </trkpt>
      <trkpt lat="48.71353" lon="1.69121">
        <ele>139.39999389648</ele>
        <time>2014-08-27T10:05:10.000Z</time>
      </trkpt>
      <trkpt lat="48.71353" lon="1.69119">
        <ele>139.39999389648</ele>
        <time>2014-08-27T10:05:12.000Z</time>
      </trkpt>
      <trkpt lat="48.71356" lon="1.69118">
        <ele>139.39999389648</ele>
        <time>2014-08-27T10:05:14.000Z</time>
      </trkpt>
      <trkpt lat="48.71357" lon="1.69117">
        <ele>139.39999389648</ele>
        <time>2014-08-27T10:05:18.000Z</time>
      </trkpt>
      <trkpt lat="48.71359" lon="1.69119">
        <ele>139.19999694824</ele>
        <time>2014-08-27T10:05:25.000Z</time>
      </trkpt>
      <trkpt lat="48.71363" lon="1.69118">
        <ele>139</ele>
        <time>2014-08-27T10:05:28.000Z</time>
      </trkpt>
      <trkpt lat="48.71363" lon="1.69112">
        <ele>139.60000610352</ele>
        <time>2014-08-27T10:05:32.000Z</time>
      </trkpt>
      <trkpt lat="48.7136" lon="1.69104">
        <ele>140.19999694824</ele>
        <time>2014-08-27T10:05:38.000Z</time>
      </trkpt>
      <trkpt lat="48.71355" lon="1.69103">
        <ele>140.60000610352</ele>
        <time>2014-08-27T10:05:41.000Z</time>
      </trkpt>
      <trkpt lat="48.71357" lon="1.69097">
        <ele>141</ele>
        <time>2014-08-27T10:05:47.000Z</time>
      </trkpt>
      <trkpt lat="48.71357" lon="1.69096">
        <ele>141</ele>
        <time>2014-08-27T10:05:48.000Z</time>
      </trkpt>
      <trkpt lat="48.71358" lon="1.69086">
        <ele>141.60000610352</ele>
        <time>2014-08-27T10:05:54.000Z</time>
      </trkpt>
      <trkpt lat="48.71359" lon="1.69081">
        <ele>142</ele>
        <time>2014-08-27T10:05:57.000Z</time>
      </trkpt>
      <trkpt lat="48.7136" lon="1.69074">
        <ele>142.19999694824</ele>
        <time>2014-08-27T10:06:01.000Z</time>
      </trkpt>
      <trkpt lat="48.71358" lon="1.6907">
        <ele>142.60000610352</ele>
        <time>2014-08-27T10:06:03.000Z</time>
      </trkpt>
      <trkpt lat="48.71355" lon="1.69057">
        <ele>143.60000610352</ele>
        <time>2014-08-27T10:06:10.000Z</time>
      </trkpt>
      <trkpt lat="48.71363" lon="1.6905">
        <ele>143.39999389648</ele>
        <time>2014-08-27T10:06:16.000Z</time>
      </trkpt>
      <trkpt lat="48.71366" lon="1.69041">
        <ele>143.60000610352</ele>
        <time>2014-08-27T10:06:21.000Z</time>
      </trkpt>
      <trkpt lat="48.71375" lon="1.69029">
        <ele>143.39999389648</ele>
        <time>2014-08-27T10:06:27.000Z</time>
      </trkpt>
      <trkpt lat="48.71388" lon="1.69023">
        <ele>142.39999389648</ele>
        <time>2014-08-27T10:06:31.000Z</time>
      </trkpt>
      <trkpt lat="48.71395" lon="1.69012">
        <ele>142</ele>
        <time>2014-08-27T10:06:36.000Z</time>
      </trkpt>
      <trkpt lat="48.71401" lon="1.68997">
        <ele>141.60000610352</ele>
        <time>2014-08-27T10:06:43.000Z</time>
      </trkpt>
      <trkpt lat="48.71402" lon="1.6898">
        <ele>142</ele>
        <time>2014-08-27T10:06:50.000Z</time>
      </trkpt>
      <trkpt lat="48.71398" lon="1.68973">
        <ele>142.80000305176</ele>
        <time>2014-08-27T10:06:55.000Z</time>
      </trkpt>
      <trkpt lat="48.7141" lon="1.6897">
        <ele>141.39999389648</ele>
        <time>2014-08-27T10:07:00.000Z</time>
      </trkpt>
      <trkpt lat="48.7142" lon="1.68958">
        <ele>140.39999389648</ele>
        <time>2014-08-27T10:07:09.000Z</time>
      </trkpt>
      <trkpt lat="48.71423" lon="1.68948">
        <ele>140.39999389648</ele>
        <time>2014-08-27T10:07:15.000Z</time>
      </trkpt>
      <trkpt lat="48.71423" lon="1.68942">
        <ele>140.60000610352</ele>
        <time>2014-08-27T10:07:18.000Z</time>
      </trkpt>
      <trkpt lat="48.71428" lon="1.68932">
        <ele>140.19999694824</ele>
        <time>2014-08-27T10:07:24.000Z</time>
      </trkpt>
      <trkpt lat="48.71429" lon="1.68931">
        <ele>140.19999694824</ele>
        <time>2014-08-27T10:07:25.000Z</time>
      </trkpt>
      <trkpt lat="48.7143" lon="1.68926">
        <ele>140.19999694824</ele>
        <time>2014-08-27T10:07:29.000Z</time>
      </trkpt>
      <trkpt lat="48.71427" lon="1.68916">
        <ele>141</ele>
        <time>2014-08-27T10:07:35.000Z</time>
      </trkpt>
      <trkpt lat="48.71425" lon="1.68914">
        <ele>141.19999694824</ele>
        <time>2014-08-27T10:07:36.000Z</time>
      </trkpt>
      <trkpt lat="48.71424" lon="1.68904">
        <ele>141.80000305176</ele>
        <time>2014-08-27T10:07:40.000Z</time>
      </trkpt>
      <trkpt lat="48.71423" lon="1.68894">
        <ele>142.19999694824</ele>
        <time>2014-08-27T10:07:45.000Z</time>
      </trkpt>
      <trkpt lat="48.71417" lon="1.68884">
        <ele>143.19999694824</ele>
        <time>2014-08-27T10:07:50.000Z</time>
      </trkpt>
      <trkpt lat="48.71408" lon="1.68876">
        <ele>144.80000305176</ele>
        <time>2014-08-27T10:07:55.000Z</time>
      </trkpt>
      <trkpt lat="48.71408" lon="1.68868">
        <ele>145</ele>
        <time>2014-08-27T10:08:00.000Z</time>
      </trkpt>
      <trkpt lat="48.71411" lon="1.68861">
        <ele>144.80000305176</ele>
        <time>2014-08-27T10:08:04.000Z</time>
      </trkpt>
      <trkpt lat="48.7141" lon="1.68854">
        <ele>145</ele>
        <time>2014-08-27T10:08:09.000Z</time>
      </trkpt>
      <trkpt lat="48.7141" lon="1.68848">
        <ele>145.19999694824</ele>
        <time>2014-08-27T10:08:14.000Z</time>
      </trkpt>
      <trkpt lat="48.71411" lon="1.68843">
        <ele>145.19999694824</ele>
        <time>2014-08-27T10:08:18.000Z</time>
      </trkpt>
      <trkpt lat="48.71408" lon="1.68835">
        <ele>145.80000305176</ele>
        <time>2014-08-27T10:08:23.000Z</time>
      </trkpt>
      <trkpt lat="48.71412" lon="1.68819">
        <ele>145.60000610352</ele>
        <time>2014-08-27T10:08:33.000Z</time>
      </trkpt>
      <trkpt lat="48.71412" lon="1.68816">
        <ele>145.60000610352</ele>
        <time>2014-08-27T10:08:35.000Z</time>
      </trkpt>
      <trkpt lat="48.71408" lon="1.68802">
        <ele>146.19999694824</ele>
        <time>2014-08-27T10:08:42.000Z</time>
      </trkpt>
      <trkpt lat="48.71396" lon="1.68797">
        <ele>148</ele>
        <time>2014-08-27T10:08:46.000Z</time>
      </trkpt>
      <trkpt lat="48.71395" lon="1.68788">
        <ele>148</ele>
        <time>2014-08-27T10:08:51.000Z</time>
      </trkpt>
      <trkpt lat="48.71392" lon="1.68778">
        <ele>148.39999389648</ele>
        <time>2014-08-27T10:08:57.000Z</time>
      </trkpt>
      <trkpt lat="48.71392" lon="1.68774">
        <ele>148.60000610352</ele>
        <time>2014-08-27T10:09:00.000Z</time>
      </trkpt>
      <trkpt lat="48.71389" lon="1.68766">
        <ele>149.19999694824</ele>
        <time>2014-08-27T10:09:06.000Z</time>
      </trkpt>
      <trkpt lat="48.71386" lon="1.68757">
        <ele>150</ele>
        <time>2014-08-27T10:09:11.000Z</time>
      </trkpt>
      <trkpt lat="48.71379" lon="1.68748">
        <ele>151.19999694824</ele>
        <time>2014-08-27T10:09:16.000Z</time>
      </trkpt>
      <trkpt lat="48.71379" lon="1.68743">
        <ele>151.39999389648</ele>
        <time>2014-08-27T10:09:19.000Z</time>
      </trkpt>
      <trkpt lat="48.71377" lon="1.68733">
        <ele>152</ele>
        <time>2014-08-27T10:09:23.000Z</time>
      </trkpt>
      <trkpt lat="48.71373" lon="1.68725">
        <ele>152.39999389648</ele>
        <time>2014-08-27T10:09:26.000Z</time>
      </trkpt>
      <trkpt lat="48.71366" lon="1.68711">
        <ele>153</ele>
        <time>2014-08-27T10:09:33.000Z</time>
      </trkpt>
      <trkpt lat="48.71362" lon="1.68704">
        <ele>153.39999389648</ele>
        <time>2014-08-27T10:09:38.000Z</time>
      </trkpt>
      <trkpt lat="48.71353" lon="1.68694">
        <ele>154</ele>
        <time>2014-08-27T10:09:44.000Z</time>
      </trkpt>
      <trkpt lat="48.71354" lon="1.68685">
        <ele>154</ele>
        <time>2014-08-27T10:09:50.000Z</time>
      </trkpt>
      <trkpt lat="48.71349" lon="1.68673">
        <ele>154.80000305176</ele>
        <time>2014-08-27T10:09:55.000Z</time>
      </trkpt>
      <trkpt lat="48.71345" lon="1.68669">
        <ele>155.60000610352</ele>
        <time>2014-08-27T10:09:57.000Z</time>
      </trkpt>
      <trkpt lat="48.71339" lon="1.68657">
        <ele>156.39999389648</ele>
        <time>2014-08-27T10:10:03.000Z</time>
      </trkpt>
      <trkpt lat="48.71332" lon="1.68643">
        <ele>157.19999694824</ele>
        <time>2014-08-27T10:10:10.000Z</time>
      </trkpt>
      <trkpt lat="48.71329" lon="1.68639">
        <ele>157.39999389648</ele>
        <time>2014-08-27T10:10:12.000Z</time>
      </trkpt>
      <trkpt lat="48.7133" lon="1.68631">
        <ele>157</ele>
        <time>2014-08-27T10:10:19.000Z</time>
      </trkpt>
      <trkpt lat="48.7133" lon="1.68622">
        <ele>156.60000610352</ele>
        <time>2014-08-27T10:10:25.000Z</time>
      </trkpt>
      <trkpt lat="48.71328" lon="1.68614">
        <ele>156.80000305176</ele>
        <time>2014-08-27T10:10:29.000Z</time>
      </trkpt>
      <trkpt lat="48.71328" lon="1.68601">
        <ele>156.39999389648</ele>
        <time>2014-08-27T10:10:36.000Z</time>
      </trkpt>
      <trkpt lat="48.71322" lon="1.68593">
        <ele>157</ele>
        <time>2014-08-27T10:10:41.000Z</time>
      </trkpt>
      <trkpt lat="48.71316" lon="1.68583">
        <ele>157.80000305176</ele>
        <time>2014-08-27T10:10:47.000Z</time>
      </trkpt>
      <trkpt lat="48.71314" lon="1.68571">
        <ele>157.80000305176</ele>
        <time>2014-08-27T10:10:52.000Z</time>
      </trkpt>
      <trkpt lat="48.71317" lon="1.68555">
        <ele>156.60000610352</ele>
        <time>2014-08-27T10:10:59.000Z</time>
      </trkpt>
      <trkpt lat="48.71317" lon="1.68544">
        <ele>156</ele>
        <time>2014-08-27T10:11:04.000Z</time>
      </trkpt>
      <trkpt lat="48.71314" lon="1.68535">
        <ele>156.19999694824</ele>
        <time>2014-08-27T10:11:08.000Z</time>
      </trkpt>
      <trkpt lat="48.71311" lon="1.68527">
        <ele>156.19999694824</ele>
        <time>2014-08-27T10:11:12.000Z</time>
      </trkpt>
      <trkpt lat="48.71309" lon="1.68518">
        <ele>156</ele>
        <time>2014-08-27T10:11:17.000Z</time>
      </trkpt>
      <trkpt lat="48.71305" lon="1.68508">
        <ele>156.19999694824</ele>
        <time>2014-08-27T10:11:21.000Z</time>
      </trkpt>
      <trkpt lat="48.71301" lon="1.68493">
        <ele>156.19999694824</ele>
        <time>2014-08-27T10:11:28.000Z</time>
      </trkpt>
      <trkpt lat="48.71296" lon="1.68486">
        <ele>156.60000610352</ele>
        <time>2014-08-27T10:11:33.000Z</time>
      </trkpt>
      <trkpt lat="48.71291" lon="1.68473">
        <ele>156.39999389648</ele>
        <time>2014-08-27T10:11:39.000Z</time>
      </trkpt>
      <trkpt lat="48.71289" lon="1.68467">
        <ele>156.39999389648</ele>
        <time>2014-08-27T10:11:43.000Z</time>
      </trkpt>
      <trkpt lat="48.71284" lon="1.68459">
        <ele>156.60000610352</ele>
        <time>2014-08-27T10:11:48.000Z</time>
      </trkpt>
      <trkpt lat="48.71279" lon="1.68454">
        <ele>156.80000305176</ele>
        <time>2014-08-27T10:11:53.000Z</time>
      </trkpt>
      <trkpt lat="48.71272" lon="1.68449">
        <ele>157.60000610352</ele>
        <time>2014-08-27T10:11:59.000Z</time>
      </trkpt>
      <trkpt lat="48.71264" lon="1.68443">
        <ele>158.19999694824</ele>
        <time>2014-08-27T10:12:05.000Z</time>
      </trkpt>
      <trkpt lat="48.71259" lon="1.68437">
        <ele>158.39999389648</ele>
        <time>2014-08-27T10:12:11.000Z</time>
      </trkpt>
      <trkpt lat="48.71253" lon="1.68434">
        <ele>159.19999694824</ele>
        <time>2014-08-27T10:12:17.000Z</time>
      </trkpt>
      <trkpt lat="48.71246" lon="1.6843">
        <ele>159.80000305176</ele>
        <time>2014-08-27T10:12:21.000Z</time>
      </trkpt>
      <trkpt lat="48.71241" lon="1.68423">
        <ele>160</ele>
        <time>2014-08-27T10:12:26.000Z</time>
      </trkpt>
      <trkpt lat="48.71237" lon="1.68407">
        <ele>159.60000610352</ele>
        <time>2014-08-27T10:12:34.000Z</time>
      </trkpt>
      <trkpt lat="48.71234" lon="1.68405">
        <ele>159.80000305176</ele>
        <time>2014-08-27T10:12:35.000Z</time>
      </trkpt>
      <trkpt lat="48.71223" lon="1.68392">
        <ele>161.39999389648</ele>
        <time>2014-08-27T10:12:41.000Z</time>
      </trkpt>
      <trkpt lat="48.71219" lon="1.68382">
        <ele>162</ele>
        <time>2014-08-27T10:12:46.000Z</time>
      </trkpt>
      <trkpt lat="48.71217" lon="1.68378">
        <ele>162.19999694824</ele>
        <time>2014-08-27T10:12:48.000Z</time>
      </trkpt>
      <trkpt lat="48.7122" lon="1.68359">
        <ele>162.19999694824</ele>
        <time>2014-08-27T10:12:56.000Z</time>
      </trkpt>
      <trkpt lat="48.71217" lon="1.68346">
        <ele>162.60000610352</ele>
        <time>2014-08-27T10:13:01.000Z</time>
      </trkpt>
      <trkpt lat="48.71213" lon="1.68338">
        <ele>162.80000305176</ele>
        <time>2014-08-27T10:13:05.000Z</time>
      </trkpt>
      <trkpt lat="48.71206" lon="1.68326">
        <ele>163.80000305176</ele>
        <time>2014-08-27T10:13:10.000Z</time>
      </trkpt>
      <trkpt lat="48.71199" lon="1.68316">
        <ele>165</ele>
        <time>2014-08-27T10:13:15.000Z</time>
      </trkpt>
      <trkpt lat="48.71198" lon="1.68313">
        <ele>165.19999694824</ele>
        <time>2014-08-27T10:13:16.000Z</time>
      </trkpt>
      <trkpt lat="48.71191" lon="1.68297">
        <ele>167.39999389648</ele>
        <time>2014-08-27T10:13:21.000Z</time>
      </trkpt>
      <trkpt lat="48.71189" lon="1.68287">
        <ele>168.19999694824</ele>
        <time>2014-08-27T10:13:25.000Z</time>
      </trkpt>
      <trkpt lat="48.71189" lon="1.68284">
        <ele>168.39999389648</ele>
        <time>2014-08-27T10:13:27.000Z</time>
      </trkpt>
      <trkpt lat="48.71189" lon="1.68274">
        <ele>168.80000305176</ele>
        <time>2014-08-27T10:13:32.000Z</time>
      </trkpt>
      <trkpt lat="48.71189" lon="1.68266">
        <ele>169.19999694824</ele>
        <time>2014-08-27T10:13:36.000Z</time>
      </trkpt>
      <trkpt lat="48.7119" lon="1.68258">
        <ele>169.39999389648</ele>
        <time>2014-08-27T10:13:41.000Z</time>
      </trkpt>
      <trkpt lat="48.71188" lon="1.68244">
        <ele>170.39999389648</ele>
        <time>2014-08-27T10:13:48.000Z</time>
      </trkpt>
      <trkpt lat="48.71185" lon="1.68233">
        <ele>171.19999694824</ele>
        <time>2014-08-27T10:13:53.000Z</time>
      </trkpt>
      <trkpt lat="48.71184" lon="1.68231">
        <ele>171.19999694824</ele>
        <time>2014-08-27T10:13:54.000Z</time>
      </trkpt>
      <trkpt lat="48.71188" lon="1.68218">
        <ele>170.60000610352</ele>
        <time>2014-08-27T10:14:01.000Z</time>
      </trkpt>
      <trkpt lat="48.71186" lon="1.68207">
        <ele>170.80000305176</ele>
        <time>2014-08-27T10:14:07.000Z</time>
      </trkpt>
      <trkpt lat="48.71186" lon="1.68199">
        <ele>170.60000610352</ele>
        <time>2014-08-27T10:14:11.000Z</time>
      </trkpt>
      <trkpt lat="48.71183" lon="1.68179">
        <ele>170.60000610352</ele>
        <time>2014-08-27T10:14:19.000Z</time>
      </trkpt>
      <trkpt lat="48.71182" lon="1.6817">
        <ele>170.80000305176</ele>
        <time>2014-08-27T10:14:23.000Z</time>
      </trkpt>
      <trkpt lat="48.71187" lon="1.68158">
        <ele>170</ele>
        <time>2014-08-27T10:14:28.000Z</time>
      </trkpt>
      <trkpt lat="48.71192" lon="1.68148">
        <ele>169</ele>
        <time>2014-08-27T10:14:32.000Z</time>
      </trkpt>
      <trkpt lat="48.71187" lon="1.68136">
        <ele>170.19999694824</ele>
        <time>2014-08-27T10:14:38.000Z</time>
      </trkpt>
      <trkpt lat="48.71184" lon="1.68129">
        <ele>170.60000610352</ele>
        <time>2014-08-27T10:14:43.000Z</time>
      </trkpt>
      <trkpt lat="48.71184" lon="1.68125">
        <ele>170.60000610352</ele>
        <time>2014-08-27T10:14:46.000Z</time>
      </trkpt>
      <trkpt lat="48.71174" lon="1.68114">
        <ele>171.80000305176</ele>
        <time>2014-08-27T10:14:51.000Z</time>
      </trkpt>
      <trkpt lat="48.7117" lon="1.68109">
        <ele>172.39999389648</ele>
        <time>2014-08-27T10:14:55.000Z</time>
      </trkpt>
      <trkpt lat="48.71167" lon="1.68111">
        <ele>172.80000305176</ele>
        <time>2014-08-27T10:14:57.000Z</time>
      </trkpt>
      <trkpt lat="48.71158" lon="1.6811">
        <ele>173.60000610352</ele>
        <time>2014-08-27T10:15:02.000Z</time>
      </trkpt>
      <trkpt lat="48.71154" lon="1.68102">
        <ele>174.19999694824</ele>
        <time>2014-08-27T10:15:08.000Z</time>
      </trkpt>
      <trkpt lat="48.71154" lon="1.68101">
        <ele>174.19999694824</ele>
        <time>2014-08-27T10:15:09.000Z</time>
      </trkpt>
      <trkpt lat="48.71143" lon="1.68089">
        <ele>175.39999389648</ele>
        <time>2014-08-27T10:15:15.000Z</time>
      </trkpt>
      <trkpt lat="48.71137" lon="1.68085">
        <ele>176.19999694824</ele>
        <time>2014-08-27T10:15:20.000Z</time>
      </trkpt>
      <trkpt lat="48.71136" lon="1.68084">
        <ele>176.19999694824</ele>
        <time>2014-08-27T10:15:23.000Z</time>
      </trkpt>
      <trkpt lat="48.71128" lon="1.6808">
        <ele>177.19999694824</ele>
        <time>2014-08-27T10:15:33.000Z</time>
      </trkpt>
      <trkpt lat="48.71118" lon="1.68078">
        <ele>178.39999389648</ele>
        <time>2014-08-27T10:15:39.000Z</time>
      </trkpt>
      <trkpt lat="48.71111" lon="1.68076">
        <ele>179.19999694824</ele>
        <time>2014-08-27T10:15:44.000Z</time>
      </trkpt>
      <trkpt lat="48.71101" lon="1.68077">
        <ele>180</ele>
        <time>2014-08-27T10:15:50.000Z</time>
      </trkpt>
      <trkpt lat="48.71093" lon="1.68073">
        <ele>180.19999694824</ele>
        <time>2014-08-27T10:15:57.000Z</time>
      </trkpt>
      <trkpt lat="48.71086" lon="1.68074">
        <ele>180.39999389648</ele>
        <time>2014-08-27T10:16:05.000Z</time>
      </trkpt>
      <trkpt lat="48.71074" lon="1.68073">
        <ele>180.60000610352</ele>
        <time>2014-08-27T10:16:14.000Z</time>
      </trkpt>
      <trkpt lat="48.71065" lon="1.68071">
        <ele>181</ele>
        <time>2014-08-27T10:16:20.000Z</time>
      </trkpt>
      <trkpt lat="48.71057" lon="1.68069">
        <ele>181.19999694824</ele>
        <time>2014-08-27T10:16:25.000Z</time>
      </trkpt>
      <trkpt lat="48.71047" lon="1.68068">
        <ele>181.39999389648</ele>
        <time>2014-08-27T10:16:31.000Z</time>
      </trkpt>
      <trkpt lat="48.7104" lon="1.68068">
        <ele>181.39999389648</ele>
        <time>2014-08-27T10:16:36.000Z</time>
      </trkpt>
      <trkpt lat="48.71034" lon="1.68068">
        <ele>181.60000610352</ele>
        <time>2014-08-27T10:16:41.000Z</time>
      </trkpt>
      <trkpt lat="48.71027" lon="1.6807">
        <ele>181.80000305176</ele>
        <time>2014-08-27T10:16:45.000Z</time>
      </trkpt>
      <trkpt lat="48.71021" lon="1.68071">
        <ele>182</ele>
        <time>2014-08-27T10:16:49.000Z</time>
      </trkpt>
      <trkpt lat="48.7101" lon="1.68069">
        <ele>182.39999389648</ele>
        <time>2014-08-27T10:16:56.000Z</time>
      </trkpt>
      <trkpt lat="48.71001" lon="1.68067">
        <ele>182.80000305176</ele>
        <time>2014-08-27T10:17:02.000Z</time>
      </trkpt>
      <trkpt lat="48.71001" lon="1.68067">
        <ele>182.80000305176</ele>
        <time>2014-08-27T10:17:03.000Z</time>
      </trkpt>
      <trkpt lat="48.70999" lon="1.68067">
        <ele>182.80000305176</ele>
        <time>2014-08-27T10:17:06.000Z</time>
      </trkpt>
      <trkpt lat="48.70995" lon="1.68062">
        <ele>183.19999694824</ele>
        <time>2014-08-27T10:17:07.000Z</time>
      </trkpt>
      <trkpt lat="48.70986" lon="1.68051">
        <ele>183.60000610352</ele>
        <time>2014-08-27T10:17:12.000Z</time>
      </trkpt>
      <trkpt lat="48.7098" lon="1.68046">
        <ele>184</ele>
        <time>2014-08-27T10:17:15.000Z</time>
      </trkpt>
      <trkpt lat="48.70969" lon="1.68035">
        <ele>184.60000610352</ele>
        <time>2014-08-27T10:17:20.000Z</time>
      </trkpt>
      <trkpt lat="48.7097" lon="1.68024">
        <ele>185</ele>
        <time>2014-08-27T10:17:24.000Z</time>
      </trkpt>
      <trkpt lat="48.70975" lon="1.68015">
        <ele>184.39999389648</ele>
        <time>2014-08-27T10:17:29.000Z</time>
      </trkpt>
      <trkpt lat="48.70976" lon="1.68013">
        <ele>184.39999389648</ele>
        <time>2014-08-27T10:17:30.000Z</time>
      </trkpt>
      <trkpt lat="48.70975" lon="1.68004">
        <ele>184.19999694824</ele>
        <time>2014-08-27T10:17:35.000Z</time>
      </trkpt>
      <trkpt lat="48.70975" lon="1.67997">
        <ele>184</ele>
        <time>2014-08-27T10:17:39.000Z</time>
      </trkpt>
      <trkpt lat="48.7097" lon="1.67987">
        <ele>184.19999694824</ele>
        <time>2014-08-27T10:17:45.000Z</time>
      </trkpt>
      <trkpt lat="48.70966" lon="1.6798">
        <ele>184.39999389648</ele>
        <time>2014-08-27T10:17:49.000Z</time>
      </trkpt>
      <trkpt lat="48.70957" lon="1.67976">
        <ele>185</ele>
        <time>2014-08-27T10:17:55.000Z</time>
      </trkpt>
      <trkpt lat="48.70955" lon="1.67974">
        <ele>185.19999694824</ele>
        <time>2014-08-27T10:17:57.000Z</time>
      </trkpt>
      <trkpt lat="48.70945" lon="1.67971">
        <ele>186</ele>
        <time>2014-08-27T10:18:02.000Z</time>
      </trkpt>
      <trkpt lat="48.70938" lon="1.67968">
        <ele>186.39999389648</ele>
        <time>2014-08-27T10:18:06.000Z</time>
      </trkpt>
      <trkpt lat="48.70935" lon="1.67967">
        <ele>186.60000610352</ele>
        <time>2014-08-27T10:18:08.000Z</time>
      </trkpt>
      <trkpt lat="48.7093" lon="1.67961">
        <ele>186.60000610352</ele>
        <time>2014-08-27T10:18:14.000Z</time>
      </trkpt>
      <trkpt lat="48.7092" lon="1.67955">
        <ele>186.80000305176</ele>
        <time>2014-08-27T10:18:22.000Z</time>
      </trkpt>
      <trkpt lat="48.70906" lon="1.67951">
        <ele>187.19999694824</ele>
        <time>2014-08-27T10:18:33.000Z</time>
      </trkpt>
      <trkpt lat="48.70904" lon="1.6795">
        <ele>187.39999389648</ele>
        <time>2014-08-27T10:18:36.000Z</time>
      </trkpt>
      <trkpt lat="48.70894" lon="1.67946">
        <ele>187.60000610352</ele>
        <time>2014-08-27T10:18:40.000Z</time>
      </trkpt>
      <trkpt lat="48.70885" lon="1.67942">
        <ele>188</ele>
        <time>2014-08-27T10:18:45.000Z</time>
      </trkpt>
      <trkpt lat="48.70865" lon="1.67934">
        <ele>188.60000610352</ele>
        <time>2014-08-27T10:18:56.000Z</time>
      </trkpt>
      <trkpt lat="48.70862" lon="1.67931">
        <ele>188.60000610352</ele>
        <time>2014-08-27T10:19:00.000Z</time>
      </trkpt>
      <trkpt lat="48.70854" lon="1.67924">
        <ele>188.80000305176</ele>
        <time>2014-08-27T10:19:11.000Z</time>
      </trkpt>
      <trkpt lat="48.70845" lon="1.67918">
        <ele>188.80000305176</ele>
        <time>2014-08-27T10:19:17.000Z</time>
      </trkpt>
      <trkpt lat="48.70827" lon="1.67915">
        <ele>189</ele>
        <time>2014-08-27T10:19:23.000Z</time>
      </trkpt>
      <trkpt lat="48.70824" lon="1.67913">
        <ele>189</ele>
        <time>2014-08-27T10:19:27.000Z</time>
      </trkpt>
      <trkpt lat="48.70823" lon="1.67909">
        <ele>189</ele>
        <time>2014-08-27T10:19:31.000Z</time>
      </trkpt>
      <trkpt lat="48.70817" lon="1.67901">
        <ele>188.80000305176</ele>
        <time>2014-08-27T10:19:37.000Z</time>
      </trkpt>
      <trkpt lat="48.70803" lon="1.67896">
        <ele>189.19999694824</ele>
        <time>2014-08-27T10:19:43.000Z</time>
      </trkpt>
      <trkpt lat="48.70794" lon="1.67892">
        <ele>189.19999694824</ele>
        <time>2014-08-27T10:19:49.000Z</time>
      </trkpt>
      <trkpt lat="48.7079" lon="1.67889">
        <ele>189.39999389648</ele>
        <time>2014-08-27T10:19:55.000Z</time>
      </trkpt>
      <trkpt lat="48.70784" lon="1.67884">
        <ele>189.39999389648</ele>
        <time>2014-08-27T10:20:01.000Z</time>
      </trkpt>
      <trkpt lat="48.70781" lon="1.6788">
        <ele>189.39999389648</ele>
        <time>2014-08-27T10:20:05.000Z</time>
      </trkpt>
      <trkpt lat="48.70776" lon="1.67881">
        <ele>189.60000610352</ele>
        <time>2014-08-27T10:20:09.000Z</time>
      </trkpt>
      <trkpt lat="48.70771" lon="1.67877">
        <ele>189.60000610352</ele>
        <time>2014-08-27T10:20:14.000Z</time>
      </trkpt>
      <trkpt lat="48.70765" lon="1.67873">
        <ele>189.39999389648</ele>
        <time>2014-08-27T10:20:19.000Z</time>
      </trkpt>
      <trkpt lat="48.70758" lon="1.67866">
        <ele>189</ele>
        <time>2014-08-27T10:20:25.000Z</time>
      </trkpt>
      <trkpt lat="48.70752" lon="1.6786">
        <ele>188.60000610352</ele>
        <time>2014-08-27T10:20:30.000Z</time>
      </trkpt>
      <trkpt lat="48.70743" lon="1.67854">
        <ele>188</ele>
        <time>2014-08-27T10:20:37.000Z</time>
      </trkpt>
      <trkpt lat="48.70732" lon="1.67852">
        <ele>187.60000610352</ele>
        <time>2014-08-27T10:20:42.000Z</time>
      </trkpt>
      <trkpt lat="48.70717" lon="1.67847">
        <ele>186.80000305176</ele>
        <time>2014-08-27T10:20:49.000Z</time>
      </trkpt>
      <trkpt lat="48.70707" lon="1.67838">
        <ele>186.19999694824</ele>
        <time>2014-08-27T10:20:56.000Z</time>
      </trkpt>
      <trkpt lat="48.70697" lon="1.67832">
        <ele>185.60000610352</ele>
        <time>2014-08-27T10:21:03.000Z</time>
      </trkpt>
      <trkpt lat="48.7069" lon="1.67827">
        <ele>185.19999694824</ele>
        <time>2014-08-27T10:21:08.000Z</time>
      </trkpt>
      <trkpt lat="48.70686" lon="1.67824">
        <ele>185</ele>
        <time>2014-08-27T10:21:12.000Z</time>
      </trkpt>
      <trkpt lat="48.70681" lon="1.67821">
        <ele>184.80000305176</ele>
        <time>2014-08-27T10:21:16.000Z</time>
      </trkpt>
      <trkpt lat="48.70677" lon="1.67817">
        <ele>184.80000305176</ele>
        <time>2014-08-27T10:21:21.000Z</time>
      </trkpt>
      <trkpt lat="48.70676" lon="1.67816">
        <ele>184.80000305176</ele>
        <time>2014-08-27T10:21:24.000Z</time>
      </trkpt>
      <trkpt lat="48.70669" lon="1.67807">
        <ele>185.19999694824</ele>
        <time>2014-08-27T10:21:29.000Z</time>
      </trkpt>
      <trkpt lat="48.70667" lon="1.67806">
        <ele>185.19999694824</ele>
        <time>2014-08-27T10:21:31.000Z</time>
      </trkpt>
      <trkpt lat="48.70655" lon="1.67806">
        <ele>184.80000305176</ele>
        <time>2014-08-27T10:21:38.000Z</time>
      </trkpt>
      <trkpt lat="48.70636" lon="1.67804">
        <ele>184.60000610352</ele>
        <time>2014-08-27T10:21:45.000Z</time>
      </trkpt>
      <trkpt lat="48.70624" lon="1.678">
        <ele>184.39999389648</ele>
        <time>2014-08-27T10:21:51.000Z</time>
      </trkpt>
      <trkpt lat="48.70615" lon="1.67797">
        <ele>184.39999389648</ele>
        <time>2014-08-27T10:21:57.000Z</time>
      </trkpt>
      <trkpt lat="48.70609" lon="1.67792">
        <ele>184.39999389648</ele>
        <time>2014-08-27T10:22:02.000Z</time>
      </trkpt>
      <trkpt lat="48.70602" lon="1.67787">
        <ele>184.39999389648</ele>
        <time>2014-08-27T10:22:09.000Z</time>
      </trkpt>
      <trkpt lat="48.70594" lon="1.67781">
        <ele>184.39999389648</ele>
        <time>2014-08-27T10:22:14.000Z</time>
      </trkpt>
      <trkpt lat="48.70585" lon="1.67775">
        <ele>184.19999694824</ele>
        <time>2014-08-27T10:22:20.000Z</time>
      </trkpt>
      <trkpt lat="48.70581" lon="1.67773">
        <ele>184.19999694824</ele>
        <time>2014-08-27T10:22:22.000Z</time>
      </trkpt>
      <trkpt lat="48.70566" lon="1.6777">
        <ele>183.60000610352</ele>
        <time>2014-08-27T10:22:30.000Z</time>
      </trkpt>
      <trkpt lat="48.70564" lon="1.6777">
        <ele>183.39999389648</ele>
        <time>2014-08-27T10:22:31.000Z</time>
      </trkpt>
      <trkpt lat="48.70552" lon="1.67762">
        <ele>183.39999389648</ele>
        <time>2014-08-27T10:22:37.000Z</time>
      </trkpt>
      <trkpt lat="48.70551" lon="1.67761">
        <ele>183.19999694824</ele>
        <time>2014-08-27T10:22:38.000Z</time>
      </trkpt>
      <trkpt lat="48.7054" lon="1.67755">
        <ele>183</ele>
        <time>2014-08-27T10:22:47.000Z</time>
      </trkpt>
      <trkpt lat="48.70531" lon="1.67748">
        <ele>183</ele>
        <time>2014-08-27T10:22:53.000Z</time>
      </trkpt>
      <trkpt lat="48.70529" lon="1.67747">
        <ele>183</ele>
        <time>2014-08-27T10:22:54.000Z</time>
      </trkpt>
      <trkpt lat="48.70518" lon="1.67744">
        <ele>182.80000305176</ele>
        <time>2014-08-27T10:22:59.000Z</time>
      </trkpt>
      <trkpt lat="48.70506" lon="1.67737">
        <ele>183</ele>
        <time>2014-08-27T10:23:06.000Z</time>
      </trkpt>
      <trkpt lat="48.70498" lon="1.67731">
        <ele>183.19999694824</ele>
        <time>2014-08-27T10:23:11.000Z</time>
      </trkpt>
      <trkpt lat="48.70489" lon="1.67727">
        <ele>183.39999389648</ele>
        <time>2014-08-27T10:23:18.000Z</time>
      </trkpt>
      <trkpt lat="48.70482" lon="1.67719">
        <ele>183.60000610352</ele>
        <time>2014-08-27T10:23:24.000Z</time>
      </trkpt>
      <trkpt lat="48.70479" lon="1.67717">
        <ele>183.60000610352</ele>
        <time>2014-08-27T10:23:26.000Z</time>
      </trkpt>
      <trkpt lat="48.70475" lon="1.67714">
        <ele>183.80000305176</ele>
        <time>2014-08-27T10:23:29.000Z</time>
      </trkpt>
      <trkpt lat="48.7046" lon="1.67706">
        <ele>184</ele>
        <time>2014-08-27T10:23:37.000Z</time>
      </trkpt>
      <trkpt lat="48.7045" lon="1.677">
        <ele>184.39999389648</ele>
        <time>2014-08-27T10:23:44.000Z</time>
      </trkpt>
      <trkpt lat="48.7044" lon="1.67693">
        <ele>184.60000610352</ele>
        <time>2014-08-27T10:23:51.000Z</time>
      </trkpt>
      <trkpt lat="48.7043" lon="1.67688">
        <ele>184.80000305176</ele>
        <time>2014-08-27T10:23:59.000Z</time>
      </trkpt>
      <trkpt lat="48.7042" lon="1.6769">
        <ele>184.60000610352</ele>
        <time>2014-08-27T10:24:08.000Z</time>
      </trkpt>
      <trkpt lat="48.70414" lon="1.67683">
        <ele>185</ele>
        <time>2014-08-27T10:24:13.000Z</time>
      </trkpt>
      <trkpt lat="48.70405" lon="1.67674">
        <ele>185.19999694824</ele>
        <time>2014-08-27T10:24:19.000Z</time>
      </trkpt>
      <trkpt lat="48.70396" lon="1.67674">
        <ele>185.19999694824</ele>
        <time>2014-08-27T10:24:24.000Z</time>
      </trkpt>
      <trkpt lat="48.7039" lon="1.67668">
        <ele>185.39999389648</ele>
        <time>2014-08-27T10:24:28.000Z</time>
      </trkpt>
      <trkpt lat="48.70384" lon="1.67665">
        <ele>185.60000610352</ele>
        <time>2014-08-27T10:24:33.000Z</time>
      </trkpt>
      <trkpt lat="48.70383" lon="1.67665">
        <ele>185.60000610352</ele>
        <time>2014-08-27T10:24:34.000Z</time>
      </trkpt>
      <trkpt lat="48.70376" lon="1.67663">
        <ele>185.60000610352</ele>
        <time>2014-08-27T10:24:38.000Z</time>
      </trkpt>
      <trkpt lat="48.70367" lon="1.67659">
        <ele>185.80000305176</ele>
        <time>2014-08-27T10:24:43.000Z</time>
      </trkpt>
      <trkpt lat="48.70354" lon="1.67646">
        <ele>186</ele>
        <time>2014-08-27T10:24:52.000Z</time>
      </trkpt>
      <trkpt lat="48.70342" lon="1.67639">
        <ele>185</ele>
        <time>2014-08-27T10:24:59.000Z</time>
      </trkpt>
      <trkpt lat="48.70332" lon="1.67632">
        <ele>184.19999694824</ele>
        <time>2014-08-27T10:25:06.000Z</time>
      </trkpt>
      <trkpt lat="48.70321" lon="1.67622">
        <ele>183.39999389648</ele>
        <time>2014-08-27T10:25:13.000Z</time>
      </trkpt>
      <trkpt lat="48.70309" lon="1.67615">
        <ele>182.60000610352</ele>
        <time>2014-08-27T10:25:20.000Z</time>
      </trkpt>
      <trkpt lat="48.70299" lon="1.6761">
        <ele>182</ele>
        <time>2014-08-27T10:25:26.000Z</time>
      </trkpt>
      <trkpt lat="48.70289" lon="1.67608">
        <ele>181.39999389648</ele>
        <time>2014-08-27T10:25:32.000Z</time>
      </trkpt>
      <trkpt lat="48.70281" lon="1.67605">
        <ele>181</ele>
        <time>2014-08-27T10:25:37.000Z</time>
      </trkpt>
      <trkpt lat="48.70271" lon="1.67601">
        <ele>180.60000610352</ele>
        <time>2014-08-27T10:25:42.000Z</time>
      </trkpt>
      <trkpt lat="48.70259" lon="1.67595">
        <ele>179.60000610352</ele>
        <time>2014-08-27T10:25:49.000Z</time>
      </trkpt>
      <trkpt lat="48.7025" lon="1.67589">
        <ele>178.80000305176</ele>
        <time>2014-08-27T10:25:54.000Z</time>
      </trkpt>
      <trkpt lat="48.70237" lon="1.67585">
        <ele>177.80000305176</ele>
        <time>2014-08-27T10:26:00.000Z</time>
      </trkpt>
      <trkpt lat="48.70226" lon="1.6758">
        <ele>176.80000305176</ele>
        <time>2014-08-27T10:26:06.000Z</time>
      </trkpt>
      <trkpt lat="48.70218" lon="1.67573">
        <ele>176</ele>
        <time>2014-08-27T10:26:12.000Z</time>
      </trkpt>
      <trkpt lat="48.70213" lon="1.67573">
        <ele>175.80000305176</ele>
        <time>2014-08-27T10:26:16.000Z</time>
      </trkpt>
      <trkpt lat="48.70204" lon="1.67568">
        <ele>175</ele>
        <time>2014-08-27T10:26:22.000Z</time>
      </trkpt>
      <trkpt lat="48.70194" lon="1.67561">
        <ele>174</ele>
        <time>2014-08-27T10:26:28.000Z</time>
      </trkpt>
      <trkpt lat="48.70193" lon="1.6756">
        <ele>173.80000305176</ele>
        <time>2014-08-27T10:26:29.000Z</time>
      </trkpt>
      <trkpt lat="48.70186" lon="1.67561">
        <ele>173.39999389648</ele>
        <time>2014-08-27T10:26:35.000Z</time>
      </trkpt>
      <trkpt lat="48.70185" lon="1.67561">
        <ele>173.39999389648</ele>
        <time>2014-08-27T10:26:36.000Z</time>
      </trkpt>
      <trkpt lat="48.7018" lon="1.67557">
        <ele>173</ele>
        <time>2014-08-27T10:26:39.000Z</time>
      </trkpt>
      <trkpt lat="48.70171" lon="1.67552">
        <ele>172.19999694824</ele>
        <time>2014-08-27T10:26:44.000Z</time>
      </trkpt>
      <trkpt lat="48.7016" lon="1.67543">
        <ele>171</ele>
        <time>2014-08-27T10:26:51.000Z</time>
      </trkpt>
      <trkpt lat="48.7015" lon="1.67533">
        <ele>170</ele>
        <time>2014-08-27T10:26:57.000Z</time>
      </trkpt>
      <trkpt lat="48.70141" lon="1.67525">
        <ele>169</ele>
        <time>2014-08-27T10:27:03.000Z</time>
      </trkpt>
      <trkpt lat="48.70135" lon="1.67523">
        <ele>168.39999389648</ele>
        <time>2014-08-27T10:27:06.000Z</time>
      </trkpt>
      <trkpt lat="48.70125" lon="1.6752">
        <ele>167.39999389648</ele>
        <time>2014-08-27T10:27:12.000Z</time>
      </trkpt>
      <trkpt lat="48.70116" lon="1.67516">
        <ele>166.60000610352</ele>
        <time>2014-08-27T10:27:19.000Z</time>
      </trkpt>
      <trkpt lat="48.70106" lon="1.67514">
        <ele>165.60000610352</ele>
        <time>2014-08-27T10:27:25.000Z</time>
      </trkpt>
      <trkpt lat="48.701" lon="1.67514">
        <ele>165.19999694824</ele>
        <time>2014-08-27T10:27:29.000Z</time>
      </trkpt>
      <trkpt lat="48.70096" lon="1.67513">
        <ele>164.80000305176</ele>
        <time>2014-08-27T10:27:32.000Z</time>
      </trkpt>
      <trkpt lat="48.70084" lon="1.67514">
        <ele>164.19999694824</ele>
        <time>2014-08-27T10:27:38.000Z</time>
      </trkpt>
      <trkpt lat="48.70077" lon="1.67509">
        <ele>163.60000610352</ele>
        <time>2014-08-27T10:27:45.000Z</time>
      </trkpt>
      <trkpt lat="48.70074" lon="1.67508">
        <ele>163.39999389648</ele>
        <time>2014-08-27T10:27:49.000Z</time>
      </trkpt>
      <trkpt lat="48.70064" lon="1.67505">
        <ele>162.80000305176</ele>
        <time>2014-08-27T10:27:56.000Z</time>
      </trkpt>
      <trkpt lat="48.70059" lon="1.67501">
        <ele>162.60000610352</ele>
        <time>2014-08-27T10:28:01.000Z</time>
      </trkpt>
      <trkpt lat="48.70054" lon="1.675">
        <ele>162.19999694824</ele>
        <time>2014-08-27T10:28:07.000Z</time>
      </trkpt>
      <trkpt lat="48.70049" lon="1.67491">
        <ele>161.80000305176</ele>
        <time>2014-08-27T10:28:10.000Z</time>
      </trkpt>
      <trkpt lat="48.70039" lon="1.67483">
        <ele>161</ele>
        <time>2014-08-27T10:28:14.000Z</time>
      </trkpt>
      <trkpt lat="48.70028" lon="1.67477">
        <ele>160.19999694824</ele>
        <time>2014-08-27T10:28:19.000Z</time>
      </trkpt>
      <trkpt lat="48.70022" lon="1.67474">
        <ele>159.80000305176</ele>
        <time>2014-08-27T10:28:21.000Z</time>
      </trkpt>
      <trkpt lat="48.70003" lon="1.67463">
        <ele>158.19999694824</ele>
        <time>2014-08-27T10:28:27.000Z</time>
      </trkpt>
      <trkpt lat="48.69983" lon="1.67449">
        <ele>156.39999389648</ele>
        <time>2014-08-27T10:28:33.000Z</time>
      </trkpt>
      <trkpt lat="48.69954" lon="1.67438">
        <ele>153.39999389648</ele>
        <time>2014-08-27T10:28:40.000Z</time>
      </trkpt>
      <trkpt lat="48.69947" lon="1.67435">
        <ele>152.60000610352</ele>
        <time>2014-08-27T10:28:42.000Z</time>
      </trkpt>
      <trkpt lat="48.69934" lon="1.6743">
        <ele>151.60000610352</ele>
        <time>2014-08-27T10:28:46.000Z</time>
      </trkpt>
      <trkpt lat="48.6993" lon="1.67426">
        <ele>151.39999389648</ele>
        <time>2014-08-27T10:28:48.000Z</time>
      </trkpt>
      <trkpt lat="48.69911" lon="1.67419">
        <ele>150.19999694824</ele>
        <time>2014-08-27T10:28:55.000Z</time>
      </trkpt>
      <trkpt lat="48.69904" lon="1.67417">
        <ele>149.80000305176</ele>
        <time>2014-08-27T10:28:57.000Z</time>
      </trkpt>
      <trkpt lat="48.69883" lon="1.67402">
        <ele>148.80000305176</ele>
        <time>2014-08-27T10:29:03.000Z</time>
      </trkpt>
      <trkpt lat="48.69867" lon="1.67392">
        <ele>148.39999389648</ele>
        <time>2014-08-27T10:29:08.000Z</time>
      </trkpt>
      <trkpt lat="48.69848" lon="1.67384">
        <ele>148.19999694824</ele>
        <time>2014-08-27T10:29:13.000Z</time>
      </trkpt>
      <trkpt lat="48.69826" lon="1.67374">
        <ele>149</ele>
        <time>2014-08-27T10:29:19.000Z</time>
      </trkpt>
      <trkpt lat="48.69815" lon="1.67369">
        <ele>149.60000610352</ele>
        <time>2014-08-27T10:29:23.000Z</time>
      </trkpt>
      <trkpt lat="48.69808" lon="1.67359">
        <ele>150.19999694824</ele>
        <time>2014-08-27T10:29:28.000Z</time>
      </trkpt>
      <trkpt lat="48.69803" lon="1.67357">
        <ele>150.39999389648</ele>
        <time>2014-08-27T10:29:33.000Z</time>
      </trkpt>
      <trkpt lat="48.69796" lon="1.67349">
        <ele>151</ele>
        <time>2014-08-27T10:29:39.000Z</time>
      </trkpt>
      <trkpt lat="48.69791" lon="1.67345">
        <ele>151.39999389648</ele>
        <time>2014-08-27T10:29:45.000Z</time>
      </trkpt>
      <trkpt lat="48.69787" lon="1.67344">
        <ele>151.60000610352</ele>
        <time>2014-08-27T10:29:47.000Z</time>
      </trkpt>
      <trkpt lat="48.69781" lon="1.67339">
        <ele>151.80000305176</ele>
        <time>2014-08-27T10:29:51.000Z</time>
      </trkpt>
      <trkpt lat="48.69772" lon="1.67335">
        <ele>152.39999389648</ele>
        <time>2014-08-27T10:29:56.000Z</time>
      </trkpt>
      <trkpt lat="48.6977" lon="1.67335">
        <ele>152.39999389648</ele>
        <time>2014-08-27T10:29:58.000Z</time>
      </trkpt>
      <trkpt lat="48.6976" lon="1.67331">
        <ele>152.39999389648</ele>
        <time>2014-08-27T10:30:04.000Z</time>
      </trkpt>
      <trkpt lat="48.69751" lon="1.67326">
        <ele>152.39999389648</ele>
        <time>2014-08-27T10:30:09.000Z</time>
      </trkpt>
      <trkpt lat="48.69749" lon="1.67325">
        <ele>152.39999389648</ele>
        <time>2014-08-27T10:30:10.000Z</time>
      </trkpt>
      <trkpt lat="48.69736" lon="1.67317">
        <ele>152.19999694824</ele>
        <time>2014-08-27T10:30:17.000Z</time>
      </trkpt>
      <trkpt lat="48.69726" lon="1.67316">
        <ele>152</ele>
        <time>2014-08-27T10:30:24.000Z</time>
      </trkpt>
      <trkpt lat="48.69725" lon="1.67315">
        <ele>152</ele>
        <time>2014-08-27T10:30:25.000Z</time>
      </trkpt>
      <trkpt lat="48.69723" lon="1.67312">
        <ele>151.80000305176</ele>
        <time>2014-08-27T10:30:27.000Z</time>
      </trkpt>
      <trkpt lat="48.69718" lon="1.67308">
        <ele>151.80000305176</ele>
        <time>2014-08-27T10:30:31.000Z</time>
      </trkpt>
      <trkpt lat="48.69714" lon="1.67307">
        <ele>151.60000610352</ele>
        <time>2014-08-27T10:30:34.000Z</time>
      </trkpt>
      <trkpt lat="48.697" lon="1.67298">
        <ele>151.39999389648</ele>
        <time>2014-08-27T10:30:42.000Z</time>
      </trkpt>
      <trkpt lat="48.69694" lon="1.67295">
        <ele>151.19999694824</ele>
        <time>2014-08-27T10:30:46.000Z</time>
      </trkpt>
      <trkpt lat="48.69688" lon="1.67294">
        <ele>151</ele>
        <time>2014-08-27T10:30:49.000Z</time>
      </trkpt>
      <trkpt lat="48.69676" lon="1.67288">
        <ele>150.60000610352</ele>
        <time>2014-08-27T10:30:56.000Z</time>
      </trkpt>
      <trkpt lat="48.69675" lon="1.67286">
        <ele>150.60000610352</ele>
        <time>2014-08-27T10:30:57.000Z</time>
      </trkpt>
      <trkpt lat="48.69668" lon="1.67283">
        <ele>150.39999389648</ele>
        <time>2014-08-27T10:31:03.000Z</time>
      </trkpt>
      <trkpt lat="48.69659" lon="1.67283">
        <ele>150</ele>
        <time>2014-08-27T10:31:09.000Z</time>
      </trkpt>
      <trkpt lat="48.69646" lon="1.6728">
        <ele>149.60000610352</ele>
        <time>2014-08-27T10:31:16.000Z</time>
      </trkpt>
      <trkpt lat="48.69644" lon="1.6728">
        <ele>149.39999389648</ele>
        <time>2014-08-27T10:31:17.000Z</time>
      </trkpt>
      <trkpt lat="48.6964" lon="1.6728">
        <ele>149.39999389648</ele>
        <time>2014-08-27T10:31:19.000Z</time>
      </trkpt>
      <trkpt lat="48.69627" lon="1.6727">
        <ele>148.80000305176</ele>
        <time>2014-08-27T10:31:27.000Z</time>
      </trkpt>
      <trkpt lat="48.69623" lon="1.67266">
        <ele>148.80000305176</ele>
        <time>2014-08-27T10:31:30.000Z</time>
      </trkpt>
      <trkpt lat="48.69618" lon="1.6726">
        <ele>148.60000610352</ele>
        <time>2014-08-27T10:31:36.000Z</time>
      </trkpt>
      <trkpt lat="48.69613" lon="1.67256">
        <ele>148.39999389648</ele>
        <time>2014-08-27T10:31:41.000Z</time>
      </trkpt>
      <trkpt lat="48.69611" lon="1.67255">
        <ele>148.19999694824</ele>
        <time>2014-08-27T10:31:43.000Z</time>
      </trkpt>
      <trkpt lat="48.69604" lon="1.67254">
        <ele>148</ele>
        <time>2014-08-27T10:31:47.000Z</time>
      </trkpt>
      <trkpt lat="48.69593" lon="1.67251">
        <ele>147.80000305176</ele>
        <time>2014-08-27T10:31:53.000Z</time>
      </trkpt>
      <trkpt lat="48.69583" lon="1.67246">
        <ele>147.80000305176</ele>
        <time>2014-08-27T10:31:58.000Z</time>
      </trkpt>
      <trkpt lat="48.69567" lon="1.67242">
        <ele>147.60000610352</ele>
        <time>2014-08-27T10:32:03.000Z</time>
      </trkpt>
      <trkpt lat="48.69547" lon="1.67238">
        <ele>147.39999389648</ele>
        <time>2014-08-27T10:32:08.000Z</time>
      </trkpt>
      <trkpt lat="48.6953" lon="1.67233">
        <ele>147.19999694824</ele>
        <time>2014-08-27T10:32:13.000Z</time>
      </trkpt>
      <trkpt lat="48.69524" lon="1.67233">
        <ele>147</ele>
        <time>2014-08-27T10:32:15.000Z</time>
      </trkpt>
      <trkpt lat="48.69523" lon="1.67241">
        <ele>147</ele>
        <time>2014-08-27T10:32:20.000Z</time>
      </trkpt>
      <trkpt lat="48.69534" lon="1.67264">
        <ele>147.19999694824</ele>
        <time>2014-08-27T10:32:26.000Z</time>
      </trkpt>
      <trkpt lat="48.69549" lon="1.67285">
        <ele>147.39999389648</ele>
        <time>2014-08-27T10:32:31.000Z</time>
      </trkpt>
      <trkpt lat="48.69561" lon="1.67302">
        <ele>147.39999389648</ele>
        <time>2014-08-27T10:32:35.000Z</time>
      </trkpt>
      <trkpt lat="48.69575" lon="1.6733">
        <ele>147.60000610352</ele>
        <time>2014-08-27T10:32:41.000Z</time>
      </trkpt>
      <trkpt lat="48.69587" lon="1.67355">
        <ele>147.39999389648</ele>
        <time>2014-08-27T10:32:47.000Z</time>
      </trkpt>
      <trkpt lat="48.69593" lon="1.67375">
        <ele>147.19999694824</ele>
        <time>2014-08-27T10:32:52.000Z</time>
      </trkpt>
      <trkpt lat="48.69604" lon="1.67402">
        <ele>147</ele>
        <time>2014-08-27T10:32:58.000Z</time>
      </trkpt>
      <trkpt lat="48.69614" lon="1.6742">
        <ele>146.60000610352</ele>
        <time>2014-08-27T10:33:03.000Z</time>
      </trkpt>
      <trkpt lat="48.6962" lon="1.67443">
        <ele>145.80000305176</ele>
        <time>2014-08-27T10:33:09.000Z</time>
      </trkpt>
      <trkpt lat="48.69638" lon="1.67459">
        <ele>145.39999389648</ele>
        <time>2014-08-27T10:33:15.000Z</time>
      </trkpt>
      <trkpt lat="48.69647" lon="1.67474">
        <ele>145</ele>
        <time>2014-08-27T10:33:20.000Z</time>
      </trkpt>
      <trkpt lat="48.69656" lon="1.67503">
        <ele>144.60000610352</ele>
        <time>2014-08-27T10:33:27.000Z</time>
      </trkpt>
      <trkpt lat="48.69667" lon="1.67528">
        <ele>144.80000305176</ele>
        <time>2014-08-27T10:33:32.000Z</time>
      </trkpt>
      <trkpt lat="48.69674" lon="1.67557">
        <ele>144.80000305176</ele>
        <time>2014-08-27T10:33:37.000Z</time>
      </trkpt>
      <trkpt lat="48.69677" lon="1.67578">
        <ele>144.39999389648</ele>
        <time>2014-08-27T10:33:41.000Z</time>
      </trkpt>
      <trkpt lat="48.69681" lon="1.67608">
        <ele>144.19999694824</ele>
        <time>2014-08-27T10:33:47.000Z</time>
      </trkpt>
      <trkpt lat="48.69689" lon="1.67644">
        <ele>144.19999694824</ele>
        <time>2014-08-27T10:33:53.000Z</time>
      </trkpt>
      <trkpt lat="48.69692" lon="1.67666">
        <ele>144.39999389648</ele>
        <time>2014-08-27T10:33:57.000Z</time>
      </trkpt>
      <trkpt lat="48.69698" lon="1.67694">
        <ele>145</ele>
        <time>2014-08-27T10:34:02.000Z</time>
      </trkpt>
      <trkpt lat="48.69705" lon="1.67731">
        <ele>145.80000305176</ele>
        <time>2014-08-27T10:34:09.000Z</time>
      </trkpt>
      <trkpt lat="48.6971" lon="1.67756">
        <ele>145.80000305176</ele>
        <time>2014-08-27T10:34:14.000Z</time>
      </trkpt>
      <trkpt lat="48.69715" lon="1.67782">
        <ele>146</ele>
        <time>2014-08-27T10:34:19.000Z</time>
      </trkpt>
      <trkpt lat="48.69723" lon="1.67811">
        <ele>146.19999694824</ele>
        <time>2014-08-27T10:34:24.000Z</time>
      </trkpt>
      <trkpt lat="48.69722" lon="1.67837">
        <ele>146.19999694824</ele>
        <time>2014-08-27T10:34:29.000Z</time>
      </trkpt>
      <trkpt lat="48.69727" lon="1.67864">
        <ele>146.39999389648</ele>
        <time>2014-08-27T10:34:34.000Z</time>
      </trkpt>
      <trkpt lat="48.69734" lon="1.67899">
        <ele>146.60000610352</ele>
        <time>2014-08-27T10:34:40.000Z</time>
      </trkpt>
      <trkpt lat="48.69735" lon="1.67911">
        <ele>146.80000305176</ele>
        <time>2014-08-27T10:34:42.000Z</time>
      </trkpt>
      <trkpt lat="48.69741" lon="1.67953">
        <ele>147</ele>
        <time>2014-08-27T10:34:48.000Z</time>
      </trkpt>
      <trkpt lat="48.69743" lon="1.67971">
        <ele>147</ele>
        <time>2014-08-27T10:34:51.000Z</time>
      </trkpt>
      <trkpt lat="48.69748" lon="1.68002">
        <ele>146.80000305176</ele>
        <time>2014-08-27T10:34:57.000Z</time>
      </trkpt>
      <trkpt lat="48.69749" lon="1.68008">
        <ele>146.80000305176</ele>
        <time>2014-08-27T10:34:58.000Z</time>
      </trkpt>
      <trkpt lat="48.69757" lon="1.68043">
        <ele>146.19999694824</ele>
        <time>2014-08-27T10:35:04.000Z</time>
      </trkpt>
      <trkpt lat="48.69759" lon="1.6807">
        <ele>145.60000610352</ele>
        <time>2014-08-27T10:35:09.000Z</time>
      </trkpt>
      <trkpt lat="48.6976" lon="1.681">
        <ele>145.60000610352</ele>
        <time>2014-08-27T10:35:14.000Z</time>
      </trkpt>
      <trkpt lat="48.69758" lon="1.68131">
        <ele>145.60000610352</ele>
        <time>2014-08-27T10:35:19.000Z</time>
      </trkpt>
      <trkpt lat="48.69751" lon="1.68168">
        <ele>145.39999389648</ele>
        <time>2014-08-27T10:35:24.000Z</time>
      </trkpt>
      <trkpt lat="48.69751" lon="1.68242">
        <ele>147</ele>
        <time>2014-08-27T10:35:32.000Z</time>
      </trkpt>
      <trkpt lat="48.69751" lon="1.68271">
        <ele>146.60000610352</ele>
        <time>2014-08-27T10:35:35.000Z</time>
      </trkpt>
      <trkpt lat="48.69751" lon="1.68312">
        <ele>146.39999389648</ele>
        <time>2014-08-27T10:35:40.000Z</time>
      </trkpt>
      <trkpt lat="48.6975" lon="1.6832">
        <ele>146.60000610352</ele>
        <time>2014-08-27T10:35:41.000Z</time>
      </trkpt>
      <trkpt lat="48.69749" lon="1.68343">
        <ele>147</ele>
        <time>2014-08-27T10:35:44.000Z</time>
      </trkpt>
      <trkpt lat="48.69746" lon="1.68388">
        <ele>148</ele>
        <time>2014-08-27T10:35:51.000Z</time>
      </trkpt>
      <trkpt lat="48.69746" lon="1.68396">
        <ele>148.19999694824</ele>
        <time>2014-08-27T10:35:53.000Z</time>
      </trkpt>
      <trkpt lat="48.69751" lon="1.68414">
        <ele>148.60000610352</ele>
        <time>2014-08-27T10:35:59.000Z</time>
      </trkpt>
      <trkpt lat="48.69749" lon="1.68435">
        <ele>148.80000305176</ele>
        <time>2014-08-27T10:36:03.000Z</time>
      </trkpt>
      <trkpt lat="48.69748" lon="1.68461">
        <ele>149.19999694824</ele>
        <time>2014-08-27T10:36:07.000Z</time>
      </trkpt>
      <trkpt lat="48.69746" lon="1.68489">
        <ele>150</ele>
        <time>2014-08-27T10:36:12.000Z</time>
      </trkpt>
      <trkpt lat="48.69744" lon="1.68515">
        <ele>150</ele>
        <time>2014-08-27T10:36:17.000Z</time>
      </trkpt>
      <trkpt lat="48.69743" lon="1.68535">
        <ele>150</ele>
        <time>2014-08-27T10:36:22.000Z</time>
      </trkpt>
      <trkpt lat="48.69746" lon="1.68554">
        <ele>150.19999694824</ele>
        <time>2014-08-27T10:36:26.000Z</time>
      </trkpt>
      <trkpt lat="48.69742" lon="1.6858">
        <ele>150.39999389648</ele>
        <time>2014-08-27T10:36:31.000Z</time>
      </trkpt>
      <trkpt lat="48.6974" lon="1.68603">
        <ele>150</ele>
        <time>2014-08-27T10:36:36.000Z</time>
      </trkpt>
      <trkpt lat="48.69739" lon="1.68629">
        <ele>149.39999389648</ele>
        <time>2014-08-27T10:36:41.000Z</time>
      </trkpt>
      <trkpt lat="48.69735" lon="1.68654">
        <ele>148.80000305176</ele>
        <time>2014-08-27T10:36:46.000Z</time>
      </trkpt>
      <trkpt lat="48.69738" lon="1.68685">
        <ele>149.60000610352</ele>
        <time>2014-08-27T10:36:51.000Z</time>
      </trkpt>
      <trkpt lat="48.69738" lon="1.68714">
        <ele>150.39999389648</ele>
        <time>2014-08-27T10:36:56.000Z</time>
      </trkpt>
      <trkpt lat="48.69741" lon="1.68759">
        <ele>151</ele>
        <time>2014-08-27T10:37:03.000Z</time>
      </trkpt>
      <trkpt lat="48.69742" lon="1.68765">
        <ele>151</ele>
        <time>2014-08-27T10:37:04.000Z</time>
      </trkpt>
      <trkpt lat="48.69742" lon="1.68797">
        <ele>151</ele>
        <time>2014-08-27T10:37:10.000Z</time>
      </trkpt>
      <trkpt lat="48.69742" lon="1.68822">
        <ele>151.39999389648</ele>
        <time>2014-08-27T10:37:15.000Z</time>
      </trkpt>
      <trkpt lat="48.69744" lon="1.68839">
        <ele>151.60000610352</ele>
        <time>2014-08-27T10:37:19.000Z</time>
      </trkpt>
      <trkpt lat="48.69747" lon="1.68857">
        <ele>151.60000610352</ele>
        <time>2014-08-27T10:37:24.000Z</time>
      </trkpt>
      <trkpt lat="48.69751" lon="1.68866">
        <ele>151.39999389648</ele>
        <time>2014-08-27T10:37:28.000Z</time>
      </trkpt>
      <trkpt lat="48.69752" lon="1.68875">
        <ele>151.60000610352</ele>
        <time>2014-08-27T10:37:32.000Z</time>
      </trkpt>
      <trkpt lat="48.69752" lon="1.68883">
        <ele>151.60000610352</ele>
        <time>2014-08-27T10:37:35.000Z</time>
      </trkpt>
      <trkpt lat="48.69754" lon="1.68899">
        <ele>151.60000610352</ele>
        <time>2014-08-27T10:37:42.000Z</time>
      </trkpt>
      <trkpt lat="48.69752" lon="1.68912">
        <ele>151.80000305176</ele>
        <time>2014-08-27T10:37:48.000Z</time>
      </trkpt>
      <trkpt lat="48.69753" lon="1.68922">
        <ele>151.80000305176</ele>
        <time>2014-08-27T10:37:53.000Z</time>
      </trkpt>
      <trkpt lat="48.69752" lon="1.68934">
        <ele>152</ele>
        <time>2014-08-27T10:37:59.000Z</time>
      </trkpt>
      <trkpt lat="48.69752" lon="1.68951">
        <ele>152.19999694824</ele>
        <time>2014-08-27T10:38:06.000Z</time>
      </trkpt>
      <trkpt lat="48.69751" lon="1.68954">
        <ele>152.19999694824</ele>
        <time>2014-08-27T10:38:07.000Z</time>
      </trkpt>
      <trkpt lat="48.69752" lon="1.68964">
        <ele>152.39999389648</ele>
        <time>2014-08-27T10:38:11.000Z</time>
      </trkpt>
      <trkpt lat="48.69753" lon="1.68978">
        <ele>152.39999389648</ele>
        <time>2014-08-27T10:38:17.000Z</time>
      </trkpt>
      <trkpt lat="48.69756" lon="1.68992">
        <ele>152.60000610352</ele>
        <time>2014-08-27T10:38:23.000Z</time>
      </trkpt>
      <trkpt lat="48.69758" lon="1.69006">
        <ele>153</ele>
        <time>2014-08-27T10:38:29.000Z</time>
      </trkpt>
      <trkpt lat="48.69758" lon="1.69018">
        <ele>153.39999389648</ele>
        <time>2014-08-27T10:38:34.000Z</time>
      </trkpt>
      <trkpt lat="48.69757" lon="1.6902">
        <ele>153.60000610352</ele>
        <time>2014-08-27T10:38:35.000Z</time>
      </trkpt>
      <trkpt lat="48.69758" lon="1.69035">
        <ele>154</ele>
        <time>2014-08-27T10:38:41.000Z</time>
      </trkpt>
      <trkpt lat="48.69763" lon="1.69047">
        <ele>154.39999389648</ele>
        <time>2014-08-27T10:38:46.000Z</time>
      </trkpt>
      <trkpt lat="48.69765" lon="1.69065">
        <ele>155</ele>
        <time>2014-08-27T10:38:52.000Z</time>
      </trkpt>
      <trkpt lat="48.69765" lon="1.6908">
        <ele>155.19999694824</ele>
        <time>2014-08-27T10:38:58.000Z</time>
      </trkpt>
      <trkpt lat="48.69765" lon="1.69093">
        <ele>155.19999694824</ele>
        <time>2014-08-27T10:39:05.000Z</time>
      </trkpt>
      <trkpt lat="48.69765" lon="1.69097">
        <ele>155.39999389648</ele>
        <time>2014-08-27T10:39:07.000Z</time>
      </trkpt>
      <trkpt lat="48.69768" lon="1.69111">
        <ele>155.39999389648</ele>
        <time>2014-08-27T10:39:13.000Z</time>
      </trkpt>
      <trkpt lat="48.69767" lon="1.69121">
        <ele>155.60000610352</ele>
        <time>2014-08-27T10:39:17.000Z</time>
      </trkpt>
      <trkpt lat="48.6977" lon="1.69139">
        <ele>155.80000305176</ele>
        <time>2014-08-27T10:39:25.000Z</time>
      </trkpt>
      <trkpt lat="48.69769" lon="1.6915">
        <ele>156</ele>
        <time>2014-08-27T10:39:30.000Z</time>
      </trkpt>
      <trkpt lat="48.69767" lon="1.69173">
        <ele>156</ele>
        <time>2014-08-27T10:39:35.000Z</time>
      </trkpt>
      <trkpt lat="48.69776" lon="1.69202">
        <ele>156.19999694824</ele>
        <time>2014-08-27T10:39:40.000Z</time>
      </trkpt>
      <trkpt lat="48.6978" lon="1.69231">
        <ele>156.19999694824</ele>
        <time>2014-08-27T10:39:45.000Z</time>
      </trkpt>
      <trkpt lat="48.69785" lon="1.69249">
        <ele>156.60000610352</ele>
        <time>2014-08-27T10:39:48.000Z</time>
      </trkpt>
      <trkpt lat="48.69791" lon="1.69278">
        <ele>156.60000610352</ele>
        <time>2014-08-27T10:39:54.000Z</time>
      </trkpt>
      <trkpt lat="48.69795" lon="1.69302">
        <ele>156.39999389648</ele>
        <time>2014-08-27T10:39:59.000Z</time>
      </trkpt>
      <trkpt lat="48.69796" lon="1.69323">
        <ele>156.39999389648</ele>
        <time>2014-08-27T10:40:05.000Z</time>
      </trkpt>
      <trkpt lat="48.69799" lon="1.69336">
        <ele>157</ele>
        <time>2014-08-27T10:40:10.000Z</time>
      </trkpt>
      <trkpt lat="48.69802" lon="1.69341">
        <ele>157.19999694824</ele>
        <time>2014-08-27T10:40:13.000Z</time>
      </trkpt>
      <trkpt lat="48.69802" lon="1.69347">
        <ele>157.39999389648</ele>
        <time>2014-08-27T10:40:15.000Z</time>
      </trkpt>
      <trkpt lat="48.69803" lon="1.69358">
        <ele>157.80000305176</ele>
        <time>2014-08-27T10:40:19.000Z</time>
      </trkpt>
      <trkpt lat="48.69806" lon="1.69373">
        <ele>157.80000305176</ele>
        <time>2014-08-27T10:40:25.000Z</time>
      </trkpt>
      <trkpt lat="48.69811" lon="1.69387">
        <ele>158.19999694824</ele>
        <time>2014-08-27T10:40:32.000Z</time>
      </trkpt>
      <trkpt lat="48.69815" lon="1.69396">
        <ele>158.39999389648</ele>
        <time>2014-08-27T10:40:38.000Z</time>
      </trkpt>
      <trkpt lat="48.69819" lon="1.69406">
        <ele>158.80000305176</ele>
        <time>2014-08-27T10:40:42.000Z</time>
      </trkpt>
      <trkpt lat="48.6982" lon="1.69408">
        <ele>159</ele>
        <time>2014-08-27T10:40:44.000Z</time>
      </trkpt>
      <trkpt lat="48.69825" lon="1.69419">
        <ele>159.60000610352</ele>
        <time>2014-08-27T10:40:49.000Z</time>
      </trkpt>
      <trkpt lat="48.69828" lon="1.69437">
        <ele>160.39999389648</ele>
        <time>2014-08-27T10:40:55.000Z</time>
      </trkpt>
      <trkpt lat="48.6983" lon="1.69444">
        <ele>160.80000305176</ele>
        <time>2014-08-27T10:40:59.000Z</time>
      </trkpt>
      <trkpt lat="48.69837" lon="1.69452">
        <ele>161.60000610352</ele>
        <time>2014-08-27T10:41:04.000Z</time>
      </trkpt>
      <trkpt lat="48.69832" lon="1.6947">
        <ele>161.39999389648</ele>
        <time>2014-08-27T10:41:10.000Z</time>
      </trkpt>
      <trkpt lat="48.6983" lon="1.69474">
        <ele>161.19999694824</ele>
        <time>2014-08-27T10:41:13.000Z</time>
      </trkpt>
      <trkpt lat="48.69835" lon="1.69486">
        <ele>161.80000305176</ele>
        <time>2014-08-27T10:41:19.000Z</time>
      </trkpt>
      <trkpt lat="48.6984" lon="1.69497">
        <ele>162.19999694824</ele>
        <time>2014-08-27T10:41:25.000Z</time>
      </trkpt>
      <trkpt lat="48.69843" lon="1.6951">
        <ele>162.19999694824</ele>
        <time>2014-08-27T10:41:30.000Z</time>
      </trkpt>
      <trkpt lat="48.69843" lon="1.69527">
        <ele>161.80000305176</ele>
        <time>2014-08-27T10:41:36.000Z</time>
      </trkpt>
      <trkpt lat="48.69843" lon="1.69529">
        <ele>161.80000305176</ele>
        <time>2014-08-27T10:41:37.000Z</time>
      </trkpt>
      <trkpt lat="48.69849" lon="1.6954">
        <ele>162.19999694824</ele>
        <time>2014-08-27T10:41:43.000Z</time>
      </trkpt>
      <trkpt lat="48.6985" lon="1.69544">
        <ele>162.19999694824</ele>
        <time>2014-08-27T10:41:45.000Z</time>
      </trkpt>
      <trkpt lat="48.6985" lon="1.69559">
        <ele>161.80000305176</ele>
        <time>2014-08-27T10:41:51.000Z</time>
      </trkpt>
      <trkpt lat="48.69852" lon="1.69568">
        <ele>161.80000305176</ele>
        <time>2014-08-27T10:41:55.000Z</time>
      </trkpt>
      <trkpt lat="48.6986" lon="1.69581">
        <ele>162.19999694824</ele>
        <time>2014-08-27T10:42:02.000Z</time>
      </trkpt>
      <trkpt lat="48.6986" lon="1.69591">
        <ele>162</ele>
        <time>2014-08-27T10:42:06.000Z</time>
      </trkpt>
      <trkpt lat="48.69865" lon="1.6961">
        <ele>162</ele>
        <time>2014-08-27T10:42:13.000Z</time>
      </trkpt>
      <trkpt lat="48.69868" lon="1.69616">
        <ele>162</ele>
        <time>2014-08-27T10:42:17.000Z</time>
      </trkpt>
      <trkpt lat="48.69874" lon="1.69626">
        <ele>162</ele>
        <time>2014-08-27T10:42:23.000Z</time>
      </trkpt>
      <trkpt lat="48.69874" lon="1.69632">
        <ele>162</ele>
        <time>2014-08-27T10:42:26.000Z</time>
      </trkpt>
      <trkpt lat="48.69881" lon="1.69649">
        <ele>162</ele>
        <time>2014-08-27T10:42:34.000Z</time>
      </trkpt>
      <trkpt lat="48.69883" lon="1.6966">
        <ele>162.39999389648</ele>
        <time>2014-08-27T10:42:39.000Z</time>
      </trkpt>
      <trkpt lat="48.69883" lon="1.69664">
        <ele>162.60000610352</ele>
        <time>2014-08-27T10:42:41.000Z</time>
      </trkpt>
      <trkpt lat="48.69882" lon="1.69681">
        <ele>163.39999389648</ele>
        <time>2014-08-27T10:42:48.000Z</time>
      </trkpt>
      <trkpt lat="48.69885" lon="1.69692">
        <ele>164</ele>
        <time>2014-08-27T10:42:54.000Z</time>
      </trkpt>
      <trkpt lat="48.69892" lon="1.69701">
        <ele>164.60000610352</ele>
        <time>2014-08-27T10:42:59.000Z</time>
      </trkpt>
      <trkpt lat="48.69898" lon="1.69704">
        <ele>165</ele>
        <time>2014-08-27T10:43:02.000Z</time>
      </trkpt>
      <trkpt lat="48.69902" lon="1.69713">
        <ele>165.60000610352</ele>
        <time>2014-08-27T10:43:06.000Z</time>
      </trkpt>
      <trkpt lat="48.69904" lon="1.69722">
        <ele>166.19999694824</ele>
        <time>2014-08-27T10:43:09.000Z</time>
      </trkpt>
      <trkpt lat="48.69904" lon="1.69742">
        <ele>167.19999694824</ele>
        <time>2014-08-27T10:43:15.000Z</time>
      </trkpt>
      <trkpt lat="48.69905" lon="1.69747">
        <ele>167.39999389648</ele>
        <time>2014-08-27T10:43:17.000Z</time>
      </trkpt>
      <trkpt lat="48.69912" lon="1.69758">
        <ele>168.39999389648</ele>
        <time>2014-08-27T10:43:24.000Z</time>
      </trkpt>
      <trkpt lat="48.69916" lon="1.6977">
        <ele>169.19999694824</ele>
        <time>2014-08-27T10:43:29.000Z</time>
      </trkpt>
      <trkpt lat="48.69922" lon="1.69778">
        <ele>170</ele>
        <time>2014-08-27T10:43:33.000Z</time>
      </trkpt>
      <trkpt lat="48.69928" lon="1.69797">
        <ele>171.39999389648</ele>
        <time>2014-08-27T10:43:41.000Z</time>
      </trkpt>
      <trkpt lat="48.69928" lon="1.69809">
        <ele>172</ele>
        <time>2014-08-27T10:43:46.000Z</time>
      </trkpt>
      <trkpt lat="48.69934" lon="1.69814">
        <ele>172.60000610352</ele>
        <time>2014-08-27T10:43:50.000Z</time>
      </trkpt>
      <trkpt lat="48.69939" lon="1.69822">
        <ele>173</ele>
        <time>2014-08-27T10:43:54.000Z</time>
      </trkpt>
      <trkpt lat="48.69942" lon="1.69827">
        <ele>173.19999694824</ele>
        <time>2014-08-27T10:43:58.000Z</time>
      </trkpt>
      <trkpt lat="48.69949" lon="1.69834">
        <ele>173.39999389648</ele>
        <time>2014-08-27T10:44:04.000Z</time>
      </trkpt>
      <trkpt lat="48.6995" lon="1.69836">
        <ele>173.39999389648</ele>
        <time>2014-08-27T10:44:05.000Z</time>
      </trkpt>
      <trkpt lat="48.69948" lon="1.69855">
        <ele>174.19999694824</ele>
        <time>2014-08-27T10:44:11.000Z</time>
      </trkpt>
      <trkpt lat="48.69949" lon="1.69872">
        <ele>174.80000305176</ele>
        <time>2014-08-27T10:44:18.000Z</time>
      </trkpt>
      <trkpt lat="48.6995" lon="1.69875">
        <ele>174.80000305176</ele>
        <time>2014-08-27T10:44:19.000Z</time>
      </trkpt>
      <trkpt lat="48.69955" lon="1.69888">
        <ele>175.19999694824</ele>
        <time>2014-08-27T10:44:25.000Z</time>
      </trkpt>
      <trkpt lat="48.69959" lon="1.69896">
        <ele>175.39999389648</ele>
        <time>2014-08-27T10:44:29.000Z</time>
      </trkpt>
      <trkpt lat="48.69962" lon="1.69899">
        <ele>175.60000610352</ele>
        <time>2014-08-27T10:44:31.000Z</time>
      </trkpt>
      <trkpt lat="48.69963" lon="1.69911">
        <ele>175.80000305176</ele>
        <time>2014-08-27T10:44:36.000Z</time>
      </trkpt>
      <trkpt lat="48.69967" lon="1.69919">
        <ele>176</ele>
        <time>2014-08-27T10:44:42.000Z</time>
      </trkpt>
      <trkpt lat="48.69974" lon="1.69926">
        <ele>176</ele>
        <time>2014-08-27T10:44:46.000Z</time>
      </trkpt>
      <trkpt lat="48.69975" lon="1.6993">
        <ele>176.19999694824</ele>
        <time>2014-08-27T10:44:48.000Z</time>
      </trkpt>
      <trkpt lat="48.69978" lon="1.69938">
        <ele>176.39999389648</ele>
        <time>2014-08-27T10:44:52.000Z</time>
      </trkpt>
      <trkpt lat="48.69988" lon="1.69945">
        <ele>176.39999389648</ele>
        <time>2014-08-27T10:44:58.000Z</time>
      </trkpt>
      <trkpt lat="48.69995" lon="1.69952">
        <ele>176.39999389648</ele>
        <time>2014-08-27T10:45:03.000Z</time>
      </trkpt>
      <trkpt lat="48.70003" lon="1.69957">
        <ele>176.39999389648</ele>
        <time>2014-08-27T10:45:08.000Z</time>
      </trkpt>
      <trkpt lat="48.70008" lon="1.69961">
        <ele>176.60000610352</ele>
        <time>2014-08-27T10:45:12.000Z</time>
      </trkpt>
      <trkpt lat="48.70013" lon="1.69964">
        <ele>176.60000610352</ele>
        <time>2014-08-27T10:45:16.000Z</time>
      </trkpt>
      <trkpt lat="48.70022" lon="1.69968">
        <ele>176.60000610352</ele>
        <time>2014-08-27T10:45:21.000Z</time>
      </trkpt>
      <trkpt lat="48.70032" lon="1.69983">
        <ele>177.39999389648</ele>
        <time>2014-08-27T10:45:29.000Z</time>
      </trkpt>
      <trkpt lat="48.70036" lon="1.69993">
        <ele>177.80000305176</ele>
        <time>2014-08-27T10:45:33.000Z</time>
      </trkpt>
      <trkpt lat="48.7004" lon="1.70004">
        <ele>178</ele>
        <time>2014-08-27T10:45:40.000Z</time>
      </trkpt>
      <trkpt lat="48.7004" lon="1.70019">
        <ele>178.19999694824</ele>
        <time>2014-08-27T10:45:45.000Z</time>
      </trkpt>
      <trkpt lat="48.70044" lon="1.70036">
        <ele>178.39999389648</ele>
        <time>2014-08-27T10:45:52.000Z</time>
      </trkpt>
      <trkpt lat="48.70045" lon="1.70046">
        <ele>178.60000610352</ele>
        <time>2014-08-27T10:45:56.000Z</time>
      </trkpt>
      <trkpt lat="48.70051" lon="1.70056">
        <ele>179</ele>
        <time>2014-08-27T10:46:01.000Z</time>
      </trkpt>
      <trkpt lat="48.70055" lon="1.70061">
        <ele>179.19999694824</ele>
        <time>2014-08-27T10:46:04.000Z</time>
      </trkpt>
      <trkpt lat="48.70065" lon="1.70063">
        <ele>179.60000610352</ele>
        <time>2014-08-27T10:46:08.000Z</time>
      </trkpt>
      <trkpt lat="48.70069" lon="1.70063">
        <ele>179.60000610352</ele>
        <time>2014-08-27T10:46:10.000Z</time>
      </trkpt>
      <trkpt lat="48.70079" lon="1.70069">
        <ele>180.19999694824</ele>
        <time>2014-08-27T10:46:16.000Z</time>
      </trkpt>
      <trkpt lat="48.70085" lon="1.7008">
        <ele>180</ele>
        <time>2014-08-27T10:46:22.000Z</time>
      </trkpt>
      <trkpt lat="48.70092" lon="1.70088">
        <ele>180</ele>
        <time>2014-08-27T10:46:26.000Z</time>
      </trkpt>
      <trkpt lat="48.701" lon="1.70098">
        <ele>179.80000305176</ele>
        <time>2014-08-27T10:46:32.000Z</time>
      </trkpt>
      <trkpt lat="48.70102" lon="1.70104">
        <ele>179.80000305176</ele>
        <time>2014-08-27T10:46:36.000Z</time>
      </trkpt>
      <trkpt lat="48.70109" lon="1.70119">
        <ele>179.39999389648</ele>
        <time>2014-08-27T10:46:43.000Z</time>
      </trkpt>
      <trkpt lat="48.7011" lon="1.70131">
        <ele>178.80000305176</ele>
        <time>2014-08-27T10:46:48.000Z</time>
      </trkpt>
      <trkpt lat="48.70109" lon="1.70133">
        <ele>178.80000305176</ele>
        <time>2014-08-27T10:46:49.000Z</time>
      </trkpt>
      <trkpt lat="48.70114" lon="1.70147">
        <ele>178.39999389648</ele>
        <time>2014-08-27T10:46:56.000Z</time>
      </trkpt>
      <trkpt lat="48.70116" lon="1.70157">
        <ele>178</ele>
        <time>2014-08-27T10:47:01.000Z</time>
      </trkpt>
      <trkpt lat="48.70119" lon="1.70166">
        <ele>177.80000305176</ele>
        <time>2014-08-27T10:47:05.000Z</time>
      </trkpt>
      <trkpt lat="48.70119" lon="1.70168">
        <ele>177.80000305176</ele>
        <time>2014-08-27T10:47:06.000Z</time>
      </trkpt>
      <trkpt lat="48.70124" lon="1.70181">
        <ele>177.60000610352</ele>
        <time>2014-08-27T10:47:12.000Z</time>
      </trkpt>
      <trkpt lat="48.70129" lon="1.70187">
        <ele>177.60000610352</ele>
        <time>2014-08-27T10:47:15.000Z</time>
      </trkpt>
      <trkpt lat="48.70134" lon="1.70194">
        <ele>177.39999389648</ele>
        <time>2014-08-27T10:47:20.000Z</time>
      </trkpt>
      <trkpt lat="48.70136" lon="1.70196">
        <ele>177.39999389648</ele>
        <time>2014-08-27T10:47:21.000Z</time>
      </trkpt>
      <trkpt lat="48.70139" lon="1.70207">
        <ele>177.19999694824</ele>
        <time>2014-08-27T10:47:26.000Z</time>
      </trkpt>
      <trkpt lat="48.70147" lon="1.70217">
        <ele>177</ele>
        <time>2014-08-27T10:47:32.000Z</time>
      </trkpt>
      <trkpt lat="48.7015" lon="1.70231">
        <ele>176.60000610352</ele>
        <time>2014-08-27T10:47:38.000Z</time>
      </trkpt>
      <trkpt lat="48.70153" lon="1.7024">
        <ele>176.60000610352</ele>
        <time>2014-08-27T10:47:42.000Z</time>
      </trkpt>
      <trkpt lat="48.70166" lon="1.70248">
        <ele>176.80000305176</ele>
        <time>2014-08-27T10:47:48.000Z</time>
      </trkpt>
      <trkpt lat="48.70168" lon="1.70257">
        <ele>177</ele>
        <time>2014-08-27T10:47:52.000Z</time>
      </trkpt>
      <trkpt lat="48.70168" lon="1.7026">
        <ele>177</ele>
        <time>2014-08-27T10:47:53.000Z</time>
      </trkpt>
      <trkpt lat="48.70177" lon="1.70263">
        <ele>177.19999694824</ele>
        <time>2014-08-27T10:48:00.000Z</time>
      </trkpt>
      <trkpt lat="48.70187" lon="1.70263">
        <ele>177.39999389648</ele>
        <time>2014-08-27T10:48:13.000Z</time>
      </trkpt>
      <trkpt lat="48.70188" lon="1.70284">
        <ele>177.60000610352</ele>
        <time>2014-08-27T10:48:21.000Z</time>
      </trkpt>
      <trkpt lat="48.70191" lon="1.70289">
        <ele>177.80000305176</ele>
        <time>2014-08-27T10:48:24.000Z</time>
      </trkpt>
      <trkpt lat="48.70198" lon="1.70296">
        <ele>178.39999389648</ele>
        <time>2014-08-27T10:48:28.000Z</time>
      </trkpt>
      <trkpt lat="48.702" lon="1.7031">
        <ele>178.60000610352</ele>
        <time>2014-08-27T10:48:33.000Z</time>
      </trkpt>
      <trkpt lat="48.702" lon="1.70321">
        <ele>178.80000305176</ele>
        <time>2014-08-27T10:48:38.000Z</time>
      </trkpt>
      <trkpt lat="48.70201" lon="1.70324">
        <ele>178.80000305176</ele>
        <time>2014-08-27T10:48:40.000Z</time>
      </trkpt>
      <trkpt lat="48.70203" lon="1.70336">
        <ele>179.19999694824</ele>
        <time>2014-08-27T10:48:45.000Z</time>
      </trkpt>
      <trkpt lat="48.70207" lon="1.70344">
        <ele>179.39999389648</ele>
        <time>2014-08-27T10:48:51.000Z</time>
      </trkpt>
      <trkpt lat="48.70208" lon="1.70345">
        <ele>179.60000610352</ele>
        <time>2014-08-27T10:48:52.000Z</time>
      </trkpt>
      <trkpt lat="48.70211" lon="1.70367">
        <ele>180</ele>
        <time>2014-08-27T10:49:00.000Z</time>
      </trkpt>
      <trkpt lat="48.70213" lon="1.70383">
        <ele>180.39999389648</ele>
        <time>2014-08-27T10:49:07.000Z</time>
      </trkpt>
      <trkpt lat="48.70208" lon="1.70398">
        <ele>180.19999694824</ele>
        <time>2014-08-27T10:49:13.000Z</time>
      </trkpt>
      <trkpt lat="48.70204" lon="1.70413">
        <ele>179.80000305176</ele>
        <time>2014-08-27T10:49:19.000Z</time>
      </trkpt>
      <trkpt lat="48.70201" lon="1.70432">
        <ele>179.39999389648</ele>
        <time>2014-08-27T10:49:24.000Z</time>
      </trkpt>
      <trkpt lat="48.70197" lon="1.70449">
        <ele>179</ele>
        <time>2014-08-27T10:49:31.000Z</time>
      </trkpt>
      <trkpt lat="48.70192" lon="1.7046">
        <ele>178.60000610352</ele>
        <time>2014-08-27T10:49:37.000Z</time>
      </trkpt>
      <trkpt lat="48.7019" lon="1.70468">
        <ele>178.39999389648</ele>
        <time>2014-08-27T10:49:40.000Z</time>
      </trkpt>
      <trkpt lat="48.70189" lon="1.70481">
        <ele>178.19999694824</ele>
        <time>2014-08-27T10:49:46.000Z</time>
      </trkpt>
      <trkpt lat="48.70182" lon="1.70498">
        <ele>177.80000305176</ele>
        <time>2014-08-27T10:49:54.000Z</time>
      </trkpt>
      <trkpt lat="48.70178" lon="1.70509">
        <ele>177.60000610352</ele>
        <time>2014-08-27T10:49:59.000Z</time>
      </trkpt>
      <trkpt lat="48.70172" lon="1.70517">
        <ele>177.19999694824</ele>
        <time>2014-08-27T10:50:03.000Z</time>
      </trkpt>
      <trkpt lat="48.70171" lon="1.70528">
        <ele>177.19999694824</ele>
        <time>2014-08-27T10:50:08.000Z</time>
      </trkpt>
      <trkpt lat="48.70171" lon="1.70544">
        <ele>177</ele>
        <time>2014-08-27T10:50:16.000Z</time>
      </trkpt>
      <trkpt lat="48.70166" lon="1.70558">
        <ele>176.80000305176</ele>
        <time>2014-08-27T10:50:22.000Z</time>
      </trkpt>
      <trkpt lat="48.7016" lon="1.70576">
        <ele>177</ele>
        <time>2014-08-27T10:50:30.000Z</time>
      </trkpt>
      <trkpt lat="48.70155" lon="1.70591">
        <ele>177.19999694824</ele>
        <time>2014-08-27T10:50:37.000Z</time>
      </trkpt>
      <trkpt lat="48.70157" lon="1.70604">
        <ele>177.39999389648</ele>
        <time>2014-08-27T10:50:43.000Z</time>
      </trkpt>
      <trkpt lat="48.70156" lon="1.70617">
        <ele>177.60000610352</ele>
        <time>2014-08-27T10:50:49.000Z</time>
      </trkpt>
      <trkpt lat="48.70134" lon="1.70648">
        <ele>177.39999389648</ele>
        <time>2014-08-27T10:50:56.000Z</time>
      </trkpt>
      <trkpt lat="48.70127" lon="1.70664">
        <ele>177.60000610352</ele>
        <time>2014-08-27T10:51:01.000Z</time>
      </trkpt>
      <trkpt lat="48.70115" lon="1.70696">
        <ele>178</ele>
        <time>2014-08-27T10:51:07.000Z</time>
      </trkpt>
      <trkpt lat="48.701" lon="1.70735">
        <ele>177.80000305176</ele>
        <time>2014-08-27T10:51:14.000Z</time>
      </trkpt>
      <trkpt lat="48.70088" lon="1.7077">
        <ele>177.39999389648</ele>
        <time>2014-08-27T10:51:20.000Z</time>
      </trkpt>
      <trkpt lat="48.70072" lon="1.70821">
        <ele>178</ele>
        <time>2014-08-27T10:51:28.000Z</time>
      </trkpt>
      <trkpt lat="48.70062" lon="1.70862">
        <ele>177</ele>
        <time>2014-08-27T10:51:34.000Z</time>
      </trkpt>
      <trkpt lat="48.70058" lon="1.70874">
        <ele>177.19999694824</ele>
        <time>2014-08-27T10:51:36.000Z</time>
      </trkpt>
      <trkpt lat="48.70047" lon="1.7092">
        <ele>178</ele>
        <time>2014-08-27T10:51:43.000Z</time>
      </trkpt>
      <trkpt lat="48.70043" lon="1.70937">
        <ele>177.80000305176</ele>
        <time>2014-08-27T10:51:46.000Z</time>
      </trkpt>
      <trkpt lat="48.70038" lon="1.70959">
        <ele>177</ele>
        <time>2014-08-27T10:51:50.000Z</time>
      </trkpt>
      <trkpt lat="48.7003" lon="1.70989">
        <ele>176</ele>
        <time>2014-08-27T10:51:57.000Z</time>
      </trkpt>
      <trkpt lat="48.70016" lon="1.71025">
        <ele>176</ele>
        <time>2014-08-27T10:52:03.000Z</time>
      </trkpt>
      <trkpt lat="48.70004" lon="1.71069">
        <ele>175.39999389648</ele>
        <time>2014-08-27T10:52:09.000Z</time>
      </trkpt>
      <trkpt lat="48.69988" lon="1.71123">
        <ele>174.80000305176</ele>
        <time>2014-08-27T10:52:16.000Z</time>
      </trkpt>
      <trkpt lat="48.69972" lon="1.71178">
        <ele>174.80000305176</ele>
        <time>2014-08-27T10:52:22.000Z</time>
      </trkpt>
      <trkpt lat="48.69966" lon="1.71203">
        <ele>174.39999389648</ele>
        <time>2014-08-27T10:52:25.000Z</time>
      </trkpt>
      <trkpt lat="48.69953" lon="1.71253">
        <ele>174</ele>
        <time>2014-08-27T10:52:31.000Z</time>
      </trkpt>
      <trkpt lat="48.69949" lon="1.71266">
        <ele>174</ele>
        <time>2014-08-27T10:52:33.000Z</time>
      </trkpt>
      <trkpt lat="48.69941" lon="1.71293">
        <ele>174</ele>
        <time>2014-08-27T10:52:37.000Z</time>
      </trkpt>
      <trkpt lat="48.69925" lon="1.71342">
        <ele>173.19999694824</ele>
        <time>2014-08-27T10:52:43.000Z</time>
      </trkpt>
      <trkpt lat="48.6991" lon="1.7139">
        <ele>171.80000305176</ele>
        <time>2014-08-27T10:52:49.000Z</time>
      </trkpt>
      <trkpt lat="48.69899" lon="1.71424">
        <ele>172</ele>
        <time>2014-08-27T10:52:55.000Z</time>
      </trkpt>
      <trkpt lat="48.69896" lon="1.71436">
        <ele>172</ele>
        <time>2014-08-27T10:52:57.000Z</time>
      </trkpt>
      <trkpt lat="48.69893" lon="1.71451">
        <ele>172</ele>
        <time>2014-08-27T10:52:59.000Z</time>
      </trkpt>
      <trkpt lat="48.69891" lon="1.71463">
        <ele>172</ele>
        <time>2014-08-27T10:53:01.000Z</time>
      </trkpt>
      <trkpt lat="48.69885" lon="1.71486">
        <ele>172.19999694824</ele>
        <time>2014-08-27T10:53:06.000Z</time>
      </trkpt>
      <trkpt lat="48.69883" lon="1.71491">
        <ele>172.39999389648</ele>
        <time>2014-08-27T10:53:07.000Z</time>
      </trkpt>
      <trkpt lat="48.69874" lon="1.7152">
        <ele>173</ele>
        <time>2014-08-27T10:53:13.000Z</time>
      </trkpt>
      <trkpt lat="48.69867" lon="1.71547">
        <ele>173</ele>
        <time>2014-08-27T10:53:18.000Z</time>
      </trkpt>
      <trkpt lat="48.69858" lon="1.71581">
        <ele>172.80000305176</ele>
        <time>2014-08-27T10:53:23.000Z</time>
      </trkpt>
      <trkpt lat="48.69847" lon="1.71616">
        <ele>173</ele>
        <time>2014-08-27T10:53:28.000Z</time>
      </trkpt>
      <trkpt lat="48.6984" lon="1.71641">
        <ele>173.19999694824</ele>
        <time>2014-08-27T10:53:32.000Z</time>
      </trkpt>
      <trkpt lat="48.69835" lon="1.71657">
        <ele>173.39999389648</ele>
        <time>2014-08-27T10:53:37.000Z</time>
      </trkpt>
      <trkpt lat="48.69829" lon="1.71677">
        <ele>173.39999389648</ele>
        <time>2014-08-27T10:53:41.000Z</time>
      </trkpt>
      <trkpt lat="48.69828" lon="1.71702">
        <ele>173</ele>
        <time>2014-08-27T10:53:46.000Z</time>
      </trkpt>
      <trkpt lat="48.69824" lon="1.71718">
        <ele>173</ele>
        <time>2014-08-27T10:53:51.000Z</time>
      </trkpt>
      <trkpt lat="48.69826" lon="1.71726">
        <ele>172.80000305176</ele>
        <time>2014-08-27T10:53:54.000Z</time>
      </trkpt>
      <trkpt lat="48.69829" lon="1.71732">
        <ele>172.60000610352</ele>
        <time>2014-08-27T10:53:58.000Z</time>
      </trkpt>
      <trkpt lat="48.69838" lon="1.7173">
        <ele>172.39999389648</ele>
        <time>2014-08-27T10:54:04.000Z</time>
      </trkpt>
      <trkpt lat="48.69847" lon="1.71731">
        <ele>172.19999694824</ele>
        <time>2014-08-27T10:54:08.000Z</time>
      </trkpt>
      <trkpt lat="48.6986" lon="1.71743">
        <ele>171.80000305176</ele>
        <time>2014-08-27T10:54:12.000Z</time>
      </trkpt>
      <trkpt lat="48.69875" lon="1.71761">
        <ele>171.39999389648</ele>
        <time>2014-08-27T10:54:17.000Z</time>
      </trkpt>
      <trkpt lat="48.69885" lon="1.71773">
        <ele>171.19999694824</ele>
        <time>2014-08-27T10:54:20.000Z</time>
      </trkpt>
      <trkpt lat="48.69903" lon="1.71791">
        <ele>170.80000305176</ele>
        <time>2014-08-27T10:54:25.000Z</time>
      </trkpt>
      <trkpt lat="48.6991" lon="1.71798">
        <ele>170.60000610352</ele>
        <time>2014-08-27T10:54:27.000Z</time>
      </trkpt>
      <trkpt lat="48.69924" lon="1.71813">
        <ele>170.19999694824</ele>
        <time>2014-08-27T10:54:31.000Z</time>
      </trkpt>
      <trkpt lat="48.69946" lon="1.7183">
        <ele>170.19999694824</ele>
        <time>2014-08-27T10:54:37.000Z</time>
      </trkpt>
      <trkpt lat="48.69964" lon="1.71846">
        <ele>170.60000610352</ele>
        <time>2014-08-27T10:54:42.000Z</time>
      </trkpt>
      <trkpt lat="48.69973" lon="1.71858">
        <ele>170.80000305176</ele>
        <time>2014-08-27T10:54:45.000Z</time>
      </trkpt>
      <trkpt lat="48.69987" lon="1.71871">
        <ele>171.19999694824</ele>
        <time>2014-08-27T10:54:51.000Z</time>
      </trkpt>
      <trkpt lat="48.69998" lon="1.71877">
        <ele>171.39999389648</ele>
        <time>2014-08-27T10:54:56.000Z</time>
      </trkpt>
      <trkpt lat="48.70011" lon="1.71887">
        <ele>171.80000305176</ele>
        <time>2014-08-27T10:55:03.000Z</time>
      </trkpt>
      <trkpt lat="48.70021" lon="1.719">
        <ele>172</ele>
        <time>2014-08-27T10:55:07.000Z</time>
      </trkpt>
      <trkpt lat="48.70042" lon="1.71925">
        <ele>171.80000305176</ele>
        <time>2014-08-27T10:55:13.000Z</time>
      </trkpt>
      <trkpt lat="48.70049" lon="1.71932">
        <ele>171.60000610352</ele>
        <time>2014-08-27T10:55:15.000Z</time>
      </trkpt>
      <trkpt lat="48.70067" lon="1.7195">
        <ele>171.39999389648</ele>
        <time>2014-08-27T10:55:20.000Z</time>
      </trkpt>
      <trkpt lat="48.70076" lon="1.7196">
        <ele>171.39999389648</ele>
        <time>2014-08-27T10:55:23.000Z</time>
      </trkpt>
      <trkpt lat="48.70095" lon="1.71981">
        <ele>171</ele>
        <time>2014-08-27T10:55:29.000Z</time>
      </trkpt>
      <trkpt lat="48.70102" lon="1.71989">
        <ele>171</ele>
        <time>2014-08-27T10:55:31.000Z</time>
      </trkpt>
      <trkpt lat="48.70118" lon="1.72008">
        <ele>171.60000610352</ele>
        <time>2014-08-27T10:55:36.000Z</time>
      </trkpt>
      <trkpt lat="48.7013" lon="1.72019">
        <ele>172</ele>
        <time>2014-08-27T10:55:39.000Z</time>
      </trkpt>
      <trkpt lat="48.70145" lon="1.72034">
        <ele>172.60000610352</ele>
        <time>2014-08-27T10:55:43.000Z</time>
      </trkpt>
      <trkpt lat="48.70154" lon="1.72039">
        <ele>172.80000305176</ele>
        <time>2014-08-27T10:55:45.000Z</time>
      </trkpt>
      <trkpt lat="48.70176" lon="1.72056">
        <ele>173.60000610352</ele>
        <time>2014-08-27T10:55:50.000Z</time>
      </trkpt>
      <trkpt lat="48.7018" lon="1.72062">
        <ele>173.80000305176</ele>
        <time>2014-08-27T10:55:51.000Z</time>
      </trkpt>
      <trkpt lat="48.70194" lon="1.72075">
        <ele>174.80000305176</ele>
        <time>2014-08-27T10:55:55.000Z</time>
      </trkpt>
      <trkpt lat="48.702" lon="1.72084">
        <ele>175.60000610352</ele>
        <time>2014-08-27T10:55:58.000Z</time>
      </trkpt>
      <trkpt lat="48.70218" lon="1.721">
        <ele>177.60000610352</ele>
        <time>2014-08-27T10:56:04.000Z</time>
      </trkpt>
      <trkpt lat="48.70227" lon="1.72109">
        <ele>178.80000305176</ele>
        <time>2014-08-27T10:56:09.000Z</time>
      </trkpt>
      <trkpt lat="48.7023" lon="1.72109">
        <ele>179</ele>
        <time>2014-08-27T10:56:11.000Z</time>
      </trkpt>
      <trkpt lat="48.70236" lon="1.7211">
        <ele>179.60000610352</ele>
        <time>2014-08-27T10:56:14.000Z</time>
      </trkpt>
      <trkpt lat="48.70241" lon="1.72119">
        <ele>180.39999389648</ele>
        <time>2014-08-27T10:56:20.000Z</time>
      </trkpt>
      <trkpt lat="48.70249" lon="1.7213">
        <ele>181.39999389648</ele>
        <time>2014-08-27T10:56:27.000Z</time>
      </trkpt>
      <trkpt lat="48.70256" lon="1.72131">
        <ele>182</ele>
        <time>2014-08-27T10:56:31.000Z</time>
      </trkpt>
      <trkpt lat="48.70265" lon="1.72133">
        <ele>182.80000305176</ele>
        <time>2014-08-27T10:56:36.000Z</time>
      </trkpt>
      <trkpt lat="48.70273" lon="1.72141">
        <ele>183.60000610352</ele>
        <time>2014-08-27T10:56:42.000Z</time>
      </trkpt>
      <trkpt lat="48.70279" lon="1.72155">
        <ele>184.19999694824</ele>
        <time>2014-08-27T10:56:49.000Z</time>
      </trkpt>
      <trkpt lat="48.70285" lon="1.72171">
        <ele>184.39999389648</ele>
        <time>2014-08-27T10:56:56.000Z</time>
      </trkpt>
      <trkpt lat="48.70287" lon="1.72179">
        <ele>184.60000610352</ele>
        <time>2014-08-27T10:56:59.000Z</time>
      </trkpt>
      <trkpt lat="48.70285" lon="1.72197">
        <ele>184.60000610352</ele>
        <time>2014-08-27T10:57:03.000Z</time>
      </trkpt>
      <trkpt lat="48.70282" lon="1.72212">
        <ele>184.80000305176</ele>
        <time>2014-08-27T10:57:09.000Z</time>
      </trkpt>
      <trkpt lat="48.70282" lon="1.72214">
        <ele>184.80000305176</ele>
        <time>2014-08-27T10:57:10.000Z</time>
      </trkpt>
      <trkpt lat="48.70278" lon="1.72237">
        <ele>185</ele>
        <time>2014-08-27T10:57:17.000Z</time>
      </trkpt>
      <trkpt lat="48.70278" lon="1.72241">
        <ele>185</ele>
        <time>2014-08-27T10:57:19.000Z</time>
      </trkpt>
      <trkpt lat="48.70274" lon="1.72262">
        <ele>185</ele>
        <time>2014-08-27T10:57:26.000Z</time>
      </trkpt>
      <trkpt lat="48.70267" lon="1.72277">
        <ele>184.80000305176</ele>
        <time>2014-08-27T10:57:32.000Z</time>
      </trkpt>
      <trkpt lat="48.70267" lon="1.72279">
        <ele>184.80000305176</ele>
        <time>2014-08-27T10:57:35.000Z</time>
      </trkpt>
      <trkpt lat="48.70266" lon="1.72284">
        <ele>184.60000610352</ele>
        <time>2014-08-27T10:57:37.000Z</time>
      </trkpt>
      <trkpt lat="48.70262" lon="1.72298">
        <ele>184.39999389648</ele>
        <time>2014-08-27T10:57:44.000Z</time>
      </trkpt>
      <trkpt lat="48.70261" lon="1.72302">
        <ele>184.19999694824</ele>
        <time>2014-08-27T10:57:46.000Z</time>
      </trkpt>
      <trkpt lat="48.70258" lon="1.72312">
        <ele>184.19999694824</ele>
        <time>2014-08-27T10:57:52.000Z</time>
      </trkpt>
      <trkpt lat="48.70257" lon="1.72314">
        <ele>184.39999389648</ele>
        <time>2014-08-27T10:57:53.000Z</time>
      </trkpt>
      <trkpt lat="48.7025" lon="1.72325">
        <ele>184.39999389648</ele>
        <time>2014-08-27T10:58:00.000Z</time>
      </trkpt>
      <trkpt lat="48.7025" lon="1.72327">
        <ele>184.19999694824</ele>
        <time>2014-08-27T10:58:01.000Z</time>
      </trkpt>
      <trkpt lat="48.70246" lon="1.72341">
        <ele>183.60000610352</ele>
        <time>2014-08-27T10:58:08.000Z</time>
      </trkpt>
      <trkpt lat="48.70241" lon="1.72361">
        <ele>182.80000305176</ele>
        <time>2014-08-27T10:58:15.000Z</time>
      </trkpt>
      <trkpt lat="48.70241" lon="1.72375">
        <ele>182.39999389648</ele>
        <time>2014-08-27T10:58:21.000Z</time>
      </trkpt>
      <trkpt lat="48.70237" lon="1.72391">
        <ele>183.19999694824</ele>
        <time>2014-08-27T10:58:27.000Z</time>
      </trkpt>
      <trkpt lat="48.70235" lon="1.72402">
        <ele>183.60000610352</ele>
        <time>2014-08-27T10:58:32.000Z</time>
      </trkpt>
      <trkpt lat="48.70233" lon="1.72414">
        <ele>183.39999389648</ele>
        <time>2014-08-27T10:58:36.000Z</time>
      </trkpt>
      <trkpt lat="48.70234" lon="1.72429">
        <ele>182.80000305176</ele>
        <time>2014-08-27T10:58:42.000Z</time>
      </trkpt>
      <trkpt lat="48.70227" lon="1.72444">
        <ele>182.60000610352</ele>
        <time>2014-08-27T10:58:49.000Z</time>
      </trkpt>
      <trkpt lat="48.70222" lon="1.72458">
        <ele>182.80000305176</ele>
        <time>2014-08-27T10:58:55.000Z</time>
      </trkpt>
      <trkpt lat="48.70222" lon="1.72464">
        <ele>182.80000305176</ele>
        <time>2014-08-27T10:58:58.000Z</time>
      </trkpt>
      <trkpt lat="48.70223" lon="1.7247">
        <ele>182.60000610352</ele>
        <time>2014-08-27T10:59:04.000Z</time>
      </trkpt>
      <trkpt lat="48.70222" lon="1.7248">
        <ele>182.60000610352</ele>
        <time>2014-08-27T10:59:08.000Z</time>
      </trkpt>
      <trkpt lat="48.70214" lon="1.72496">
        <ele>182.80000305176</ele>
        <time>2014-08-27T10:59:14.000Z</time>
      </trkpt>
      <trkpt lat="48.70211" lon="1.72513">
        <ele>182.60000610352</ele>
        <time>2014-08-27T10:59:20.000Z</time>
      </trkpt>
      <trkpt lat="48.70211" lon="1.72515">
        <ele>182.60000610352</ele>
        <time>2014-08-27T10:59:21.000Z</time>
      </trkpt>
      <trkpt lat="48.70212" lon="1.72521">
        <ele>182.39999389648</ele>
        <time>2014-08-27T10:59:25.000Z</time>
      </trkpt>
      <trkpt lat="48.70209" lon="1.72537">
        <ele>182.60000610352</ele>
        <time>2014-08-27T10:59:31.000Z</time>
      </trkpt>
      <trkpt lat="48.70204" lon="1.72559">
        <ele>182.60000610352</ele>
        <time>2014-08-27T10:59:38.000Z</time>
      </trkpt>
      <trkpt lat="48.702" lon="1.72576">
        <ele>182.80000305176</ele>
        <time>2014-08-27T10:59:45.000Z</time>
      </trkpt>
      <trkpt lat="48.70197" lon="1.72591">
        <ele>182.60000610352</ele>
        <time>2014-08-27T10:59:52.000Z</time>
      </trkpt>
      <trkpt lat="48.70195" lon="1.72603">
        <ele>182</ele>
        <time>2014-08-27T10:59:58.000Z</time>
      </trkpt>
      <trkpt lat="48.70191" lon="1.7262">
        <ele>181.39999389648</ele>
        <time>2014-08-27T11:00:04.000Z</time>
      </trkpt>
      <trkpt lat="48.70186" lon="1.72639">
        <ele>180.60000610352</ele>
        <time>2014-08-27T11:00:11.000Z</time>
      </trkpt>
      <trkpt lat="48.70185" lon="1.72648">
        <ele>180.19999694824</ele>
        <time>2014-08-27T11:00:15.000Z</time>
      </trkpt>
      <trkpt lat="48.70181" lon="1.72663">
        <ele>179.39999389648</ele>
        <time>2014-08-27T11:00:21.000Z</time>
      </trkpt>
      <trkpt lat="48.70177" lon="1.72684">
        <ele>178.39999389648</ele>
        <time>2014-08-27T11:00:26.000Z</time>
      </trkpt>
      <trkpt lat="48.70172" lon="1.72706">
        <ele>177.39999389648</ele>
        <time>2014-08-27T11:00:31.000Z</time>
      </trkpt>
      <trkpt lat="48.70166" lon="1.72727">
        <ele>177</ele>
        <time>2014-08-27T11:00:36.000Z</time>
      </trkpt>
      <trkpt lat="48.70155" lon="1.72764">
        <ele>177.60000610352</ele>
        <time>2014-08-27T11:00:43.000Z</time>
      </trkpt>
      <trkpt lat="48.70139" lon="1.72806">
        <ele>178.39999389648</ele>
        <time>2014-08-27T11:00:50.000Z</time>
      </trkpt>
      <trkpt lat="48.70136" lon="1.72818">
        <ele>178.60000610352</ele>
        <time>2014-08-27T11:00:52.000Z</time>
      </trkpt>
      <trkpt lat="48.70131" lon="1.72836">
        <ele>178.60000610352</ele>
        <time>2014-08-27T11:00:56.000Z</time>
      </trkpt>
      <trkpt lat="48.70129" lon="1.72842">
        <ele>178.60000610352</ele>
        <time>2014-08-27T11:00:59.000Z</time>
      </trkpt>
      <trkpt lat="48.70123" lon="1.72856">
        <ele>178.80000305176</ele>
        <time>2014-08-27T11:01:05.000Z</time>
      </trkpt>
      <trkpt lat="48.70117" lon="1.7287">
        <ele>178.80000305176</ele>
        <time>2014-08-27T11:01:12.000Z</time>
      </trkpt>
      <trkpt lat="48.70116" lon="1.72881">
        <ele>178.60000610352</ele>
        <time>2014-08-27T11:01:15.000Z</time>
      </trkpt>
      <trkpt lat="48.70111" lon="1.72899">
        <ele>178.60000610352</ele>
        <time>2014-08-27T11:01:22.000Z</time>
      </trkpt>
      <trkpt lat="48.70107" lon="1.72908">
        <ele>178.80000305176</ele>
        <time>2014-08-27T11:01:28.000Z</time>
      </trkpt>
      <trkpt lat="48.70104" lon="1.72918">
        <ele>179.19999694824</ele>
        <time>2014-08-27T11:01:34.000Z</time>
      </trkpt>
      <trkpt lat="48.70098" lon="1.72938">
        <ele>179.80000305176</ele>
        <time>2014-08-27T11:01:43.000Z</time>
      </trkpt>
      <trkpt lat="48.70097" lon="1.72942">
        <ele>180</ele>
        <time>2014-08-27T11:01:45.000Z</time>
      </trkpt>
      <trkpt lat="48.7009" lon="1.72958">
        <ele>180.60000610352</ele>
        <time>2014-08-27T11:01:52.000Z</time>
      </trkpt>
      <trkpt lat="48.70085" lon="1.72972">
        <ele>181.19999694824</ele>
        <time>2014-08-27T11:01:59.000Z</time>
      </trkpt>
      <trkpt lat="48.70081" lon="1.72988">
        <ele>182.19999694824</ele>
        <time>2014-08-27T11:02:05.000Z</time>
      </trkpt>
      <trkpt lat="48.70078" lon="1.73">
        <ele>182.60000610352</ele>
        <time>2014-08-27T11:02:09.000Z</time>
      </trkpt>
      <trkpt lat="48.70076" lon="1.73012">
        <ele>182.80000305176</ele>
        <time>2014-08-27T11:02:14.000Z</time>
      </trkpt>
      <trkpt lat="48.70074" lon="1.73023">
        <ele>183.19999694824</ele>
        <time>2014-08-27T11:02:19.000Z</time>
      </trkpt>
      <trkpt lat="48.70071" lon="1.73028">
        <ele>183.60000610352</ele>
        <time>2014-08-27T11:02:23.000Z</time>
      </trkpt>
      <trkpt lat="48.70066" lon="1.73042">
        <ele>184</ele>
        <time>2014-08-27T11:02:30.000Z</time>
      </trkpt>
      <trkpt lat="48.70065" lon="1.73049">
        <ele>183.80000305176</ele>
        <time>2014-08-27T11:02:34.000Z</time>
      </trkpt>
      <trkpt lat="48.70059" lon="1.73061">
        <ele>183.80000305176</ele>
        <time>2014-08-27T11:02:39.000Z</time>
      </trkpt>
      <trkpt lat="48.70048" lon="1.73094">
        <ele>184.39999389648</ele>
        <time>2014-08-27T11:02:45.000Z</time>
      </trkpt>
      <trkpt lat="48.70037" lon="1.73123">
        <ele>183.80000305176</ele>
        <time>2014-08-27T11:02:51.000Z</time>
      </trkpt>
      <trkpt lat="48.7003" lon="1.73152">
        <ele>182.80000305176</ele>
        <time>2014-08-27T11:02:55.000Z</time>
      </trkpt>
      <trkpt lat="48.70026" lon="1.73161">
        <ele>182.80000305176</ele>
        <time>2014-08-27T11:02:57.000Z</time>
      </trkpt>
      <trkpt lat="48.70018" lon="1.73181">
        <ele>181.19999694824</ele>
        <time>2014-08-27T11:03:01.000Z</time>
      </trkpt>
      <trkpt lat="48.70014" lon="1.73191">
        <ele>180.39999389648</ele>
        <time>2014-08-27T11:03:03.000Z</time>
      </trkpt>
      <trkpt lat="48.7" lon="1.73224">
        <ele>177.80000305176</ele>
        <time>2014-08-27T11:03:10.000Z</time>
      </trkpt>
      <trkpt lat="48.69991" lon="1.73242">
        <ele>177</ele>
        <time>2014-08-27T11:03:14.000Z</time>
      </trkpt>
      <trkpt lat="48.69978" lon="1.73262">
        <ele>176.80000305176</ele>
        <time>2014-08-27T11:03:20.000Z</time>
      </trkpt>
      <trkpt lat="48.69968" lon="1.73278">
        <ele>176.80000305176</ele>
        <time>2014-08-27T11:03:25.000Z</time>
      </trkpt>
      <trkpt lat="48.69955" lon="1.73302">
        <ele>177</ele>
        <time>2014-08-27T11:03:31.000Z</time>
      </trkpt>
      <trkpt lat="48.69941" lon="1.7333">
        <ele>177.19999694824</ele>
        <time>2014-08-27T11:03:37.000Z</time>
      </trkpt>
      <trkpt lat="48.69927" lon="1.73355">
        <ele>178</ele>
        <time>2014-08-27T11:03:43.000Z</time>
      </trkpt>
      <trkpt lat="48.69916" lon="1.73379">
        <ele>178.60000610352</ele>
        <time>2014-08-27T11:03:48.000Z</time>
      </trkpt>
      <trkpt lat="48.69904" lon="1.734">
        <ele>179</ele>
        <time>2014-08-27T11:03:53.000Z</time>
      </trkpt>
      <trkpt lat="48.69891" lon="1.73424">
        <ele>178.19999694824</ele>
        <time>2014-08-27T11:03:59.000Z</time>
      </trkpt>
      <trkpt lat="48.6988" lon="1.73446">
        <ele>178</ele>
        <time>2014-08-27T11:04:04.000Z</time>
      </trkpt>
      <trkpt lat="48.6987" lon="1.73468">
        <ele>178.39999389648</ele>
        <time>2014-08-27T11:04:09.000Z</time>
      </trkpt>
      <trkpt lat="48.69857" lon="1.73493">
        <ele>178.80000305176</ele>
        <time>2014-08-27T11:04:15.000Z</time>
      </trkpt>
      <trkpt lat="48.69844" lon="1.73517">
        <ele>179.19999694824</ele>
        <time>2014-08-27T11:04:21.000Z</time>
      </trkpt>
      <trkpt lat="48.69831" lon="1.73544">
        <ele>179.60000610352</ele>
        <time>2014-08-27T11:04:26.000Z</time>
      </trkpt>
      <trkpt lat="48.69823" lon="1.73565">
        <ele>179.39999389648</ele>
        <time>2014-08-27T11:04:30.000Z</time>
      </trkpt>
      <trkpt lat="48.69818" lon="1.73576">
        <ele>179.39999389648</ele>
        <time>2014-08-27T11:04:32.000Z</time>
      </trkpt>
      <trkpt lat="48.69813" lon="1.7359">
        <ele>179.39999389648</ele>
        <time>2014-08-27T11:04:34.000Z</time>
      </trkpt>
      <trkpt lat="48.69799" lon="1.73617">
        <ele>179.60000610352</ele>
        <time>2014-08-27T11:04:39.000Z</time>
      </trkpt>
      <trkpt lat="48.69784" lon="1.73642">
        <ele>179.80000305176</ele>
        <time>2014-08-27T11:04:46.000Z</time>
      </trkpt>
      <trkpt lat="48.69776" lon="1.73655">
        <ele>180</ele>
        <time>2014-08-27T11:04:51.000Z</time>
      </trkpt>
      <trkpt lat="48.69771" lon="1.73669">
        <ele>179.39999389648</ele>
        <time>2014-08-27T11:04:57.000Z</time>
      </trkpt>
      <trkpt lat="48.69766" lon="1.73684">
        <ele>179</ele>
        <time>2014-08-27T11:05:04.000Z</time>
      </trkpt>
      <trkpt lat="48.6976" lon="1.73699">
        <ele>178.39999389648</ele>
        <time>2014-08-27T11:05:11.000Z</time>
      </trkpt>
      <trkpt lat="48.69761" lon="1.73701">
        <ele>178.39999389648</ele>
        <time>2014-08-27T11:05:17.000Z</time>
      </trkpt>
      <trkpt lat="48.69758" lon="1.73704">
        <ele>178.19999694824</ele>
        <time>2014-08-27T11:05:22.000Z</time>
      </trkpt>
      <trkpt lat="48.69755" lon="1.73712">
        <ele>178</ele>
        <time>2014-08-27T11:05:27.000Z</time>
      </trkpt>
      <trkpt lat="48.69754" lon="1.73713">
        <ele>177.80000305176</ele>
        <time>2014-08-27T11:05:28.000Z</time>
      </trkpt>
      <trkpt lat="48.69748" lon="1.73728">
        <ele>177.60000610352</ele>
        <time>2014-08-27T11:05:34.000Z</time>
      </trkpt>
      <trkpt lat="48.69742" lon="1.73735">
        <ele>177.60000610352</ele>
        <time>2014-08-27T11:05:39.000Z</time>
      </trkpt>
      <trkpt lat="48.69739" lon="1.73742">
        <ele>177.60000610352</ele>
        <time>2014-08-27T11:05:44.000Z</time>
      </trkpt>
      <trkpt lat="48.6973" lon="1.73763">
        <ele>177.39999389648</ele>
        <time>2014-08-27T11:05:51.000Z</time>
      </trkpt>
      <trkpt lat="48.69723" lon="1.73775">
        <ele>177.19999694824</ele>
        <time>2014-08-27T11:05:58.000Z</time>
      </trkpt>
      <trkpt lat="48.69717" lon="1.73786">
        <ele>177.19999694824</ele>
        <time>2014-08-27T11:06:04.000Z</time>
      </trkpt>
      <trkpt lat="48.69712" lon="1.73794">
        <ele>177</ele>
        <time>2014-08-27T11:06:10.000Z</time>
      </trkpt>
      <trkpt lat="48.69703" lon="1.73814">
        <ele>176.80000305176</ele>
        <time>2014-08-27T11:06:18.000Z</time>
      </trkpt>
      <trkpt lat="48.69697" lon="1.73831">
        <ele>176.80000305176</ele>
        <time>2014-08-27T11:06:25.000Z</time>
      </trkpt>
      <trkpt lat="48.69693" lon="1.7384">
        <ele>176.60000610352</ele>
        <time>2014-08-27T11:06:31.000Z</time>
      </trkpt>
      <trkpt lat="48.69687" lon="1.73849">
        <ele>176.60000610352</ele>
        <time>2014-08-27T11:06:37.000Z</time>
      </trkpt>
      <trkpt lat="48.69686" lon="1.73851">
        <ele>176.60000610352</ele>
        <time>2014-08-27T11:06:39.000Z</time>
      </trkpt>
      <trkpt lat="48.6968" lon="1.7386">
        <ele>176.80000305176</ele>
        <time>2014-08-27T11:06:45.000Z</time>
      </trkpt>
      <trkpt lat="48.69674" lon="1.73875">
        <ele>177</ele>
        <time>2014-08-27T11:06:51.000Z</time>
      </trkpt>
      <trkpt lat="48.69669" lon="1.73893">
        <ele>177.19999694824</ele>
        <time>2014-08-27T11:06:58.000Z</time>
      </trkpt>
      <trkpt lat="48.69663" lon="1.73897">
        <ele>177.60000610352</ele>
        <time>2014-08-27T11:07:04.000Z</time>
      </trkpt>
      <trkpt lat="48.69662" lon="1.73899">
        <ele>177.80000305176</ele>
        <time>2014-08-27T11:07:05.000Z</time>
      </trkpt>
      <trkpt lat="48.69654" lon="1.73913">
        <ele>178.19999694824</ele>
        <time>2014-08-27T11:07:12.000Z</time>
      </trkpt>
      <trkpt lat="48.69651" lon="1.73917">
        <ele>178.19999694824</ele>
        <time>2014-08-27T11:07:17.000Z</time>
      </trkpt>
      <trkpt lat="48.69646" lon="1.7393">
        <ele>178.39999389648</ele>
        <time>2014-08-27T11:07:23.000Z</time>
      </trkpt>
      <trkpt lat="48.69641" lon="1.7394">
        <ele>178.39999389648</ele>
        <time>2014-08-27T11:07:29.000Z</time>
      </trkpt>
      <trkpt lat="48.69634" lon="1.73952">
        <ele>178.60000610352</ele>
        <time>2014-08-27T11:07:37.000Z</time>
      </trkpt>
      <trkpt lat="48.69629" lon="1.73962">
        <ele>178.80000305176</ele>
        <time>2014-08-27T11:07:42.000Z</time>
      </trkpt>
      <trkpt lat="48.69627" lon="1.73965">
        <ele>178.80000305176</ele>
        <time>2014-08-27T11:07:45.000Z</time>
      </trkpt>
      <trkpt lat="48.69621" lon="1.73981">
        <ele>178.80000305176</ele>
        <time>2014-08-27T11:07:52.000Z</time>
      </trkpt>
      <trkpt lat="48.6962" lon="1.73993">
        <ele>178.80000305176</ele>
        <time>2014-08-27T11:07:58.000Z</time>
      </trkpt>
      <trkpt lat="48.69621" lon="1.73995">
        <ele>178.60000610352</ele>
        <time>2014-08-27T11:08:00.000Z</time>
      </trkpt>
      <trkpt lat="48.69623" lon="1.74001">
        <ele>178.19999694824</ele>
        <time>2014-08-27T11:08:04.000Z</time>
      </trkpt>
      <trkpt lat="48.69628" lon="1.74011">
        <ele>177.60000610352</ele>
        <time>2014-08-27T11:08:11.000Z</time>
      </trkpt>
      <trkpt lat="48.69633" lon="1.74016">
        <ele>177.19999694824</ele>
        <time>2014-08-27T11:08:15.000Z</time>
      </trkpt>
      <trkpt lat="48.69637" lon="1.7403">
        <ele>176.60000610352</ele>
        <time>2014-08-27T11:08:20.000Z</time>
      </trkpt>
      <trkpt lat="48.6964" lon="1.74038">
        <ele>176.19999694824</ele>
        <time>2014-08-27T11:08:24.000Z</time>
      </trkpt>
      <trkpt lat="48.6964" lon="1.74047">
        <ele>176</ele>
        <time>2014-08-27T11:08:28.000Z</time>
      </trkpt>
      <trkpt lat="48.69641" lon="1.74061">
        <ele>175.60000610352</ele>
        <time>2014-08-27T11:08:34.000Z</time>
      </trkpt>
      <trkpt lat="48.69647" lon="1.74072">
        <ele>174.80000305176</ele>
        <time>2014-08-27T11:08:40.000Z</time>
      </trkpt>
      <trkpt lat="48.69648" lon="1.7408">
        <ele>174.60000610352</ele>
        <time>2014-08-27T11:08:43.000Z</time>
      </trkpt>
      <trkpt lat="48.69653" lon="1.7409">
        <ele>174.19999694824</ele>
        <time>2014-08-27T11:08:48.000Z</time>
      </trkpt>
      <trkpt lat="48.69655" lon="1.74107">
        <ele>173.80000305176</ele>
        <time>2014-08-27T11:08:54.000Z</time>
      </trkpt>
      <trkpt lat="48.69658" lon="1.74117">
        <ele>173.60000610352</ele>
        <time>2014-08-27T11:08:58.000Z</time>
      </trkpt>
      <trkpt lat="48.69659" lon="1.74134">
        <ele>173.19999694824</ele>
        <time>2014-08-27T11:09:03.000Z</time>
      </trkpt>
      <trkpt lat="48.69664" lon="1.7414">
        <ele>172.80000305176</ele>
        <time>2014-08-27T11:09:09.000Z</time>
      </trkpt>
      <trkpt lat="48.69663" lon="1.74159">
        <ele>172.60000610352</ele>
        <time>2014-08-27T11:09:14.000Z</time>
      </trkpt>
      <trkpt lat="48.69666" lon="1.7417">
        <ele>172.39999389648</ele>
        <time>2014-08-27T11:09:20.000Z</time>
      </trkpt>
      <trkpt lat="48.69668" lon="1.74173">
        <ele>172.39999389648</ele>
        <time>2014-08-27T11:09:22.000Z</time>
      </trkpt>
      <trkpt lat="48.6967" lon="1.74184">
        <ele>172.19999694824</ele>
        <time>2014-08-27T11:09:27.000Z</time>
      </trkpt>
      <trkpt lat="48.69677" lon="1.74198">
        <ele>171.60000610352</ele>
        <time>2014-08-27T11:09:34.000Z</time>
      </trkpt>
      <trkpt lat="48.69679" lon="1.74202">
        <ele>171.60000610352</ele>
        <time>2014-08-27T11:09:36.000Z</time>
      </trkpt>
      <trkpt lat="48.6968" lon="1.74214">
        <ele>171.39999389648</ele>
        <time>2014-08-27T11:09:40.000Z</time>
      </trkpt>
      <trkpt lat="48.69685" lon="1.74224">
        <ele>171.19999694824</ele>
        <time>2014-08-27T11:09:45.000Z</time>
      </trkpt>
      <trkpt lat="48.69686" lon="1.74226">
        <ele>171</ele>
        <time>2014-08-27T11:09:46.000Z</time>
      </trkpt>
      <trkpt lat="48.69685" lon="1.74246">
        <ele>171</ele>
        <time>2014-08-27T11:09:52.000Z</time>
      </trkpt>
      <trkpt lat="48.69691" lon="1.74252">
        <ele>170.60000610352</ele>
        <time>2014-08-27T11:09:57.000Z</time>
      </trkpt>
      <trkpt lat="48.69692" lon="1.74256">
        <ele>170.60000610352</ele>
        <time>2014-08-27T11:09:59.000Z</time>
      </trkpt>
      <trkpt lat="48.697" lon="1.74276">
        <ele>170</ele>
        <time>2014-08-27T11:10:06.000Z</time>
      </trkpt>
      <trkpt lat="48.69699" lon="1.74299">
        <ele>169.80000305176</ele>
        <time>2014-08-27T11:10:11.000Z</time>
      </trkpt>
      <trkpt lat="48.69702" lon="1.74332">
        <ele>169.19999694824</ele>
        <time>2014-08-27T11:10:17.000Z</time>
      </trkpt>
      <trkpt lat="48.69707" lon="1.74368">
        <ele>168.19999694824</ele>
        <time>2014-08-27T11:10:22.000Z</time>
      </trkpt>
      <trkpt lat="48.69709" lon="1.74376">
        <ele>167.80000305176</ele>
        <time>2014-08-27T11:10:24.000Z</time>
      </trkpt>
      <trkpt lat="48.69717" lon="1.74407">
        <ele>166.80000305176</ele>
        <time>2014-08-27T11:10:31.000Z</time>
      </trkpt>
      <trkpt lat="48.69725" lon="1.74437">
        <ele>165.80000305176</ele>
        <time>2014-08-27T11:10:37.000Z</time>
      </trkpt>
      <trkpt lat="48.69728" lon="1.74469">
        <ele>164.39999389648</ele>
        <time>2014-08-27T11:10:43.000Z</time>
      </trkpt>
      <trkpt lat="48.69728" lon="1.7447">
        <ele>164.39999389648</ele>
        <time>2014-08-27T11:10:44.000Z</time>
      </trkpt>
      <trkpt lat="48.69739" lon="1.74468">
        <ele>164.39999389648</ele>
        <time>2014-08-27T11:10:51.000Z</time>
      </trkpt>
      <trkpt lat="48.69741" lon="1.74472">
        <ele>164</ele>
        <time>2014-08-27T11:10:53.000Z</time>
      </trkpt>
      <trkpt lat="48.69745" lon="1.74475">
        <ele>163.80000305176</ele>
        <time>2014-08-27T11:10:56.000Z</time>
      </trkpt>
      <trkpt lat="48.69745" lon="1.7449">
        <ele>163.19999694824</ele>
        <time>2014-08-27T11:11:01.000Z</time>
      </trkpt>
      <trkpt lat="48.69744" lon="1.74493">
        <ele>163.19999694824</ele>
        <time>2014-08-27T11:11:02.000Z</time>
      </trkpt>
      <trkpt lat="48.69739" lon="1.74519">
        <ele>162.60000610352</ele>
        <time>2014-08-27T11:11:10.000Z</time>
      </trkpt>
      <trkpt lat="48.69746" lon="1.74527">
        <ele>162.39999389648</ele>
        <time>2014-08-27T11:11:16.000Z</time>
      </trkpt>
      <trkpt lat="48.69751" lon="1.74529">
        <ele>162.19999694824</ele>
        <time>2014-08-27T11:11:20.000Z</time>
      </trkpt>
      <trkpt lat="48.69754" lon="1.74539">
        <ele>162</ele>
        <time>2014-08-27T11:11:25.000Z</time>
      </trkpt>
      <trkpt lat="48.69754" lon="1.74552">
        <ele>161.60000610352</ele>
        <time>2014-08-27T11:11:30.000Z</time>
      </trkpt>
      <trkpt lat="48.69759" lon="1.74564">
        <ele>161.39999389648</ele>
        <time>2014-08-27T11:11:37.000Z</time>
      </trkpt>
      <trkpt lat="48.69759" lon="1.74566">
        <ele>161.19999694824</ele>
        <time>2014-08-27T11:11:38.000Z</time>
      </trkpt>
      <trkpt lat="48.69762" lon="1.74583">
        <ele>161.60000610352</ele>
        <time>2014-08-27T11:11:45.000Z</time>
      </trkpt>
      <trkpt lat="48.69763" lon="1.74594">
        <ele>162</ele>
        <time>2014-08-27T11:11:50.000Z</time>
      </trkpt>
      <trkpt lat="48.69765" lon="1.74606">
        <ele>162.39999389648</ele>
        <time>2014-08-27T11:11:55.000Z</time>
      </trkpt>
      <trkpt lat="48.6977" lon="1.74612">
        <ele>162.39999389648</ele>
        <time>2014-08-27T11:12:01.000Z</time>
      </trkpt>
      <trkpt lat="48.69775" lon="1.74629">
        <ele>163.39999389648</ele>
        <time>2014-08-27T11:12:10.000Z</time>
      </trkpt>
      <trkpt lat="48.69775" lon="1.7464">
        <ele>163.80000305176</ele>
        <time>2014-08-27T11:12:14.000Z</time>
      </trkpt>
      <trkpt lat="48.69776" lon="1.74654">
        <ele>164.39999389648</ele>
        <time>2014-08-27T11:12:20.000Z</time>
      </trkpt>
      <trkpt lat="48.69779" lon="1.74663">
        <ele>165</ele>
        <time>2014-08-27T11:12:24.000Z</time>
      </trkpt>
      <trkpt lat="48.69782" lon="1.74675">
        <ele>165.39999389648</ele>
        <time>2014-08-27T11:12:30.000Z</time>
      </trkpt>
      <trkpt lat="48.69783" lon="1.74685">
        <ele>165.39999389648</ele>
        <time>2014-08-27T11:12:34.000Z</time>
      </trkpt>
      <trkpt lat="48.69786" lon="1.74699">
        <ele>165.80000305176</ele>
        <time>2014-08-27T11:12:40.000Z</time>
      </trkpt>
      <trkpt lat="48.69785" lon="1.74705">
        <ele>165.60000610352</ele>
        <time>2014-08-27T11:12:42.000Z</time>
      </trkpt>
      <trkpt lat="48.69787" lon="1.74714">
        <ele>165.80000305176</ele>
        <time>2014-08-27T11:12:46.000Z</time>
      </trkpt>
      <trkpt lat="48.69796" lon="1.74738">
        <ele>166.80000305176</ele>
        <time>2014-08-27T11:12:55.000Z</time>
      </trkpt>
      <trkpt lat="48.69799" lon="1.74746">
        <ele>167</ele>
        <time>2014-08-27T11:13:00.000Z</time>
      </trkpt>
      <trkpt lat="48.69802" lon="1.74754">
        <ele>167</ele>
        <time>2014-08-27T11:13:04.000Z</time>
      </trkpt>
      <trkpt lat="48.69808" lon="1.74763">
        <ele>167.39999389648</ele>
        <time>2014-08-27T11:13:10.000Z</time>
      </trkpt>
      <trkpt lat="48.69811" lon="1.74783">
        <ele>167.39999389648</ele>
        <time>2014-08-27T11:13:18.000Z</time>
      </trkpt>
      <trkpt lat="48.69814" lon="1.74791">
        <ele>167.80000305176</ele>
        <time>2014-08-27T11:13:23.000Z</time>
      </trkpt>
      <trkpt lat="48.69819" lon="1.74807">
        <ele>168.39999389648</ele>
        <time>2014-08-27T11:13:30.000Z</time>
      </trkpt>
      <trkpt lat="48.69822" lon="1.7483">
        <ele>168.39999389648</ele>
        <time>2014-08-27T11:13:38.000Z</time>
      </trkpt>
      <trkpt lat="48.69827" lon="1.74843">
        <ele>168</ele>
        <time>2014-08-27T11:13:43.000Z</time>
      </trkpt>
      <trkpt lat="48.6983" lon="1.74857">
        <ele>167.60000610352</ele>
        <time>2014-08-27T11:13:49.000Z</time>
      </trkpt>
      <trkpt lat="48.69831" lon="1.74868">
        <ele>167.19999694824</ele>
        <time>2014-08-27T11:13:53.000Z</time>
      </trkpt>
      <trkpt lat="48.69831" lon="1.74886">
        <ele>166.60000610352</ele>
        <time>2014-08-27T11:13:57.000Z</time>
      </trkpt>
      <trkpt lat="48.69823" lon="1.74894">
        <ele>166.60000610352</ele>
        <time>2014-08-27T11:14:03.000Z</time>
      </trkpt>
      <trkpt lat="48.69813" lon="1.74893">
        <ele>166.39999389648</ele>
        <time>2014-08-27T11:14:09.000Z</time>
      </trkpt>
      <trkpt lat="48.69812" lon="1.74894">
        <ele>166.39999389648</ele>
        <time>2014-08-27T11:14:11.000Z</time>
      </trkpt>
      <trkpt lat="48.69814" lon="1.74912">
        <ele>166.80000305176</ele>
        <time>2014-08-27T11:14:17.000Z</time>
      </trkpt>
      <trkpt lat="48.69816" lon="1.74919">
        <ele>167</ele>
        <time>2014-08-27T11:14:19.000Z</time>
      </trkpt>
      <trkpt lat="48.69819" lon="1.74928">
        <ele>167.19999694824</ele>
        <time>2014-08-27T11:14:25.000Z</time>
      </trkpt>
      <trkpt lat="48.69819" lon="1.74937">
        <ele>167.39999389648</ele>
        <time>2014-08-27T11:14:28.000Z</time>
      </trkpt>
      <trkpt lat="48.69818" lon="1.74959">
        <ele>167.80000305176</ele>
        <time>2014-08-27T11:14:35.000Z</time>
      </trkpt>
      <trkpt lat="48.69823" lon="1.74962">
        <ele>168</ele>
        <time>2014-08-27T11:14:39.000Z</time>
      </trkpt>
      <trkpt lat="48.69827" lon="1.74969">
        <ele>168</ele>
        <time>2014-08-27T11:14:44.000Z</time>
      </trkpt>
      <trkpt lat="48.69828" lon="1.74977">
        <ele>168</ele>
        <time>2014-08-27T11:14:47.000Z</time>
      </trkpt>
      <trkpt lat="48.69827" lon="1.74993">
        <ele>168.19999694824</ele>
        <time>2014-08-27T11:14:51.000Z</time>
      </trkpt>
      <trkpt lat="48.69826" lon="1.75011">
        <ele>168.39999389648</ele>
        <time>2014-08-27T11:14:57.000Z</time>
      </trkpt>
      <trkpt lat="48.69828" lon="1.75019">
        <ele>168.39999389648</ele>
        <time>2014-08-27T11:15:02.000Z</time>
      </trkpt>
      <trkpt lat="48.69829" lon="1.75028">
        <ele>168.60000610352</ele>
        <time>2014-08-27T11:15:06.000Z</time>
      </trkpt>
      <trkpt lat="48.6983" lon="1.75037">
        <ele>168.80000305176</ele>
        <time>2014-08-27T11:15:10.000Z</time>
      </trkpt>
      <trkpt lat="48.69831" lon="1.7505">
        <ele>169</ele>
        <time>2014-08-27T11:15:15.000Z</time>
      </trkpt>
      <trkpt lat="48.69832" lon="1.75058">
        <ele>169.19999694824</ele>
        <time>2014-08-27T11:15:19.000Z</time>
      </trkpt>
      <trkpt lat="48.69836" lon="1.75071">
        <ele>169.60000610352</ele>
        <time>2014-08-27T11:15:25.000Z</time>
      </trkpt>
      <trkpt lat="48.69842" lon="1.75074">
        <ele>169.80000305176</ele>
        <time>2014-08-27T11:15:29.000Z</time>
      </trkpt>
      <trkpt lat="48.69847" lon="1.75079">
        <ele>169.80000305176</ele>
        <time>2014-08-27T11:15:34.000Z</time>
      </trkpt>
      <trkpt lat="48.69848" lon="1.75088">
        <ele>169.80000305176</ele>
        <time>2014-08-27T11:15:37.000Z</time>
      </trkpt>
      <trkpt lat="48.6985" lon="1.75103">
        <ele>170</ele>
        <time>2014-08-27T11:15:41.000Z</time>
      </trkpt>
      <trkpt lat="48.69855" lon="1.75131">
        <ele>170.19999694824</ele>
        <time>2014-08-27T11:15:47.000Z</time>
      </trkpt>
      <trkpt lat="48.69856" lon="1.75155">
        <ele>170.19999694824</ele>
        <time>2014-08-27T11:15:51.000Z</time>
      </trkpt>
      <trkpt lat="48.69862" lon="1.75182">
        <ele>171.19999694824</ele>
        <time>2014-08-27T11:15:56.000Z</time>
      </trkpt>
      <trkpt lat="48.69864" lon="1.75211">
        <ele>172.39999389648</ele>
        <time>2014-08-27T11:16:02.000Z</time>
      </trkpt>
      <trkpt lat="48.69867" lon="1.75239">
        <ele>173.39999389648</ele>
        <time>2014-08-27T11:16:07.000Z</time>
      </trkpt>
      <trkpt lat="48.69871" lon="1.75277">
        <ele>172.80000305176</ele>
        <time>2014-08-27T11:16:12.000Z</time>
      </trkpt>
      <trkpt lat="48.69874" lon="1.75328">
        <ele>172.19999694824</ele>
        <time>2014-08-27T11:16:18.000Z</time>
      </trkpt>
      <trkpt lat="48.69875" lon="1.75336">
        <ele>172</ele>
        <time>2014-08-27T11:16:19.000Z</time>
      </trkpt>
      <trkpt lat="48.69876" lon="1.75354">
        <ele>171.80000305176</ele>
        <time>2014-08-27T11:16:22.000Z</time>
      </trkpt>
      <trkpt lat="48.69886" lon="1.75382">
        <ele>171.39999389648</ele>
        <time>2014-08-27T11:16:29.000Z</time>
      </trkpt>
      <trkpt lat="48.69895" lon="1.75395">
        <ele>171.19999694824</ele>
        <time>2014-08-27T11:16:33.000Z</time>
      </trkpt>
      <trkpt lat="48.69898" lon="1.75394">
        <ele>171.39999389648</ele>
        <time>2014-08-27T11:16:34.000Z</time>
      </trkpt>
      <trkpt lat="48.69924" lon="1.75369">
        <ele>172.19999694824</ele>
        <time>2014-08-27T11:16:39.000Z</time>
      </trkpt>
      <trkpt lat="48.69939" lon="1.75355">
        <ele>172.39999389648</ele>
        <time>2014-08-27T11:16:42.000Z</time>
      </trkpt>
      <trkpt lat="48.69957" lon="1.75348">
        <ele>171.60000610352</ele>
        <time>2014-08-27T11:16:46.000Z</time>
      </trkpt>
      <trkpt lat="48.69966" lon="1.75341">
        <ele>171.60000610352</ele>
        <time>2014-08-27T11:16:48.000Z</time>
      </trkpt>
      <trkpt lat="48.69977" lon="1.75338">
        <ele>171.60000610352</ele>
        <time>2014-08-27T11:16:52.000Z</time>
      </trkpt>
      <trkpt lat="48.69991" lon="1.75335">
        <ele>171.60000610352</ele>
        <time>2014-08-27T11:16:57.000Z</time>
      </trkpt>
      <trkpt lat="48.70008" lon="1.75328">
        <ele>171.80000305176</ele>
        <time>2014-08-27T11:17:01.000Z</time>
      </trkpt>
      <trkpt lat="48.70024" lon="1.75317">
        <ele>172.19999694824</ele>
        <time>2014-08-27T11:17:05.000Z</time>
      </trkpt>
      <trkpt lat="48.70027" lon="1.75317">
        <ele>172.19999694824</ele>
        <time>2014-08-27T11:17:06.000Z</time>
      </trkpt>
      <trkpt lat="48.70034" lon="1.75319">
        <ele>172.19999694824</ele>
        <time>2014-08-27T11:17:08.000Z</time>
      </trkpt>
      <trkpt lat="48.70049" lon="1.75311">
        <ele>172.60000610352</ele>
        <time>2014-08-27T11:17:12.000Z</time>
      </trkpt>
      <trkpt lat="48.7007" lon="1.75298">
        <ele>173.19999694824</ele>
        <time>2014-08-27T11:17:17.000Z</time>
      </trkpt>
      <trkpt lat="48.70077" lon="1.75292">
        <ele>173.39999389648</ele>
        <time>2014-08-27T11:17:19.000Z</time>
      </trkpt>
      <trkpt lat="48.70096" lon="1.75284">
        <ele>173.80000305176</ele>
        <time>2014-08-27T11:17:26.000Z</time>
      </trkpt>
      <trkpt lat="48.70103" lon="1.7528">
        <ele>174</ele>
        <time>2014-08-27T11:17:30.000Z</time>
      </trkpt>
      <trkpt lat="48.70109" lon="1.75277">
        <ele>174.19999694824</ele>
        <time>2014-08-27T11:17:35.000Z</time>
      </trkpt>
      <trkpt lat="48.70115" lon="1.75274">
        <ele>174.60000610352</ele>
        <time>2014-08-27T11:17:40.000Z</time>
      </trkpt>
      <trkpt lat="48.70117" lon="1.75273">
        <ele>174.60000610352</ele>
        <time>2014-08-27T11:17:42.000Z</time>
      </trkpt>
      <trkpt lat="48.70124" lon="1.7527">
        <ele>175</ele>
        <time>2014-08-27T11:17:46.000Z</time>
      </trkpt>
      <trkpt lat="48.70128" lon="1.75271">
        <ele>175</ele>
        <time>2014-08-27T11:17:51.000Z</time>
      </trkpt>
      <trkpt lat="48.70136" lon="1.75269">
        <ele>175.39999389648</ele>
        <time>2014-08-27T11:17:57.000Z</time>
      </trkpt>
      <trkpt lat="48.70143" lon="1.75267">
        <ele>175.39999389648</ele>
        <time>2014-08-27T11:18:03.000Z</time>
      </trkpt>
      <trkpt lat="48.70153" lon="1.7526">
        <ele>175.60000610352</ele>
        <time>2014-08-27T11:18:10.000Z</time>
      </trkpt>
      <trkpt lat="48.70162" lon="1.75254">
        <ele>175.80000305176</ele>
        <time>2014-08-27T11:18:18.000Z</time>
      </trkpt>
      <trkpt lat="48.70172" lon="1.75247">
        <ele>175.80000305176</ele>
        <time>2014-08-27T11:18:22.000Z</time>
      </trkpt>
      <trkpt lat="48.70179" lon="1.75245">
        <ele>176</ele>
        <time>2014-08-27T11:18:27.000Z</time>
      </trkpt>
      <trkpt lat="48.70183" lon="1.75243">
        <ele>176</ele>
        <time>2014-08-27T11:18:29.000Z</time>
      </trkpt>
      <trkpt lat="48.70191" lon="1.7524">
        <ele>176.19999694824</ele>
        <time>2014-08-27T11:18:35.000Z</time>
      </trkpt>
      <trkpt lat="48.70195" lon="1.75238">
        <ele>176.39999389648</ele>
        <time>2014-08-27T11:18:41.000Z</time>
      </trkpt>
      <trkpt lat="48.70197" lon="1.7524">
        <ele>176.39999389648</ele>
        <time>2014-08-27T11:18:44.000Z</time>
      </trkpt>
      <trkpt lat="48.702" lon="1.75237">
        <ele>176.60000610352</ele>
        <time>2014-08-27T11:18:47.000Z</time>
      </trkpt>
      <trkpt lat="48.70209" lon="1.75232">
        <ele>177</ele>
        <time>2014-08-27T11:18:53.000Z</time>
      </trkpt>
      <trkpt lat="48.70215" lon="1.75231">
        <ele>177.39999389648</ele>
        <time>2014-08-27T11:18:56.000Z</time>
      </trkpt>
      <trkpt lat="48.70224" lon="1.75229">
        <ele>177.80000305176</ele>
        <time>2014-08-27T11:19:00.000Z</time>
      </trkpt>
      <trkpt lat="48.70239" lon="1.75229">
        <ele>178.60000610352</ele>
        <time>2014-08-27T11:19:06.000Z</time>
      </trkpt>
      <trkpt lat="48.70242" lon="1.7525">
        <ele>178.60000610352</ele>
        <time>2014-08-27T11:19:12.000Z</time>
      </trkpt>
      <trkpt lat="48.70242" lon="1.75276">
        <ele>178.19999694824</ele>
        <time>2014-08-27T11:19:18.000Z</time>
      </trkpt>
      <trkpt lat="48.70249" lon="1.7528">
        <ele>178.39999389648</ele>
        <time>2014-08-27T11:19:23.000Z</time>
      </trkpt>
      <trkpt lat="48.70256" lon="1.7528">
        <ele>178.80000305176</ele>
        <time>2014-08-27T11:19:28.000Z</time>
      </trkpt>
      <trkpt lat="48.7026" lon="1.7528">
        <ele>179</ele>
        <time>2014-08-27T11:19:30.000Z</time>
      </trkpt>
      <trkpt lat="48.70269" lon="1.75282">
        <ele>179.39999389648</ele>
        <time>2014-08-27T11:19:35.000Z</time>
      </trkpt>
      <trkpt lat="48.70276" lon="1.75288">
        <ele>179.60000610352</ele>
        <time>2014-08-27T11:19:41.000Z</time>
      </trkpt>
      <trkpt lat="48.70282" lon="1.75297">
        <ele>179.60000610352</ele>
        <time>2014-08-27T11:19:47.000Z</time>
      </trkpt>
      <trkpt lat="48.70286" lon="1.75299">
        <ele>179.60000610352</ele>
        <time>2014-08-27T11:19:50.000Z</time>
      </trkpt>
      <trkpt lat="48.70291" lon="1.75301">
        <ele>179.80000305176</ele>
        <time>2014-08-27T11:19:53.000Z</time>
      </trkpt>
      <trkpt lat="48.70307" lon="1.75305">
        <ele>180</ele>
        <time>2014-08-27T11:20:01.000Z</time>
      </trkpt>
      <trkpt lat="48.70308" lon="1.7531">
        <ele>180</ele>
        <time>2014-08-27T11:20:02.000Z</time>
      </trkpt>
      <trkpt lat="48.70312" lon="1.75326">
        <ele>180</ele>
        <time>2014-08-27T11:20:09.000Z</time>
      </trkpt>
      <trkpt lat="48.70314" lon="1.75334">
        <ele>180</ele>
        <time>2014-08-27T11:20:12.000Z</time>
      </trkpt>
      <trkpt lat="48.70315" lon="1.75339">
        <ele>180</ele>
        <time>2014-08-27T11:20:15.000Z</time>
      </trkpt>
      <trkpt lat="48.70317" lon="1.75346">
        <ele>180.19999694824</ele>
        <time>2014-08-27T11:20:19.000Z</time>
      </trkpt>
      <trkpt lat="48.70328" lon="1.75354">
        <ele>180.39999389648</ele>
        <time>2014-08-27T11:20:28.000Z</time>
      </trkpt>
      <trkpt lat="48.70334" lon="1.75355">
        <ele>180.60000610352</ele>
        <time>2014-08-27T11:20:32.000Z</time>
      </trkpt>
      <trkpt lat="48.70342" lon="1.75362">
        <ele>180.80000305176</ele>
        <time>2014-08-27T11:20:39.000Z</time>
      </trkpt>
      <trkpt lat="48.70348" lon="1.75374">
        <ele>180.80000305176</ele>
        <time>2014-08-27T11:20:46.000Z</time>
      </trkpt>
      <trkpt lat="48.70352" lon="1.7538">
        <ele>181</ele>
        <time>2014-08-27T11:20:50.000Z</time>
      </trkpt>
      <trkpt lat="48.70361" lon="1.75388">
        <ele>181</ele>
        <time>2014-08-27T11:20:57.000Z</time>
      </trkpt>
      <trkpt lat="48.70369" lon="1.75396">
        <ele>181.19999694824</ele>
        <time>2014-08-27T11:21:03.000Z</time>
      </trkpt>
      <trkpt lat="48.7038" lon="1.75403">
        <ele>181.39999389648</ele>
        <time>2014-08-27T11:21:11.000Z</time>
      </trkpt>
      <trkpt lat="48.70389" lon="1.75404">
        <ele>181.39999389648</ele>
        <time>2014-08-27T11:21:18.000Z</time>
      </trkpt>
      <trkpt lat="48.70396" lon="1.75404">
        <ele>181.60000610352</ele>
        <time>2014-08-27T11:21:23.000Z</time>
      </trkpt>
      <trkpt lat="48.70402" lon="1.75408">
        <ele>181.60000610352</ele>
        <time>2014-08-27T11:21:27.000Z</time>
      </trkpt>
      <trkpt lat="48.70415" lon="1.75412">
        <ele>182</ele>
        <time>2014-08-27T11:21:36.000Z</time>
      </trkpt>
      <trkpt lat="48.70418" lon="1.75418">
        <ele>182</ele>
        <time>2014-08-27T11:21:40.000Z</time>
      </trkpt>
      <trkpt lat="48.70426" lon="1.75424">
        <ele>182.39999389648</ele>
        <time>2014-08-27T11:21:46.000Z</time>
      </trkpt>
      <trkpt lat="48.70438" lon="1.75433">
        <ele>182.60000610352</ele>
        <time>2014-08-27T11:21:51.000Z</time>
      </trkpt>
      <trkpt lat="48.7045" lon="1.75447">
        <ele>182.60000610352</ele>
        <time>2014-08-27T11:21:57.000Z</time>
      </trkpt>
      <trkpt lat="48.70477" lon="1.75469">
        <ele>182</ele>
        <time>2014-08-27T11:22:05.000Z</time>
      </trkpt>
      <trkpt lat="48.70494" lon="1.75483">
        <ele>181.80000305176</ele>
        <time>2014-08-27T11:22:11.000Z</time>
      </trkpt>
      <trkpt lat="48.70509" lon="1.75497">
        <ele>181.80000305176</ele>
        <time>2014-08-27T11:22:16.000Z</time>
      </trkpt>
      <trkpt lat="48.70522" lon="1.75512">
        <ele>182.19999694824</ele>
        <time>2014-08-27T11:22:21.000Z</time>
      </trkpt>
      <trkpt lat="48.70538" lon="1.75534">
        <ele>182.80000305176</ele>
        <time>2014-08-27T11:22:27.000Z</time>
      </trkpt>
      <trkpt lat="48.70554" lon="1.75557">
        <ele>183.60000610352</ele>
        <time>2014-08-27T11:22:33.000Z</time>
      </trkpt>
      <trkpt lat="48.70578" lon="1.75575">
        <ele>183.60000610352</ele>
        <time>2014-08-27T11:22:40.000Z</time>
      </trkpt>
      <trkpt lat="48.70595" lon="1.75593">
        <ele>183.80000305176</ele>
        <time>2014-08-27T11:22:45.000Z</time>
      </trkpt>
      <trkpt lat="48.70606" lon="1.75612">
        <ele>183.60000610352</ele>
        <time>2014-08-27T11:22:50.000Z</time>
      </trkpt>
      <trkpt lat="48.70615" lon="1.7563">
        <ele>183</ele>
        <time>2014-08-27T11:22:55.000Z</time>
      </trkpt>
      <trkpt lat="48.70628" lon="1.75646">
        <ele>181.80000305176</ele>
        <time>2014-08-27T11:23:00.000Z</time>
      </trkpt>
      <trkpt lat="48.70646" lon="1.75669">
        <ele>179.80000305176</ele>
        <time>2014-08-27T11:23:08.000Z</time>
      </trkpt>
      <trkpt lat="48.70664" lon="1.75687">
        <ele>177.39999389648</ele>
        <time>2014-08-27T11:23:14.000Z</time>
      </trkpt>
      <trkpt lat="48.70685" lon="1.75714">
        <ele>174.39999389648</ele>
        <time>2014-08-27T11:23:22.000Z</time>
      </trkpt>
      <trkpt lat="48.70704" lon="1.75734">
        <ele>174</ele>
        <time>2014-08-27T11:23:28.000Z</time>
      </trkpt>
      <trkpt lat="48.70726" lon="1.75759">
        <ele>173.80000305176</ele>
        <time>2014-08-27T11:23:35.000Z</time>
      </trkpt>
      <trkpt lat="48.70741" lon="1.75785">
        <ele>173.39999389648</ele>
        <time>2014-08-27T11:23:42.000Z</time>
      </trkpt>
      <trkpt lat="48.70743" lon="1.7579">
        <ele>173.39999389648</ele>
        <time>2014-08-27T11:23:47.000Z</time>
      </trkpt>
      <trkpt lat="48.7075" lon="1.758">
        <ele>173.19999694824</ele>
        <time>2014-08-27T11:24:51.000Z</time>
      </trkpt>
      <trkpt lat="48.70754" lon="1.75805">
        <ele>173.19999694824</ele>
        <time>2014-08-27T11:24:55.000Z</time>
      </trkpt>
      <trkpt lat="48.70755" lon="1.75807">
        <ele>173.19999694824</ele>
        <time>2014-08-27T11:24:57.000Z</time>
      </trkpt>
      <trkpt lat="48.70759" lon="1.75808">
        <ele>173.19999694824</ele>
        <time>2014-08-27T11:25:03.000Z</time>
      </trkpt>
      <trkpt lat="48.7076" lon="1.75805">
        <ele>173.19999694824</ele>
        <time>2014-08-27T11:25:09.000Z</time>
      </trkpt>
      <trkpt lat="48.70759" lon="1.75805">
        <ele>173.19999694824</ele>
        <time>2014-08-27T11:25:12.000Z</time>
      </trkpt>
      <trkpt lat="48.70753" lon="1.75803">
        <ele>173.19999694824</ele>
        <time>2014-08-27T11:25:27.000Z</time>
      </trkpt>
      <trkpt lat="48.70749" lon="1.75798">
        <ele>173.19999694824</ele>
        <time>2014-08-27T11:25:31.000Z</time>
      </trkpt>
      <trkpt lat="48.7074" lon="1.7579">
        <ele>173.39999389648</ele>
        <time>2014-08-27T11:25:39.000Z</time>
      </trkpt>
      <trkpt lat="48.70737" lon="1.75786">
        <ele>173.39999389648</ele>
        <time>2014-08-27T11:25:42.000Z</time>
      </trkpt>
      <trkpt lat="48.70731" lon="1.75777">
        <ele>173.60000610352</ele>
        <time>2014-08-27T11:25:48.000Z</time>
      </trkpt>
      <trkpt lat="48.70723" lon="1.75772">
        <ele>173.60000610352</ele>
        <time>2014-08-27T11:25:54.000Z</time>
      </trkpt>
      <trkpt lat="48.70722" lon="1.75771">
        <ele>173.60000610352</ele>
        <time>2014-08-27T11:25:55.000Z</time>
      </trkpt>
      <trkpt lat="48.7072" lon="1.75768">
        <ele>173.60000610352</ele>
        <time>2014-08-27T11:25:57.000Z</time>
      </trkpt>
      <trkpt lat="48.70715" lon="1.75763">
        <ele>173.80000305176</ele>
        <time>2014-08-27T11:26:01.000Z</time>
      </trkpt>
      <trkpt lat="48.70706" lon="1.75753">
        <ele>173.80000305176</ele>
        <time>2014-08-27T11:26:09.000Z</time>
      </trkpt>
      <trkpt lat="48.70705" lon="1.75752">
        <ele>173.80000305176</ele>
        <time>2014-08-27T11:26:10.000Z</time>
      </trkpt>
      <trkpt lat="48.70699" lon="1.75744">
        <ele>174</ele>
        <time>2014-08-27T11:26:16.000Z</time>
      </trkpt>
      <trkpt lat="48.70694" lon="1.75736">
        <ele>174</ele>
        <time>2014-08-27T11:26:21.000Z</time>
      </trkpt>
      <trkpt lat="48.70688" lon="1.75731">
        <ele>174</ele>
        <time>2014-08-27T11:26:26.000Z</time>
      </trkpt>
      <trkpt lat="48.70687" lon="1.75728">
        <ele>174.19999694824</ele>
        <time>2014-08-27T11:26:28.000Z</time>
      </trkpt>
      <trkpt lat="48.70681" lon="1.75717">
        <ele>175</ele>
        <time>2014-08-27T11:26:34.000Z</time>
      </trkpt>
      <trkpt lat="48.70676" lon="1.7571">
        <ele>175.60000610352</ele>
        <time>2014-08-27T11:26:38.000Z</time>
      </trkpt>
      <trkpt lat="48.70672" lon="1.75701">
        <ele>176.19999694824</ele>
        <time>2014-08-27T11:26:43.000Z</time>
      </trkpt>
      <trkpt lat="48.7067" lon="1.75699">
        <ele>176.39999389648</ele>
        <time>2014-08-27T11:26:45.000Z</time>
      </trkpt>
      <trkpt lat="48.70665" lon="1.75691">
        <ele>177.19999694824</ele>
        <time>2014-08-27T11:26:50.000Z</time>
      </trkpt>
      <trkpt lat="48.70659" lon="1.75687">
        <ele>178</ele>
        <time>2014-08-27T11:26:55.000Z</time>
      </trkpt>
      <trkpt lat="48.70653" lon="1.75684">
        <ele>178.80000305176</ele>
        <time>2014-08-27T11:26:59.000Z</time>
      </trkpt>
      <trkpt lat="48.70644" lon="1.75671">
        <ele>180</ele>
        <time>2014-08-27T11:27:07.000Z</time>
      </trkpt>
      <trkpt lat="48.70639" lon="1.75664">
        <ele>180.60000610352</ele>
        <time>2014-08-27T11:27:12.000Z</time>
      </trkpt>
      <trkpt lat="48.70636" lon="1.75659">
        <ele>181</ele>
        <time>2014-08-27T11:27:16.000Z</time>
      </trkpt>
      <trkpt lat="48.70641" lon="1.75643">
        <ele>180.19999694824</ele>
        <time>2014-08-27T11:27:24.000Z</time>
      </trkpt>
      <trkpt lat="48.70644" lon="1.7563">
        <ele>179.60000610352</ele>
        <time>2014-08-27T11:27:29.000Z</time>
      </trkpt>
      <trkpt lat="48.70644" lon="1.75627">
        <ele>179.39999389648</ele>
        <time>2014-08-27T11:27:30.000Z</time>
      </trkpt>
      <trkpt lat="48.70647" lon="1.75618">
        <ele>179</ele>
        <time>2014-08-27T11:27:35.000Z</time>
      </trkpt>
      <trkpt lat="48.7065" lon="1.75604">
        <ele>178.60000610352</ele>
        <time>2014-08-27T11:27:41.000Z</time>
      </trkpt>
      <trkpt lat="48.70653" lon="1.75588">
        <ele>178.19999694824</ele>
        <time>2014-08-27T11:27:48.000Z</time>
      </trkpt>
      <trkpt lat="48.70654" lon="1.75584">
        <ele>178.19999694824</ele>
        <time>2014-08-27T11:27:50.000Z</time>
      </trkpt>
      <trkpt lat="48.70657" lon="1.75575">
        <ele>177.80000305176</ele>
        <time>2014-08-27T11:27:55.000Z</time>
      </trkpt>
      <trkpt lat="48.70665" lon="1.75565">
        <ele>176.39999389648</ele>
        <time>2014-08-27T11:28:02.000Z</time>
      </trkpt>
      <trkpt lat="48.70669" lon="1.75555">
        <ele>175</ele>
        <time>2014-08-27T11:28:09.000Z</time>
      </trkpt>
      <trkpt lat="48.70675" lon="1.75549">
        <ele>174.60000610352</ele>
        <time>2014-08-27T11:28:15.000Z</time>
      </trkpt>
      <trkpt lat="48.70676" lon="1.75548">
        <ele>174.60000610352</ele>
        <time>2014-08-27T11:28:16.000Z</time>
      </trkpt>
      <trkpt lat="48.70679" lon="1.75541">
        <ele>174.39999389648</ele>
        <time>2014-08-27T11:28:21.000Z</time>
      </trkpt>
      <trkpt lat="48.70683" lon="1.75534">
        <ele>174.19999694824</ele>
        <time>2014-08-27T11:28:27.000Z</time>
      </trkpt>
      <trkpt lat="48.70685" lon="1.75532">
        <ele>174</ele>
        <time>2014-08-27T11:28:32.000Z</time>
      </trkpt>
      <trkpt lat="48.70688" lon="1.75527">
        <ele>173.80000305176</ele>
        <time>2014-08-27T11:28:38.000Z</time>
      </trkpt>
      <trkpt lat="48.7069" lon="1.75521">
        <ele>173.60000610352</ele>
        <time>2014-08-27T11:28:41.000Z</time>
      </trkpt>
      <trkpt lat="48.70695" lon="1.75506">
        <ele>173</ele>
        <time>2014-08-27T11:28:49.000Z</time>
      </trkpt>
      <trkpt lat="48.70696" lon="1.75497">
        <ele>172.80000305176</ele>
        <time>2014-08-27T11:28:54.000Z</time>
      </trkpt>
      <trkpt lat="48.70696" lon="1.75487">
        <ele>172.80000305176</ele>
        <time>2014-08-27T11:29:00.000Z</time>
      </trkpt>
      <trkpt lat="48.70698" lon="1.75479">
        <ele>172.60000610352</ele>
        <time>2014-08-27T11:29:06.000Z</time>
      </trkpt>
      <trkpt lat="48.70699" lon="1.75477">
        <ele>172.39999389648</ele>
        <time>2014-08-27T11:29:10.000Z</time>
      </trkpt>
      <trkpt lat="48.70703" lon="1.75474">
        <ele>172.19999694824</ele>
        <time>2014-08-27T11:30:12.000Z</time>
      </trkpt>
      <trkpt lat="48.70704" lon="1.75462">
        <ele>172</ele>
        <time>2014-08-27T11:30:17.000Z</time>
      </trkpt>
      <trkpt lat="48.70706" lon="1.75458">
        <ele>171.80000305176</ele>
        <time>2014-08-27T11:30:20.000Z</time>
      </trkpt>
      <trkpt lat="48.70706" lon="1.75455">
        <ele>171.80000305176</ele>
        <time>2014-08-27T11:30:22.000Z</time>
      </trkpt>
      <trkpt lat="48.7071" lon="1.75452">
        <ele>171.60000610352</ele>
        <time>2014-08-27T11:30:28.000Z</time>
      </trkpt>
      <trkpt lat="48.7071" lon="1.75452">
        <ele>171.60000610352</ele>
        <time>2014-08-27T11:30:29.000Z</time>
      </trkpt>
      <trkpt lat="48.70699" lon="1.75449">
        <ele>171.80000305176</ele>
        <time>2014-08-27T11:31:13.000Z</time>
      </trkpt>
      <trkpt lat="48.70693" lon="1.7545">
        <ele>172</ele>
        <time>2014-08-27T11:31:17.000Z</time>
      </trkpt>
      <trkpt lat="48.70686" lon="1.75447">
        <ele>172</ele>
        <time>2014-08-27T11:31:23.000Z</time>
      </trkpt>
      <trkpt lat="48.70678" lon="1.75446">
        <ele>172</ele>
        <time>2014-08-27T11:31:29.000Z</time>
      </trkpt>
      <trkpt lat="48.70672" lon="1.75443">
        <ele>172</ele>
        <time>2014-08-27T11:31:34.000Z</time>
      </trkpt>
      <trkpt lat="48.7067" lon="1.75442">
        <ele>172</ele>
        <time>2014-08-27T11:31:36.000Z</time>
      </trkpt>
      <trkpt lat="48.70665" lon="1.75441">
        <ele>171.80000305176</ele>
        <time>2014-08-27T11:31:40.000Z</time>
      </trkpt>
      <trkpt lat="48.70661" lon="1.75441">
        <ele>171.80000305176</ele>
        <time>2014-08-27T11:31:44.000Z</time>
      </trkpt>
      <trkpt lat="48.70659" lon="1.7544">
        <ele>171.80000305176</ele>
        <time>2014-08-27T11:31:46.000Z</time>
      </trkpt>
      <trkpt lat="48.70654" lon="1.75442">
        <ele>172</ele>
        <time>2014-08-27T11:31:52.000Z</time>
      </trkpt>
      <trkpt lat="48.7065" lon="1.7544">
        <ele>171.80000305176</ele>
        <time>2014-08-27T11:31:58.000Z</time>
      </trkpt>
      <trkpt lat="48.70649" lon="1.75438">
        <ele>171.80000305176</ele>
        <time>2014-08-27T11:32:02.000Z</time>
      </trkpt>
    </trkseg>
  </trk>
</gpx>